<?xml version="1.0" encoding="UTF-8" standalone="no" ?>
<gpx xmlns="http://www.topografix.com/GPX/1/1" xmlns:xsi="http://www.w3.org/2001/XMLSchema-instance" xsi:schemaLocation="http://www.topografix.com/GPX/1/1 http://www.topografix.com/GPX/1/1/gpx.xsd" version="1.1" creator="VisuGPX - https://www.visugpx.com">
  <metadata>
    <name>Cahors VTT</name>
  </metadata>
  <trk>
    <name><![CDATA[Cahors VTT_1]]></name>
    <trkseg>
      <trkpt lat="44.45555" lon="1.47503">
        <ele>406.4</ele>
        <time>2024-02-10T08:38:01Z</time>
      </trkpt>
      <trkpt lat="44.45555" lon="1.47503">
        <ele>406.6</ele>
        <time>2024-02-10T08:38:02Z</time>
      </trkpt>
      <trkpt lat="44.45553" lon="1.47505">
        <ele>406.6</ele>
        <time>2024-02-10T08:38:04Z</time>
      </trkpt>
      <trkpt lat="44.45549" lon="1.47508">
        <ele>406.4</ele>
        <time>2024-02-10T08:38:06Z</time>
      </trkpt>
      <trkpt lat="44.45542" lon="1.47511">
        <ele>406.6</ele>
        <time>2024-02-10T08:38:08Z</time>
      </trkpt>
      <trkpt lat="44.45536" lon="1.47514">
        <ele>407.6</ele>
        <time>2024-02-10T08:38:10Z</time>
      </trkpt>
      <trkpt lat="44.4553" lon="1.47518">
        <ele>407.6</ele>
        <time>2024-02-10T08:38:12Z</time>
      </trkpt>
      <trkpt lat="44.45523" lon="1.47522">
        <ele>407.8</ele>
        <time>2024-02-10T08:38:14Z</time>
      </trkpt>
      <trkpt lat="44.45516" lon="1.47525">
        <ele>408</ele>
        <time>2024-02-10T08:38:16Z</time>
      </trkpt>
      <trkpt lat="44.45509" lon="1.47529">
        <ele>408.2</ele>
        <time>2024-02-10T08:38:18Z</time>
      </trkpt>
      <trkpt lat="44.45502" lon="1.47534">
        <ele>408.6</ele>
        <time>2024-02-10T08:38:20Z</time>
      </trkpt>
      <trkpt lat="44.45495" lon="1.47538">
        <ele>408.2</ele>
        <time>2024-02-10T08:38:22Z</time>
      </trkpt>
      <trkpt lat="44.45491" lon="1.47541">
        <ele>408.2</ele>
        <time>2024-02-10T08:38:23Z</time>
      </trkpt>
      <trkpt lat="44.45487" lon="1.47543">
        <ele>408.2</ele>
        <time>2024-02-10T08:38:24Z</time>
      </trkpt>
      <trkpt lat="44.45479" lon="1.47547">
        <ele>408.2</ele>
        <time>2024-02-10T08:38:26Z</time>
      </trkpt>
      <trkpt lat="44.4547" lon="1.47552">
        <ele>408.4</ele>
        <time>2024-02-10T08:38:28Z</time>
      </trkpt>
      <trkpt lat="44.45462" lon="1.47555">
        <ele>409</ele>
        <time>2024-02-10T08:38:30Z</time>
      </trkpt>
      <trkpt lat="44.45454" lon="1.47559">
        <ele>409.2</ele>
        <time>2024-02-10T08:38:32Z</time>
      </trkpt>
      <trkpt lat="44.45446" lon="1.47562">
        <ele>409.4</ele>
        <time>2024-02-10T08:38:34Z</time>
      </trkpt>
      <trkpt lat="44.45439" lon="1.47566">
        <ele>409.6</ele>
        <time>2024-02-10T08:38:36Z</time>
      </trkpt>
      <trkpt lat="44.45431" lon="1.47568">
        <ele>409.8</ele>
        <time>2024-02-10T08:38:38Z</time>
      </trkpt>
      <trkpt lat="44.45423" lon="1.4757">
        <ele>410</ele>
        <time>2024-02-10T08:38:40Z</time>
      </trkpt>
      <trkpt lat="44.45419" lon="1.47571">
        <ele>410</ele>
        <time>2024-02-10T08:38:41Z</time>
      </trkpt>
      <trkpt lat="44.45415" lon="1.47572">
        <ele>410.2</ele>
        <time>2024-02-10T08:38:42Z</time>
      </trkpt>
      <trkpt lat="44.45407" lon="1.47574">
        <ele>410.4</ele>
        <time>2024-02-10T08:38:44Z</time>
      </trkpt>
      <trkpt lat="44.45398" lon="1.47575">
        <ele>410.8</ele>
        <time>2024-02-10T08:38:46Z</time>
      </trkpt>
      <trkpt lat="44.4539" lon="1.47577">
        <ele>411</ele>
        <time>2024-02-10T08:38:48Z</time>
      </trkpt>
      <trkpt lat="44.45381" lon="1.47578">
        <ele>411</ele>
        <time>2024-02-10T08:38:50Z</time>
      </trkpt>
      <trkpt lat="44.45373" lon="1.4758">
        <ele>411</ele>
        <time>2024-02-10T08:38:52Z</time>
      </trkpt>
      <trkpt lat="44.45365" lon="1.47581">
        <ele>411</ele>
        <time>2024-02-10T08:38:54Z</time>
      </trkpt>
      <trkpt lat="44.45354" lon="1.47584">
        <ele>411</ele>
        <time>2024-02-10T08:38:57Z</time>
      </trkpt>
      <trkpt lat="44.45346" lon="1.47585">
        <ele>411</ele>
        <time>2024-02-10T08:38:59Z</time>
      </trkpt>
      <trkpt lat="44.45342" lon="1.47585">
        <ele>410.8</ele>
        <time>2024-02-10T08:39:00Z</time>
      </trkpt>
      <trkpt lat="44.45338" lon="1.47585">
        <ele>410.8</ele>
        <time>2024-02-10T08:39:01Z</time>
      </trkpt>
      <trkpt lat="44.45328" lon="1.47585">
        <ele>410.8</ele>
        <time>2024-02-10T08:39:03Z</time>
      </trkpt>
      <trkpt lat="44.45323" lon="1.47584">
        <ele>410.8</ele>
        <time>2024-02-10T08:39:04Z</time>
      </trkpt>
      <trkpt lat="44.45317" lon="1.47584">
        <ele>410.8</ele>
        <time>2024-02-10T08:39:05Z</time>
      </trkpt>
      <trkpt lat="44.45304" lon="1.47583">
        <ele>410.6</ele>
        <time>2024-02-10T08:39:07Z</time>
      </trkpt>
      <trkpt lat="44.45292" lon="1.47584">
        <ele>410.4</ele>
        <time>2024-02-10T08:39:09Z</time>
      </trkpt>
      <trkpt lat="44.45281" lon="1.47586">
        <ele>410.4</ele>
        <time>2024-02-10T08:39:11Z</time>
      </trkpt>
      <trkpt lat="44.45269" lon="1.4759">
        <ele>410</ele>
        <time>2024-02-10T08:39:13Z</time>
      </trkpt>
      <trkpt lat="44.4526" lon="1.47595">
        <ele>409</ele>
        <time>2024-02-10T08:39:15Z</time>
      </trkpt>
      <trkpt lat="44.45251" lon="1.47599">
        <ele>408.6</ele>
        <time>2024-02-10T08:39:17Z</time>
      </trkpt>
      <trkpt lat="44.45244" lon="1.47603">
        <ele>408.6</ele>
        <time>2024-02-10T08:39:19Z</time>
      </trkpt>
      <trkpt lat="44.45238" lon="1.47607">
        <ele>408.6</ele>
        <time>2024-02-10T08:39:21Z</time>
      </trkpt>
      <trkpt lat="44.45236" lon="1.47609">
        <ele>408.6</ele>
        <time>2024-02-10T08:39:22Z</time>
      </trkpt>
      <trkpt lat="44.45235" lon="1.4761">
        <ele>408.6</ele>
        <time>2024-02-10T08:39:23Z</time>
      </trkpt>
      <trkpt lat="44.45232" lon="1.47613">
        <ele>408.8</ele>
        <time>2024-02-10T08:39:25Z</time>
      </trkpt>
      <trkpt lat="44.4523" lon="1.47614">
        <ele>409.2</ele>
        <time>2024-02-10T08:39:27Z</time>
      </trkpt>
      <trkpt lat="44.45229" lon="1.47615">
        <ele>409.6</ele>
        <time>2024-02-10T08:39:28Z</time>
      </trkpt>
      <trkpt lat="44.45228" lon="1.47616">
        <ele>410</ele>
        <time>2024-02-10T08:39:29Z</time>
      </trkpt>
      <trkpt lat="44.45228" lon="1.47616">
        <ele>410.6</ele>
        <time>2024-02-10T08:39:30Z</time>
      </trkpt>
      <trkpt lat="44.45227" lon="1.47617">
        <ele>411</ele>
        <time>2024-02-10T08:39:31Z</time>
      </trkpt>
      <trkpt lat="44.45226" lon="1.47618">
        <ele>411.6</ele>
        <time>2024-02-10T08:39:33Z</time>
      </trkpt>
      <trkpt lat="44.45224" lon="1.47619">
        <ele>412.2</ele>
        <time>2024-02-10T08:39:35Z</time>
      </trkpt>
      <trkpt lat="44.45223" lon="1.47621">
        <ele>412.8</ele>
        <time>2024-02-10T08:39:37Z</time>
      </trkpt>
      <trkpt lat="44.45221" lon="1.47624">
        <ele>413</ele>
        <time>2024-02-10T08:39:39Z</time>
      </trkpt>
      <trkpt lat="44.45221" lon="1.47626">
        <ele>413</ele>
        <time>2024-02-10T08:39:40Z</time>
      </trkpt>
      <trkpt lat="44.45221" lon="1.47628">
        <ele>413.2</ele>
        <time>2024-02-10T08:39:41Z</time>
      </trkpt>
      <trkpt lat="44.45223" lon="1.47633">
        <ele>413.2</ele>
        <time>2024-02-10T08:39:42Z</time>
      </trkpt>
      <trkpt lat="44.45225" lon="1.47638">
        <ele>413.2</ele>
        <time>2024-02-10T08:39:43Z</time>
      </trkpt>
      <trkpt lat="44.45228" lon="1.47643">
        <ele>413.2</ele>
        <time>2024-02-10T08:39:44Z</time>
      </trkpt>
      <trkpt lat="44.45231" lon="1.4765">
        <ele>413.2</ele>
        <time>2024-02-10T08:39:45Z</time>
      </trkpt>
      <trkpt lat="44.45233" lon="1.47657">
        <ele>413.2</ele>
        <time>2024-02-10T08:39:46Z</time>
      </trkpt>
      <trkpt lat="44.45235" lon="1.47664">
        <ele>413.2</ele>
        <time>2024-02-10T08:39:47Z</time>
      </trkpt>
      <trkpt lat="44.45241" lon="1.47675">
        <ele>413.2</ele>
        <time>2024-02-10T08:39:49Z</time>
      </trkpt>
      <trkpt lat="44.45242" lon="1.47686">
        <ele>413.2</ele>
        <time>2024-02-10T08:39:51Z</time>
      </trkpt>
      <trkpt lat="44.45244" lon="1.4769">
        <ele>413</ele>
        <time>2024-02-10T08:39:52Z</time>
      </trkpt>
      <trkpt lat="44.45246" lon="1.47691">
        <ele>412.8</ele>
        <time>2024-02-10T08:39:53Z</time>
      </trkpt>
      <trkpt lat="44.45252" lon="1.47697">
        <ele>412.4</ele>
        <time>2024-02-10T08:39:55Z</time>
      </trkpt>
      <trkpt lat="44.45253" lon="1.47702">
        <ele>412.4</ele>
        <time>2024-02-10T08:39:56Z</time>
      </trkpt>
      <trkpt lat="44.45254" lon="1.47708">
        <ele>412.2</ele>
        <time>2024-02-10T08:39:57Z</time>
      </trkpt>
      <trkpt lat="44.45254" lon="1.47726">
        <ele>411.4</ele>
        <time>2024-02-10T08:39:59Z</time>
      </trkpt>
      <trkpt lat="44.45256" lon="1.4774">
        <ele>411</ele>
        <time>2024-02-10T08:40:01Z</time>
      </trkpt>
      <trkpt lat="44.45257" lon="1.47747">
        <ele>410.8</ele>
        <time>2024-02-10T08:40:02Z</time>
      </trkpt>
      <trkpt lat="44.45257" lon="1.47753">
        <ele>410.6</ele>
        <time>2024-02-10T08:40:03Z</time>
      </trkpt>
      <trkpt lat="44.45257" lon="1.47763">
        <ele>409.2</ele>
        <time>2024-02-10T08:40:05Z</time>
      </trkpt>
      <trkpt lat="44.45259" lon="1.47774">
        <ele>407.8</ele>
        <time>2024-02-10T08:40:07Z</time>
      </trkpt>
      <trkpt lat="44.4526" lon="1.47785">
        <ele>407.2</ele>
        <time>2024-02-10T08:40:09Z</time>
      </trkpt>
      <trkpt lat="44.4526" lon="1.4779">
        <ele>406.6</ele>
        <time>2024-02-10T08:40:10Z</time>
      </trkpt>
      <trkpt lat="44.4526" lon="1.47796">
        <ele>406.4</ele>
        <time>2024-02-10T08:40:11Z</time>
      </trkpt>
      <trkpt lat="44.45256" lon="1.47809">
        <ele>406</ele>
        <time>2024-02-10T08:40:13Z</time>
      </trkpt>
      <trkpt lat="44.45253" lon="1.47815">
        <ele>405.6</ele>
        <time>2024-02-10T08:40:14Z</time>
      </trkpt>
      <trkpt lat="44.45251" lon="1.47822">
        <ele>405</ele>
        <time>2024-02-10T08:40:15Z</time>
      </trkpt>
      <trkpt lat="44.45247" lon="1.47828">
        <ele>404.4</ele>
        <time>2024-02-10T08:40:16Z</time>
      </trkpt>
      <trkpt lat="44.45244" lon="1.47835">
        <ele>403.6</ele>
        <time>2024-02-10T08:40:17Z</time>
      </trkpt>
      <trkpt lat="44.4524" lon="1.4784">
        <ele>403.2</ele>
        <time>2024-02-10T08:40:18Z</time>
      </trkpt>
      <trkpt lat="44.45237" lon="1.47844">
        <ele>402.4</ele>
        <time>2024-02-10T08:40:19Z</time>
      </trkpt>
      <trkpt lat="44.45236" lon="1.47848">
        <ele>401.6</ele>
        <time>2024-02-10T08:40:20Z</time>
      </trkpt>
      <trkpt lat="44.45235" lon="1.47854">
        <ele>401.2</ele>
        <time>2024-02-10T08:40:21Z</time>
      </trkpt>
      <trkpt lat="44.45233" lon="1.47859">
        <ele>400.6</ele>
        <time>2024-02-10T08:40:22Z</time>
      </trkpt>
      <trkpt lat="44.45229" lon="1.47864">
        <ele>400.2</ele>
        <time>2024-02-10T08:40:23Z</time>
      </trkpt>
      <trkpt lat="44.45223" lon="1.47876">
        <ele>399.4</ele>
        <time>2024-02-10T08:40:25Z</time>
      </trkpt>
      <trkpt lat="44.45221" lon="1.4788">
        <ele>399.2</ele>
        <time>2024-02-10T08:40:26Z</time>
      </trkpt>
      <trkpt lat="44.45219" lon="1.47884">
        <ele>399</ele>
        <time>2024-02-10T08:40:27Z</time>
      </trkpt>
      <trkpt lat="44.45218" lon="1.47887">
        <ele>398.6</ele>
        <time>2024-02-10T08:40:28Z</time>
      </trkpt>
      <trkpt lat="44.45216" lon="1.47891">
        <ele>397.8</ele>
        <time>2024-02-10T08:40:29Z</time>
      </trkpt>
      <trkpt lat="44.45216" lon="1.47896">
        <ele>397</ele>
        <time>2024-02-10T08:40:30Z</time>
      </trkpt>
      <trkpt lat="44.45217" lon="1.479">
        <ele>395.8</ele>
        <time>2024-02-10T08:40:31Z</time>
      </trkpt>
      <trkpt lat="44.45219" lon="1.47904">
        <ele>395.2</ele>
        <time>2024-02-10T08:40:32Z</time>
      </trkpt>
      <trkpt lat="44.4522" lon="1.47908">
        <ele>394.6</ele>
        <time>2024-02-10T08:40:33Z</time>
      </trkpt>
      <trkpt lat="44.45221" lon="1.47917">
        <ele>394.2</ele>
        <time>2024-02-10T08:40:35Z</time>
      </trkpt>
      <trkpt lat="44.45222" lon="1.47929">
        <ele>393.8</ele>
        <time>2024-02-10T08:40:37Z</time>
      </trkpt>
      <trkpt lat="44.45222" lon="1.47936">
        <ele>393.6</ele>
        <time>2024-02-10T08:40:38Z</time>
      </trkpt>
      <trkpt lat="44.45224" lon="1.47942">
        <ele>393.4</ele>
        <time>2024-02-10T08:40:39Z</time>
      </trkpt>
      <trkpt lat="44.45227" lon="1.47947">
        <ele>393.4</ele>
        <time>2024-02-10T08:40:40Z</time>
      </trkpt>
      <trkpt lat="44.4523" lon="1.47951">
        <ele>393.2</ele>
        <time>2024-02-10T08:40:41Z</time>
      </trkpt>
      <trkpt lat="44.45234" lon="1.4796">
        <ele>393.2</ele>
        <time>2024-02-10T08:40:43Z</time>
      </trkpt>
      <trkpt lat="44.45236" lon="1.47966">
        <ele>393.2</ele>
        <time>2024-02-10T08:40:44Z</time>
      </trkpt>
      <trkpt lat="44.45237" lon="1.47972">
        <ele>393.2</ele>
        <time>2024-02-10T08:40:45Z</time>
      </trkpt>
      <trkpt lat="44.45239" lon="1.47978">
        <ele>393</ele>
        <time>2024-02-10T08:40:46Z</time>
      </trkpt>
      <trkpt lat="44.45239" lon="1.47984">
        <ele>393</ele>
        <time>2024-02-10T08:40:47Z</time>
      </trkpt>
      <trkpt lat="44.45238" lon="1.47989">
        <ele>392.8</ele>
        <time>2024-02-10T08:40:48Z</time>
      </trkpt>
      <trkpt lat="44.45238" lon="1.47994">
        <ele>392.8</ele>
        <time>2024-02-10T08:40:49Z</time>
      </trkpt>
      <trkpt lat="44.45244" lon="1.48002">
        <ele>392.8</ele>
        <time>2024-02-10T08:40:51Z</time>
      </trkpt>
      <trkpt lat="44.45248" lon="1.48006">
        <ele>392.6</ele>
        <time>2024-02-10T08:40:52Z</time>
      </trkpt>
      <trkpt lat="44.45252" lon="1.48011">
        <ele>392.6</ele>
        <time>2024-02-10T08:40:53Z</time>
      </trkpt>
      <trkpt lat="44.45257" lon="1.48016">
        <ele>392.4</ele>
        <time>2024-02-10T08:40:54Z</time>
      </trkpt>
      <trkpt lat="44.45261" lon="1.48021">
        <ele>392.4</ele>
        <time>2024-02-10T08:40:55Z</time>
      </trkpt>
      <trkpt lat="44.45271" lon="1.48031">
        <ele>392.2</ele>
        <time>2024-02-10T08:40:57Z</time>
      </trkpt>
      <trkpt lat="44.45276" lon="1.48036">
        <ele>392</ele>
        <time>2024-02-10T08:40:58Z</time>
      </trkpt>
      <trkpt lat="44.45279" lon="1.48043">
        <ele>392</ele>
        <time>2024-02-10T08:40:59Z</time>
      </trkpt>
      <trkpt lat="44.45282" lon="1.4805">
        <ele>391.4</ele>
        <time>2024-02-10T08:41:00Z</time>
      </trkpt>
      <trkpt lat="44.45284" lon="1.48057">
        <ele>390.8</ele>
        <time>2024-02-10T08:41:01Z</time>
      </trkpt>
      <trkpt lat="44.45288" lon="1.48062">
        <ele>389.8</ele>
        <time>2024-02-10T08:41:02Z</time>
      </trkpt>
      <trkpt lat="44.45293" lon="1.48067">
        <ele>389.4</ele>
        <time>2024-02-10T08:41:03Z</time>
      </trkpt>
      <trkpt lat="44.45298" lon="1.48071">
        <ele>389</ele>
        <time>2024-02-10T08:41:04Z</time>
      </trkpt>
      <trkpt lat="44.45302" lon="1.48074">
        <ele>388.4</ele>
        <time>2024-02-10T08:41:05Z</time>
      </trkpt>
      <trkpt lat="44.45306" lon="1.48079">
        <ele>387.8</ele>
        <time>2024-02-10T08:41:06Z</time>
      </trkpt>
      <trkpt lat="44.4531" lon="1.48083">
        <ele>387.4</ele>
        <time>2024-02-10T08:41:07Z</time>
      </trkpt>
      <trkpt lat="44.45314" lon="1.48086">
        <ele>387</ele>
        <time>2024-02-10T08:41:08Z</time>
      </trkpt>
      <trkpt lat="44.45318" lon="1.48087">
        <ele>386.6</ele>
        <time>2024-02-10T08:41:09Z</time>
      </trkpt>
      <trkpt lat="44.45322" lon="1.48086">
        <ele>385.8</ele>
        <time>2024-02-10T08:41:10Z</time>
      </trkpt>
      <trkpt lat="44.45327" lon="1.48084">
        <ele>385</ele>
        <time>2024-02-10T08:41:11Z</time>
      </trkpt>
      <trkpt lat="44.45331" lon="1.48084">
        <ele>384.6</ele>
        <time>2024-02-10T08:41:12Z</time>
      </trkpt>
      <trkpt lat="44.45334" lon="1.48086">
        <ele>384.2</ele>
        <time>2024-02-10T08:41:13Z</time>
      </trkpt>
      <trkpt lat="44.45336" lon="1.48097">
        <ele>384</ele>
        <time>2024-02-10T08:41:15Z</time>
      </trkpt>
      <trkpt lat="44.45337" lon="1.4811">
        <ele>383.6</ele>
        <time>2024-02-10T08:41:17Z</time>
      </trkpt>
      <trkpt lat="44.45338" lon="1.48117">
        <ele>383.4</ele>
        <time>2024-02-10T08:41:18Z</time>
      </trkpt>
      <trkpt lat="44.45338" lon="1.48124">
        <ele>382.6</ele>
        <time>2024-02-10T08:41:19Z</time>
      </trkpt>
      <trkpt lat="44.45337" lon="1.48131">
        <ele>381.4</ele>
        <time>2024-02-10T08:41:20Z</time>
      </trkpt>
      <trkpt lat="44.45336" lon="1.48138">
        <ele>380.4</ele>
        <time>2024-02-10T08:41:21Z</time>
      </trkpt>
      <trkpt lat="44.45335" lon="1.48144">
        <ele>379.6</ele>
        <time>2024-02-10T08:41:22Z</time>
      </trkpt>
      <trkpt lat="44.45334" lon="1.4815">
        <ele>379.2</ele>
        <time>2024-02-10T08:41:23Z</time>
      </trkpt>
      <trkpt lat="44.45333" lon="1.48159">
        <ele>378.2</ele>
        <time>2024-02-10T08:41:25Z</time>
      </trkpt>
      <trkpt lat="44.45333" lon="1.48163">
        <ele>377.6</ele>
        <time>2024-02-10T08:41:26Z</time>
      </trkpt>
      <trkpt lat="44.45334" lon="1.48166">
        <ele>376.8</ele>
        <time>2024-02-10T08:41:27Z</time>
      </trkpt>
      <trkpt lat="44.45334" lon="1.48169">
        <ele>376.4</ele>
        <time>2024-02-10T08:41:28Z</time>
      </trkpt>
      <trkpt lat="44.45335" lon="1.48171">
        <ele>376.2</ele>
        <time>2024-02-10T08:41:29Z</time>
      </trkpt>
      <trkpt lat="44.45336" lon="1.48173">
        <ele>376.2</ele>
        <time>2024-02-10T08:41:30Z</time>
      </trkpt>
      <trkpt lat="44.45336" lon="1.48174">
        <ele>376</ele>
        <time>2024-02-10T08:41:31Z</time>
      </trkpt>
      <trkpt lat="44.45337" lon="1.48176">
        <ele>376</ele>
        <time>2024-02-10T08:41:33Z</time>
      </trkpt>
      <trkpt lat="44.45338" lon="1.48177">
        <ele>376</ele>
        <time>2024-02-10T08:41:35Z</time>
      </trkpt>
      <trkpt lat="44.45338" lon="1.48176">
        <ele>376.4</ele>
        <time>2024-02-10T08:41:36Z</time>
      </trkpt>
      <trkpt lat="44.45338" lon="1.48176">
        <ele>377</ele>
        <time>2024-02-10T08:41:37Z</time>
      </trkpt>
      <trkpt lat="44.45338" lon="1.48176">
        <ele>377.6</ele>
        <time>2024-02-10T08:41:38Z</time>
      </trkpt>
      <trkpt lat="44.45338" lon="1.48176">
        <ele>377.8</ele>
        <time>2024-02-10T08:41:39Z</time>
      </trkpt>
      <trkpt lat="44.45338" lon="1.48176">
        <ele>378</ele>
        <time>2024-02-10T08:41:41Z</time>
      </trkpt>
      <trkpt lat="44.45338" lon="1.48176">
        <ele>377.8</ele>
        <time>2024-02-10T08:41:43Z</time>
      </trkpt>
      <trkpt lat="44.45338" lon="1.48176">
        <ele>377.8</ele>
        <time>2024-02-10T08:41:45Z</time>
      </trkpt>
      <trkpt lat="44.45338" lon="1.48176">
        <ele>377.8</ele>
        <time>2024-02-10T08:41:47Z</time>
      </trkpt>
      <trkpt lat="44.45338" lon="1.48176">
        <ele>377.8</ele>
        <time>2024-02-10T08:41:49Z</time>
      </trkpt>
      <trkpt lat="44.45338" lon="1.48176">
        <ele>377.8</ele>
        <time>2024-02-10T08:41:51Z</time>
      </trkpt>
      <trkpt lat="44.45338" lon="1.48176">
        <ele>377.8</ele>
        <time>2024-02-10T08:41:52Z</time>
      </trkpt>
      <trkpt lat="44.45338" lon="1.48176">
        <ele>377.6</ele>
        <time>2024-02-10T08:41:53Z</time>
      </trkpt>
      <trkpt lat="44.45338" lon="1.48176">
        <ele>377.4</ele>
        <time>2024-02-10T08:41:55Z</time>
      </trkpt>
      <trkpt lat="44.45338" lon="1.48175">
        <ele>377.2</ele>
        <time>2024-02-10T08:41:57Z</time>
      </trkpt>
      <trkpt lat="44.45338" lon="1.48175">
        <ele>377.2</ele>
        <time>2024-02-10T08:41:59Z</time>
      </trkpt>
      <trkpt lat="44.45338" lon="1.48175">
        <ele>377</ele>
        <time>2024-02-10T08:42:01Z</time>
      </trkpt>
      <trkpt lat="44.45338" lon="1.48175">
        <ele>377</ele>
        <time>2024-02-10T08:42:03Z</time>
      </trkpt>
      <trkpt lat="44.45338" lon="1.48175">
        <ele>376.8</ele>
        <time>2024-02-10T08:42:05Z</time>
      </trkpt>
      <trkpt lat="44.45338" lon="1.48175">
        <ele>376.8</ele>
        <time>2024-02-10T08:42:07Z</time>
      </trkpt>
      <trkpt lat="44.45338" lon="1.48175">
        <ele>376.8</ele>
        <time>2024-02-10T08:42:09Z</time>
      </trkpt>
      <trkpt lat="44.45338" lon="1.48175">
        <ele>376.8</ele>
        <time>2024-02-10T08:42:11Z</time>
      </trkpt>
      <trkpt lat="44.45338" lon="1.48174">
        <ele>376.8</ele>
        <time>2024-02-10T08:42:13Z</time>
      </trkpt>
      <trkpt lat="44.45339" lon="1.48174">
        <ele>376.8</ele>
        <time>2024-02-10T08:42:15Z</time>
      </trkpt>
      <trkpt lat="44.45339" lon="1.48174">
        <ele>376.8</ele>
        <time>2024-02-10T08:42:17Z</time>
      </trkpt>
      <trkpt lat="44.45339" lon="1.48174">
        <ele>376.8</ele>
        <time>2024-02-10T08:42:19Z</time>
      </trkpt>
      <trkpt lat="44.45339" lon="1.48174">
        <ele>376.6</ele>
        <time>2024-02-10T08:42:21Z</time>
      </trkpt>
      <trkpt lat="44.45339" lon="1.48174">
        <ele>376.6</ele>
        <time>2024-02-10T08:42:23Z</time>
      </trkpt>
      <trkpt lat="44.45339" lon="1.48173">
        <ele>376.6</ele>
        <time>2024-02-10T08:42:25Z</time>
      </trkpt>
      <trkpt lat="44.45339" lon="1.48173">
        <ele>376.6</ele>
        <time>2024-02-10T08:42:27Z</time>
      </trkpt>
      <trkpt lat="44.45339" lon="1.48173">
        <ele>376.6</ele>
        <time>2024-02-10T08:42:29Z</time>
      </trkpt>
      <trkpt lat="44.45339" lon="1.48173">
        <ele>376.6</ele>
        <time>2024-02-10T08:42:31Z</time>
      </trkpt>
      <trkpt lat="44.45339" lon="1.48173">
        <ele>376.6</ele>
        <time>2024-02-10T08:42:33Z</time>
      </trkpt>
      <trkpt lat="44.45339" lon="1.48173">
        <ele>376.6</ele>
        <time>2024-02-10T08:42:35Z</time>
      </trkpt>
      <trkpt lat="44.45339" lon="1.48173">
        <ele>376.6</ele>
        <time>2024-02-10T08:42:37Z</time>
      </trkpt>
      <trkpt lat="44.45339" lon="1.48173">
        <ele>376.8</ele>
        <time>2024-02-10T08:42:39Z</time>
      </trkpt>
      <trkpt lat="44.45339" lon="1.48173">
        <ele>376.8</ele>
        <time>2024-02-10T08:42:40Z</time>
      </trkpt>
      <trkpt lat="44.45339" lon="1.48173">
        <ele>377</ele>
        <time>2024-02-10T08:42:41Z</time>
      </trkpt>
      <trkpt lat="44.45339" lon="1.48173">
        <ele>377.2</ele>
        <time>2024-02-10T08:42:43Z</time>
      </trkpt>
      <trkpt lat="44.45339" lon="1.48173">
        <ele>377.2</ele>
        <time>2024-02-10T08:42:45Z</time>
      </trkpt>
      <trkpt lat="44.4534" lon="1.48173">
        <ele>377.2</ele>
        <time>2024-02-10T08:42:47Z</time>
      </trkpt>
      <trkpt lat="44.4534" lon="1.48173">
        <ele>377.2</ele>
        <time>2024-02-10T08:42:49Z</time>
      </trkpt>
      <trkpt lat="44.4534" lon="1.48173">
        <ele>377.2</ele>
        <time>2024-02-10T08:42:51Z</time>
      </trkpt>
      <trkpt lat="44.4534" lon="1.48173">
        <ele>377.2</ele>
        <time>2024-02-10T08:42:53Z</time>
      </trkpt>
      <trkpt lat="44.4534" lon="1.48173">
        <ele>377.2</ele>
        <time>2024-02-10T08:42:55Z</time>
      </trkpt>
      <trkpt lat="44.4534" lon="1.48173">
        <ele>377.2</ele>
        <time>2024-02-10T08:42:57Z</time>
      </trkpt>
      <trkpt lat="44.4534" lon="1.48173">
        <ele>377</ele>
        <time>2024-02-10T08:42:59Z</time>
      </trkpt>
      <trkpt lat="44.4534" lon="1.48173">
        <ele>376.8</ele>
        <time>2024-02-10T08:43:01Z</time>
      </trkpt>
      <trkpt lat="44.4534" lon="1.48172">
        <ele>376.6</ele>
        <time>2024-02-10T08:43:03Z</time>
      </trkpt>
      <trkpt lat="44.4534" lon="1.48172">
        <ele>376.6</ele>
        <time>2024-02-10T08:43:05Z</time>
      </trkpt>
      <trkpt lat="44.4534" lon="1.48172">
        <ele>376.6</ele>
        <time>2024-02-10T08:43:07Z</time>
      </trkpt>
      <trkpt lat="44.45343" lon="1.48175">
        <ele>376.6</ele>
        <time>2024-02-10T08:43:09Z</time>
      </trkpt>
      <trkpt lat="44.45344" lon="1.48176">
        <ele>376.6</ele>
        <time>2024-02-10T08:43:10Z</time>
      </trkpt>
      <trkpt lat="44.45346" lon="1.48177">
        <ele>376.6</ele>
        <time>2024-02-10T08:43:11Z</time>
      </trkpt>
      <trkpt lat="44.45354" lon="1.4818">
        <ele>376.4</ele>
        <time>2024-02-10T08:43:13Z</time>
      </trkpt>
      <trkpt lat="44.45359" lon="1.48181">
        <ele>376.4</ele>
        <time>2024-02-10T08:43:14Z</time>
      </trkpt>
      <trkpt lat="44.45363" lon="1.48182">
        <ele>376.4</ele>
        <time>2024-02-10T08:43:15Z</time>
      </trkpt>
      <trkpt lat="44.45373" lon="1.48183">
        <ele>376.2</ele>
        <time>2024-02-10T08:43:17Z</time>
      </trkpt>
      <trkpt lat="44.45377" lon="1.48183">
        <ele>376</ele>
        <time>2024-02-10T08:43:18Z</time>
      </trkpt>
      <trkpt lat="44.45382" lon="1.48182">
        <ele>375.6</ele>
        <time>2024-02-10T08:43:19Z</time>
      </trkpt>
      <trkpt lat="44.45392" lon="1.4818">
        <ele>374.8</ele>
        <time>2024-02-10T08:43:21Z</time>
      </trkpt>
      <trkpt lat="44.45403" lon="1.48179">
        <ele>374.4</ele>
        <time>2024-02-10T08:43:23Z</time>
      </trkpt>
      <trkpt lat="44.45413" lon="1.48181">
        <ele>374.2</ele>
        <time>2024-02-10T08:43:25Z</time>
      </trkpt>
      <trkpt lat="44.45423" lon="1.48186">
        <ele>374</ele>
        <time>2024-02-10T08:43:27Z</time>
      </trkpt>
      <trkpt lat="44.45428" lon="1.4819">
        <ele>374</ele>
        <time>2024-02-10T08:43:28Z</time>
      </trkpt>
      <trkpt lat="44.45432" lon="1.48194">
        <ele>373.8</ele>
        <time>2024-02-10T08:43:29Z</time>
      </trkpt>
      <trkpt lat="44.4544" lon="1.48204">
        <ele>373.6</ele>
        <time>2024-02-10T08:43:31Z</time>
      </trkpt>
      <trkpt lat="44.45444" lon="1.48209">
        <ele>373.6</ele>
        <time>2024-02-10T08:43:32Z</time>
      </trkpt>
      <trkpt lat="44.45448" lon="1.48213">
        <ele>373.4</ele>
        <time>2024-02-10T08:43:33Z</time>
      </trkpt>
      <trkpt lat="44.45452" lon="1.48218">
        <ele>373.2</ele>
        <time>2024-02-10T08:43:34Z</time>
      </trkpt>
      <trkpt lat="44.45456" lon="1.48223">
        <ele>373.2</ele>
        <time>2024-02-10T08:43:35Z</time>
      </trkpt>
      <trkpt lat="44.45465" lon="1.48232">
        <ele>373</ele>
        <time>2024-02-10T08:43:37Z</time>
      </trkpt>
      <trkpt lat="44.45477" lon="1.48239">
        <ele>372.6</ele>
        <time>2024-02-10T08:43:39Z</time>
      </trkpt>
      <trkpt lat="44.45482" lon="1.48242">
        <ele>372.4</ele>
        <time>2024-02-10T08:43:40Z</time>
      </trkpt>
      <trkpt lat="44.45488" lon="1.48244">
        <ele>372</ele>
        <time>2024-02-10T08:43:41Z</time>
      </trkpt>
      <trkpt lat="44.45493" lon="1.48245">
        <ele>371.6</ele>
        <time>2024-02-10T08:43:42Z</time>
      </trkpt>
      <trkpt lat="44.45498" lon="1.48247">
        <ele>371.2</ele>
        <time>2024-02-10T08:43:43Z</time>
      </trkpt>
      <trkpt lat="44.45503" lon="1.48248">
        <ele>370.8</ele>
        <time>2024-02-10T08:43:44Z</time>
      </trkpt>
      <trkpt lat="44.45509" lon="1.48249">
        <ele>370.6</ele>
        <time>2024-02-10T08:43:45Z</time>
      </trkpt>
      <trkpt lat="44.45515" lon="1.48249">
        <ele>370.6</ele>
        <time>2024-02-10T08:43:46Z</time>
      </trkpt>
      <trkpt lat="44.4552" lon="1.48248">
        <ele>370.4</ele>
        <time>2024-02-10T08:43:47Z</time>
      </trkpt>
      <trkpt lat="44.45532" lon="1.48242">
        <ele>370.4</ele>
        <time>2024-02-10T08:43:49Z</time>
      </trkpt>
      <trkpt lat="44.45538" lon="1.48238">
        <ele>370.4</ele>
        <time>2024-02-10T08:43:50Z</time>
      </trkpt>
      <trkpt lat="44.45544" lon="1.48235">
        <ele>370.2</ele>
        <time>2024-02-10T08:43:51Z</time>
      </trkpt>
      <trkpt lat="44.45556" lon="1.48227">
        <ele>369.8</ele>
        <time>2024-02-10T08:43:53Z</time>
      </trkpt>
      <trkpt lat="44.45569" lon="1.48219">
        <ele>369.6</ele>
        <time>2024-02-10T08:43:55Z</time>
      </trkpt>
      <trkpt lat="44.45575" lon="1.48215">
        <ele>369.6</ele>
        <time>2024-02-10T08:43:56Z</time>
      </trkpt>
      <trkpt lat="44.45582" lon="1.48213">
        <ele>369.4</ele>
        <time>2024-02-10T08:43:57Z</time>
      </trkpt>
      <trkpt lat="44.45595" lon="1.48211">
        <ele>369.2</ele>
        <time>2024-02-10T08:43:59Z</time>
      </trkpt>
      <trkpt lat="44.45602" lon="1.48211">
        <ele>369</ele>
        <time>2024-02-10T08:44:00Z</time>
      </trkpt>
      <trkpt lat="44.45608" lon="1.48212">
        <ele>368.8</ele>
        <time>2024-02-10T08:44:01Z</time>
      </trkpt>
      <trkpt lat="44.45615" lon="1.48212">
        <ele>368.6</ele>
        <time>2024-02-10T08:44:02Z</time>
      </trkpt>
      <trkpt lat="44.45621" lon="1.48213">
        <ele>368.4</ele>
        <time>2024-02-10T08:44:03Z</time>
      </trkpt>
      <trkpt lat="44.45635" lon="1.48216">
        <ele>368</ele>
        <time>2024-02-10T08:44:05Z</time>
      </trkpt>
      <trkpt lat="44.45642" lon="1.48217">
        <ele>368</ele>
        <time>2024-02-10T08:44:06Z</time>
      </trkpt>
      <trkpt lat="44.45649" lon="1.48219">
        <ele>368</ele>
        <time>2024-02-10T08:44:07Z</time>
      </trkpt>
      <trkpt lat="44.45661" lon="1.48223">
        <ele>367.8</ele>
        <time>2024-02-10T08:44:09Z</time>
      </trkpt>
      <trkpt lat="44.45666" lon="1.48227">
        <ele>367.8</ele>
        <time>2024-02-10T08:44:10Z</time>
      </trkpt>
      <trkpt lat="44.4567" lon="1.48232">
        <ele>367.8</ele>
        <time>2024-02-10T08:44:11Z</time>
      </trkpt>
      <trkpt lat="44.45672" lon="1.48246">
        <ele>367.8</ele>
        <time>2024-02-10T08:44:13Z</time>
      </trkpt>
      <trkpt lat="44.45671" lon="1.48252">
        <ele>367.8</ele>
        <time>2024-02-10T08:44:14Z</time>
      </trkpt>
      <trkpt lat="44.45671" lon="1.48258">
        <ele>367.8</ele>
        <time>2024-02-10T08:44:15Z</time>
      </trkpt>
      <trkpt lat="44.45671" lon="1.48269">
        <ele>367.8</ele>
        <time>2024-02-10T08:44:17Z</time>
      </trkpt>
      <trkpt lat="44.4567" lon="1.4828">
        <ele>368.4</ele>
        <time>2024-02-10T08:44:19Z</time>
      </trkpt>
      <trkpt lat="44.45669" lon="1.48289">
        <ele>368.6</ele>
        <time>2024-02-10T08:44:21Z</time>
      </trkpt>
      <trkpt lat="44.45669" lon="1.48293">
        <ele>369</ele>
        <time>2024-02-10T08:44:22Z</time>
      </trkpt>
      <trkpt lat="44.45669" lon="1.48298">
        <ele>369.2</ele>
        <time>2024-02-10T08:44:23Z</time>
      </trkpt>
      <trkpt lat="44.45669" lon="1.48302">
        <ele>369.6</ele>
        <time>2024-02-10T08:44:24Z</time>
      </trkpt>
      <trkpt lat="44.4567" lon="1.48307">
        <ele>370</ele>
        <time>2024-02-10T08:44:25Z</time>
      </trkpt>
      <trkpt lat="44.4567" lon="1.48311">
        <ele>370.6</ele>
        <time>2024-02-10T08:44:26Z</time>
      </trkpt>
      <trkpt lat="44.45671" lon="1.48316">
        <ele>371.4</ele>
        <time>2024-02-10T08:44:27Z</time>
      </trkpt>
      <trkpt lat="44.45672" lon="1.4832">
        <ele>371.8</ele>
        <time>2024-02-10T08:44:28Z</time>
      </trkpt>
      <trkpt lat="44.45673" lon="1.48325">
        <ele>372</ele>
        <time>2024-02-10T08:44:29Z</time>
      </trkpt>
      <trkpt lat="44.45675" lon="1.48334">
        <ele>372.2</ele>
        <time>2024-02-10T08:44:31Z</time>
      </trkpt>
      <trkpt lat="44.45677" lon="1.48339">
        <ele>372.6</ele>
        <time>2024-02-10T08:44:32Z</time>
      </trkpt>
      <trkpt lat="44.45678" lon="1.48343">
        <ele>373</ele>
        <time>2024-02-10T08:44:33Z</time>
      </trkpt>
      <trkpt lat="44.4568" lon="1.48351">
        <ele>373.6</ele>
        <time>2024-02-10T08:44:35Z</time>
      </trkpt>
      <trkpt lat="44.45682" lon="1.48359">
        <ele>374</ele>
        <time>2024-02-10T08:44:37Z</time>
      </trkpt>
      <trkpt lat="44.45684" lon="1.48367">
        <ele>374.8</ele>
        <time>2024-02-10T08:44:39Z</time>
      </trkpt>
      <trkpt lat="44.45685" lon="1.48375">
        <ele>375.4</ele>
        <time>2024-02-10T08:44:41Z</time>
      </trkpt>
      <trkpt lat="44.45686" lon="1.48385">
        <ele>376</ele>
        <time>2024-02-10T08:44:43Z</time>
      </trkpt>
      <trkpt lat="44.45685" lon="1.48389">
        <ele>376.2</ele>
        <time>2024-02-10T08:44:44Z</time>
      </trkpt>
      <trkpt lat="44.45685" lon="1.48393">
        <ele>376.6</ele>
        <time>2024-02-10T08:44:45Z</time>
      </trkpt>
      <trkpt lat="44.45684" lon="1.48397">
        <ele>377</ele>
        <time>2024-02-10T08:44:46Z</time>
      </trkpt>
      <trkpt lat="44.45684" lon="1.48402">
        <ele>377.4</ele>
        <time>2024-02-10T08:44:47Z</time>
      </trkpt>
      <trkpt lat="44.45683" lon="1.4841">
        <ele>378</ele>
        <time>2024-02-10T08:44:49Z</time>
      </trkpt>
      <trkpt lat="44.45681" lon="1.48418">
        <ele>378.8</ele>
        <time>2024-02-10T08:44:51Z</time>
      </trkpt>
      <trkpt lat="44.4568" lon="1.48422">
        <ele>379</ele>
        <time>2024-02-10T08:44:52Z</time>
      </trkpt>
      <trkpt lat="44.4568" lon="1.48426">
        <ele>379.4</ele>
        <time>2024-02-10T08:44:53Z</time>
      </trkpt>
      <trkpt lat="44.45678" lon="1.48433">
        <ele>380.2</ele>
        <time>2024-02-10T08:44:55Z</time>
      </trkpt>
      <trkpt lat="44.45677" lon="1.48436">
        <ele>380.4</ele>
        <time>2024-02-10T08:44:56Z</time>
      </trkpt>
      <trkpt lat="44.45675" lon="1.48439">
        <ele>380.6</ele>
        <time>2024-02-10T08:44:57Z</time>
      </trkpt>
      <trkpt lat="44.45674" lon="1.48442">
        <ele>381</ele>
        <time>2024-02-10T08:44:58Z</time>
      </trkpt>
      <trkpt lat="44.45672" lon="1.48444">
        <ele>381.2</ele>
        <time>2024-02-10T08:44:59Z</time>
      </trkpt>
      <trkpt lat="44.4567" lon="1.48446">
        <ele>381.4</ele>
        <time>2024-02-10T08:45:00Z</time>
      </trkpt>
      <trkpt lat="44.45668" lon="1.48447">
        <ele>381.6</ele>
        <time>2024-02-10T08:45:01Z</time>
      </trkpt>
      <trkpt lat="44.45663" lon="1.48449">
        <ele>382</ele>
        <time>2024-02-10T08:45:03Z</time>
      </trkpt>
      <trkpt lat="44.45659" lon="1.4845">
        <ele>382.4</ele>
        <time>2024-02-10T08:45:05Z</time>
      </trkpt>
      <trkpt lat="44.45654" lon="1.48451">
        <ele>382.8</ele>
        <time>2024-02-10T08:45:07Z</time>
      </trkpt>
      <trkpt lat="44.45649" lon="1.48452">
        <ele>383</ele>
        <time>2024-02-10T08:45:09Z</time>
      </trkpt>
      <trkpt lat="44.45647" lon="1.48453">
        <ele>383.2</ele>
        <time>2024-02-10T08:45:10Z</time>
      </trkpt>
      <trkpt lat="44.45645" lon="1.48454">
        <ele>383.6</ele>
        <time>2024-02-10T08:45:11Z</time>
      </trkpt>
      <trkpt lat="44.4564" lon="1.48455">
        <ele>383.8</ele>
        <time>2024-02-10T08:45:13Z</time>
      </trkpt>
      <trkpt lat="44.45636" lon="1.48457">
        <ele>384</ele>
        <time>2024-02-10T08:45:15Z</time>
      </trkpt>
      <trkpt lat="44.45631" lon="1.4846">
        <ele>384.2</ele>
        <time>2024-02-10T08:45:17Z</time>
      </trkpt>
      <trkpt lat="44.45629" lon="1.48461">
        <ele>384.6</ele>
        <time>2024-02-10T08:45:18Z</time>
      </trkpt>
      <trkpt lat="44.45627" lon="1.48462">
        <ele>384.8</ele>
        <time>2024-02-10T08:45:19Z</time>
      </trkpt>
      <trkpt lat="44.45623" lon="1.48464">
        <ele>385</ele>
        <time>2024-02-10T08:45:21Z</time>
      </trkpt>
      <trkpt lat="44.45618" lon="1.48467">
        <ele>386</ele>
        <time>2024-02-10T08:45:23Z</time>
      </trkpt>
      <trkpt lat="44.45614" lon="1.4847">
        <ele>386.4</ele>
        <time>2024-02-10T08:45:25Z</time>
      </trkpt>
      <trkpt lat="44.4561" lon="1.48473">
        <ele>386.6</ele>
        <time>2024-02-10T08:45:27Z</time>
      </trkpt>
      <trkpt lat="44.45606" lon="1.48475">
        <ele>386.8</ele>
        <time>2024-02-10T08:45:29Z</time>
      </trkpt>
      <trkpt lat="44.45603" lon="1.4848">
        <ele>387</ele>
        <time>2024-02-10T08:45:31Z</time>
      </trkpt>
      <trkpt lat="44.45601" lon="1.48482">
        <ele>387.2</ele>
        <time>2024-02-10T08:45:32Z</time>
      </trkpt>
      <trkpt lat="44.45599" lon="1.48484">
        <ele>387.4</ele>
        <time>2024-02-10T08:45:33Z</time>
      </trkpt>
      <trkpt lat="44.45595" lon="1.48489">
        <ele>387.8</ele>
        <time>2024-02-10T08:45:35Z</time>
      </trkpt>
      <trkpt lat="44.45593" lon="1.48492">
        <ele>388.2</ele>
        <time>2024-02-10T08:45:36Z</time>
      </trkpt>
      <trkpt lat="44.45592" lon="1.48494">
        <ele>388.6</ele>
        <time>2024-02-10T08:45:37Z</time>
      </trkpt>
      <trkpt lat="44.45588" lon="1.48497">
        <ele>389</ele>
        <time>2024-02-10T08:45:39Z</time>
      </trkpt>
      <trkpt lat="44.45584" lon="1.48498">
        <ele>389.4</ele>
        <time>2024-02-10T08:45:41Z</time>
      </trkpt>
      <trkpt lat="44.45581" lon="1.48498">
        <ele>389.6</ele>
        <time>2024-02-10T08:45:43Z</time>
      </trkpt>
      <trkpt lat="44.45579" lon="1.48498">
        <ele>389.8</ele>
        <time>2024-02-10T08:45:44Z</time>
      </trkpt>
      <trkpt lat="44.45577" lon="1.48499">
        <ele>390</ele>
        <time>2024-02-10T08:45:45Z</time>
      </trkpt>
      <trkpt lat="44.45573" lon="1.485">
        <ele>390.4</ele>
        <time>2024-02-10T08:45:47Z</time>
      </trkpt>
      <trkpt lat="44.45569" lon="1.48505">
        <ele>390.8</ele>
        <time>2024-02-10T08:45:49Z</time>
      </trkpt>
      <trkpt lat="44.45566" lon="1.48509">
        <ele>391.2</ele>
        <time>2024-02-10T08:45:51Z</time>
      </trkpt>
      <trkpt lat="44.45562" lon="1.48513">
        <ele>391.4</ele>
        <time>2024-02-10T08:45:53Z</time>
      </trkpt>
      <trkpt lat="44.4556" lon="1.48515">
        <ele>391.4</ele>
        <time>2024-02-10T08:45:54Z</time>
      </trkpt>
      <trkpt lat="44.45558" lon="1.48517">
        <ele>391.4</ele>
        <time>2024-02-10T08:45:55Z</time>
      </trkpt>
      <trkpt lat="44.45553" lon="1.48522">
        <ele>391.6</ele>
        <time>2024-02-10T08:45:57Z</time>
      </trkpt>
      <trkpt lat="44.45549" lon="1.48526">
        <ele>391.6</ele>
        <time>2024-02-10T08:45:59Z</time>
      </trkpt>
      <trkpt lat="44.45545" lon="1.4853">
        <ele>391.6</ele>
        <time>2024-02-10T08:46:01Z</time>
      </trkpt>
      <trkpt lat="44.45542" lon="1.48534">
        <ele>391.8</ele>
        <time>2024-02-10T08:46:03Z</time>
      </trkpt>
      <trkpt lat="44.45538" lon="1.48537">
        <ele>391.8</ele>
        <time>2024-02-10T08:46:05Z</time>
      </trkpt>
      <trkpt lat="44.45537" lon="1.48539">
        <ele>392</ele>
        <time>2024-02-10T08:46:06Z</time>
      </trkpt>
      <trkpt lat="44.45535" lon="1.48541">
        <ele>392.2</ele>
        <time>2024-02-10T08:46:07Z</time>
      </trkpt>
      <trkpt lat="44.45531" lon="1.48544">
        <ele>392.6</ele>
        <time>2024-02-10T08:46:09Z</time>
      </trkpt>
      <trkpt lat="44.45527" lon="1.48546">
        <ele>393</ele>
        <time>2024-02-10T08:46:11Z</time>
      </trkpt>
      <trkpt lat="44.45522" lon="1.4855">
        <ele>393.4</ele>
        <time>2024-02-10T08:46:13Z</time>
      </trkpt>
      <trkpt lat="44.45519" lon="1.48553">
        <ele>393.6</ele>
        <time>2024-02-10T08:46:15Z</time>
      </trkpt>
      <trkpt lat="44.45515" lon="1.48556">
        <ele>393.8</ele>
        <time>2024-02-10T08:46:17Z</time>
      </trkpt>
      <trkpt lat="44.45511" lon="1.48559">
        <ele>394.2</ele>
        <time>2024-02-10T08:46:19Z</time>
      </trkpt>
      <trkpt lat="44.45509" lon="1.4856">
        <ele>394.4</ele>
        <time>2024-02-10T08:46:20Z</time>
      </trkpt>
      <trkpt lat="44.45507" lon="1.48561">
        <ele>394.6</ele>
        <time>2024-02-10T08:46:21Z</time>
      </trkpt>
      <trkpt lat="44.45502" lon="1.48563">
        <ele>394.8</ele>
        <time>2024-02-10T08:46:23Z</time>
      </trkpt>
      <trkpt lat="44.45498" lon="1.48566">
        <ele>395</ele>
        <time>2024-02-10T08:46:25Z</time>
      </trkpt>
      <trkpt lat="44.45494" lon="1.48568">
        <ele>395.2</ele>
        <time>2024-02-10T08:46:27Z</time>
      </trkpt>
      <trkpt lat="44.45492" lon="1.48568">
        <ele>395.4</ele>
        <time>2024-02-10T08:46:28Z</time>
      </trkpt>
      <trkpt lat="44.4549" lon="1.48569">
        <ele>395.8</ele>
        <time>2024-02-10T08:46:29Z</time>
      </trkpt>
      <trkpt lat="44.45487" lon="1.4857">
        <ele>396</ele>
        <time>2024-02-10T08:46:31Z</time>
      </trkpt>
      <trkpt lat="44.45486" lon="1.4857">
        <ele>396.2</ele>
        <time>2024-02-10T08:46:32Z</time>
      </trkpt>
      <trkpt lat="44.45484" lon="1.4857">
        <ele>396.4</ele>
        <time>2024-02-10T08:46:33Z</time>
      </trkpt>
      <trkpt lat="44.45481" lon="1.48571">
        <ele>396.6</ele>
        <time>2024-02-10T08:46:35Z</time>
      </trkpt>
      <trkpt lat="44.45479" lon="1.48572">
        <ele>397</ele>
        <time>2024-02-10T08:46:37Z</time>
      </trkpt>
      <trkpt lat="44.45476" lon="1.48573">
        <ele>397.4</ele>
        <time>2024-02-10T08:46:39Z</time>
      </trkpt>
      <trkpt lat="44.45474" lon="1.48574">
        <ele>397.8</ele>
        <time>2024-02-10T08:46:40Z</time>
      </trkpt>
      <trkpt lat="44.45473" lon="1.48574">
        <ele>398</ele>
        <time>2024-02-10T08:46:41Z</time>
      </trkpt>
      <trkpt lat="44.45472" lon="1.48575">
        <ele>398</ele>
        <time>2024-02-10T08:46:42Z</time>
      </trkpt>
      <trkpt lat="44.4547" lon="1.48575">
        <ele>398.2</ele>
        <time>2024-02-10T08:46:43Z</time>
      </trkpt>
      <trkpt lat="44.45467" lon="1.48577">
        <ele>398.8</ele>
        <time>2024-02-10T08:46:45Z</time>
      </trkpt>
      <trkpt lat="44.45466" lon="1.48578">
        <ele>399</ele>
        <time>2024-02-10T08:46:46Z</time>
      </trkpt>
      <trkpt lat="44.45464" lon="1.48579">
        <ele>399.2</ele>
        <time>2024-02-10T08:46:47Z</time>
      </trkpt>
      <trkpt lat="44.45461" lon="1.4858">
        <ele>399.6</ele>
        <time>2024-02-10T08:46:49Z</time>
      </trkpt>
      <trkpt lat="44.45458" lon="1.48582">
        <ele>399.8</ele>
        <time>2024-02-10T08:46:51Z</time>
      </trkpt>
      <trkpt lat="44.45457" lon="1.48582">
        <ele>400</ele>
        <time>2024-02-10T08:46:52Z</time>
      </trkpt>
      <trkpt lat="44.45456" lon="1.48583">
        <ele>400</ele>
        <time>2024-02-10T08:46:53Z</time>
      </trkpt>
      <trkpt lat="44.45456" lon="1.48583">
        <ele>400.2</ele>
        <time>2024-02-10T08:46:54Z</time>
      </trkpt>
      <trkpt lat="44.45455" lon="1.48583">
        <ele>400.2</ele>
        <time>2024-02-10T08:46:55Z</time>
      </trkpt>
      <trkpt lat="44.45455" lon="1.48584">
        <ele>400.2</ele>
        <time>2024-02-10T08:46:57Z</time>
      </trkpt>
      <trkpt lat="44.45455" lon="1.48583">
        <ele>400.4</ele>
        <time>2024-02-10T08:46:59Z</time>
      </trkpt>
      <trkpt lat="44.45455" lon="1.48583">
        <ele>400.6</ele>
        <time>2024-02-10T08:47:01Z</time>
      </trkpt>
      <trkpt lat="44.45455" lon="1.48583">
        <ele>401</ele>
        <time>2024-02-10T08:47:03Z</time>
      </trkpt>
      <trkpt lat="44.45455" lon="1.48583">
        <ele>401.2</ele>
        <time>2024-02-10T08:47:05Z</time>
      </trkpt>
      <trkpt lat="44.45455" lon="1.48583">
        <ele>401.4</ele>
        <time>2024-02-10T08:47:06Z</time>
      </trkpt>
      <trkpt lat="44.45454" lon="1.48583">
        <ele>401.4</ele>
        <time>2024-02-10T08:47:07Z</time>
      </trkpt>
      <trkpt lat="44.45454" lon="1.48583">
        <ele>401.4</ele>
        <time>2024-02-10T08:47:09Z</time>
      </trkpt>
      <trkpt lat="44.45454" lon="1.48583">
        <ele>401.6</ele>
        <time>2024-02-10T08:47:11Z</time>
      </trkpt>
      <trkpt lat="44.45454" lon="1.48583">
        <ele>401.6</ele>
        <time>2024-02-10T08:47:13Z</time>
      </trkpt>
      <trkpt lat="44.45454" lon="1.48583">
        <ele>401.6</ele>
        <time>2024-02-10T08:47:15Z</time>
      </trkpt>
      <trkpt lat="44.45454" lon="1.48583">
        <ele>401.8</ele>
        <time>2024-02-10T08:47:17Z</time>
      </trkpt>
      <trkpt lat="44.45454" lon="1.48583">
        <ele>402</ele>
        <time>2024-02-10T08:47:19Z</time>
      </trkpt>
      <trkpt lat="44.45454" lon="1.48583">
        <ele>402</ele>
        <time>2024-02-10T08:47:21Z</time>
      </trkpt>
      <trkpt lat="44.45453" lon="1.48583">
        <ele>402</ele>
        <time>2024-02-10T08:47:23Z</time>
      </trkpt>
      <trkpt lat="44.45452" lon="1.48584">
        <ele>402</ele>
        <time>2024-02-10T08:47:25Z</time>
      </trkpt>
      <trkpt lat="44.4545" lon="1.48585">
        <ele>402</ele>
        <time>2024-02-10T08:47:27Z</time>
      </trkpt>
      <trkpt lat="44.45447" lon="1.48588">
        <ele>402</ele>
        <time>2024-02-10T08:47:29Z</time>
      </trkpt>
      <trkpt lat="44.45444" lon="1.48589">
        <ele>402</ele>
        <time>2024-02-10T08:47:31Z</time>
      </trkpt>
      <trkpt lat="44.45442" lon="1.4859">
        <ele>402</ele>
        <time>2024-02-10T08:47:32Z</time>
      </trkpt>
      <trkpt lat="44.4544" lon="1.48591">
        <ele>402</ele>
        <time>2024-02-10T08:47:33Z</time>
      </trkpt>
      <trkpt lat="44.45437" lon="1.48594">
        <ele>402</ele>
        <time>2024-02-10T08:47:35Z</time>
      </trkpt>
      <trkpt lat="44.45433" lon="1.48596">
        <ele>402</ele>
        <time>2024-02-10T08:47:37Z</time>
      </trkpt>
      <trkpt lat="44.4543" lon="1.48599">
        <ele>402.2</ele>
        <time>2024-02-10T08:47:39Z</time>
      </trkpt>
      <trkpt lat="44.45428" lon="1.486">
        <ele>402.4</ele>
        <time>2024-02-10T08:47:40Z</time>
      </trkpt>
      <trkpt lat="44.45426" lon="1.48601">
        <ele>402.6</ele>
        <time>2024-02-10T08:47:41Z</time>
      </trkpt>
      <trkpt lat="44.45424" lon="1.48603">
        <ele>402.8</ele>
        <time>2024-02-10T08:47:42Z</time>
      </trkpt>
      <trkpt lat="44.45423" lon="1.48604">
        <ele>403.2</ele>
        <time>2024-02-10T08:47:43Z</time>
      </trkpt>
      <trkpt lat="44.45419" lon="1.48607">
        <ele>403.4</ele>
        <time>2024-02-10T08:47:45Z</time>
      </trkpt>
      <trkpt lat="44.45417" lon="1.48609">
        <ele>404.2</ele>
        <time>2024-02-10T08:47:46Z</time>
      </trkpt>
      <trkpt lat="44.45416" lon="1.4861">
        <ele>404.4</ele>
        <time>2024-02-10T08:47:47Z</time>
      </trkpt>
      <trkpt lat="44.45412" lon="1.48613">
        <ele>405.2</ele>
        <time>2024-02-10T08:47:49Z</time>
      </trkpt>
      <trkpt lat="44.45408" lon="1.48616">
        <ele>405.6</ele>
        <time>2024-02-10T08:47:51Z</time>
      </trkpt>
      <trkpt lat="44.45404" lon="1.48619">
        <ele>406</ele>
        <time>2024-02-10T08:47:53Z</time>
      </trkpt>
      <trkpt lat="44.45402" lon="1.48621">
        <ele>406.2</ele>
        <time>2024-02-10T08:47:54Z</time>
      </trkpt>
      <trkpt lat="44.454" lon="1.48622">
        <ele>406.4</ele>
        <time>2024-02-10T08:47:55Z</time>
      </trkpt>
      <trkpt lat="44.45397" lon="1.48626">
        <ele>406.8</ele>
        <time>2024-02-10T08:47:57Z</time>
      </trkpt>
      <trkpt lat="44.45394" lon="1.48629">
        <ele>407.2</ele>
        <time>2024-02-10T08:47:59Z</time>
      </trkpt>
      <trkpt lat="44.45393" lon="1.48631">
        <ele>407.4</ele>
        <time>2024-02-10T08:48:00Z</time>
      </trkpt>
      <trkpt lat="44.45391" lon="1.48632">
        <ele>407.6</ele>
        <time>2024-02-10T08:48:01Z</time>
      </trkpt>
      <trkpt lat="44.45387" lon="1.48635">
        <ele>408.2</ele>
        <time>2024-02-10T08:48:03Z</time>
      </trkpt>
      <trkpt lat="44.45385" lon="1.48637">
        <ele>408.4</ele>
        <time>2024-02-10T08:48:04Z</time>
      </trkpt>
      <trkpt lat="44.45383" lon="1.48638">
        <ele>408.6</ele>
        <time>2024-02-10T08:48:05Z</time>
      </trkpt>
      <trkpt lat="44.45379" lon="1.48641">
        <ele>409.2</ele>
        <time>2024-02-10T08:48:07Z</time>
      </trkpt>
      <trkpt lat="44.45378" lon="1.48643">
        <ele>409.4</ele>
        <time>2024-02-10T08:48:08Z</time>
      </trkpt>
      <trkpt lat="44.45376" lon="1.48644">
        <ele>409.8</ele>
        <time>2024-02-10T08:48:09Z</time>
      </trkpt>
      <trkpt lat="44.45373" lon="1.48648">
        <ele>410.2</ele>
        <time>2024-02-10T08:48:11Z</time>
      </trkpt>
      <trkpt lat="44.45369" lon="1.48651">
        <ele>410.8</ele>
        <time>2024-02-10T08:48:13Z</time>
      </trkpt>
      <trkpt lat="44.45366" lon="1.48654">
        <ele>411.8</ele>
        <time>2024-02-10T08:48:15Z</time>
      </trkpt>
      <trkpt lat="44.45363" lon="1.48657">
        <ele>412.2</ele>
        <time>2024-02-10T08:48:17Z</time>
      </trkpt>
      <trkpt lat="44.4536" lon="1.48659">
        <ele>412.6</ele>
        <time>2024-02-10T08:48:19Z</time>
      </trkpt>
      <trkpt lat="44.45357" lon="1.48662">
        <ele>413</ele>
        <time>2024-02-10T08:48:21Z</time>
      </trkpt>
      <trkpt lat="44.45355" lon="1.48664">
        <ele>413.2</ele>
        <time>2024-02-10T08:48:23Z</time>
      </trkpt>
      <trkpt lat="44.45353" lon="1.48667">
        <ele>413.4</ele>
        <time>2024-02-10T08:48:25Z</time>
      </trkpt>
      <trkpt lat="44.45351" lon="1.48669">
        <ele>413.8</ele>
        <time>2024-02-10T08:48:27Z</time>
      </trkpt>
      <trkpt lat="44.45349" lon="1.48671">
        <ele>414</ele>
        <time>2024-02-10T08:48:28Z</time>
      </trkpt>
      <trkpt lat="44.45348" lon="1.48672">
        <ele>414.4</ele>
        <time>2024-02-10T08:48:29Z</time>
      </trkpt>
      <trkpt lat="44.45347" lon="1.48674">
        <ele>414.6</ele>
        <time>2024-02-10T08:48:30Z</time>
      </trkpt>
      <trkpt lat="44.45346" lon="1.48675">
        <ele>415</ele>
        <time>2024-02-10T08:48:31Z</time>
      </trkpt>
      <trkpt lat="44.45345" lon="1.48677">
        <ele>415.2</ele>
        <time>2024-02-10T08:48:32Z</time>
      </trkpt>
      <trkpt lat="44.45344" lon="1.48678">
        <ele>415.4</ele>
        <time>2024-02-10T08:48:33Z</time>
      </trkpt>
      <trkpt lat="44.45343" lon="1.48681">
        <ele>415.8</ele>
        <time>2024-02-10T08:48:35Z</time>
      </trkpt>
      <trkpt lat="44.45341" lon="1.48683">
        <ele>416</ele>
        <time>2024-02-10T08:48:37Z</time>
      </trkpt>
      <trkpt lat="44.45339" lon="1.48686">
        <ele>416.2</ele>
        <time>2024-02-10T08:48:39Z</time>
      </trkpt>
      <trkpt lat="44.45338" lon="1.48687">
        <ele>416.2</ele>
        <time>2024-02-10T08:48:40Z</time>
      </trkpt>
      <trkpt lat="44.45338" lon="1.48688">
        <ele>416.4</ele>
        <time>2024-02-10T08:48:41Z</time>
      </trkpt>
      <trkpt lat="44.45337" lon="1.48691">
        <ele>416.6</ele>
        <time>2024-02-10T08:48:43Z</time>
      </trkpt>
      <trkpt lat="44.45335" lon="1.48693">
        <ele>417</ele>
        <time>2024-02-10T08:48:45Z</time>
      </trkpt>
      <trkpt lat="44.45334" lon="1.48695">
        <ele>417.2</ele>
        <time>2024-02-10T08:48:47Z</time>
      </trkpt>
      <trkpt lat="44.45332" lon="1.48697">
        <ele>417.6</ele>
        <time>2024-02-10T08:48:49Z</time>
      </trkpt>
      <trkpt lat="44.4533" lon="1.48699">
        <ele>418.2</ele>
        <time>2024-02-10T08:48:51Z</time>
      </trkpt>
      <trkpt lat="44.45328" lon="1.487">
        <ele>419.2</ele>
        <time>2024-02-10T08:48:53Z</time>
      </trkpt>
      <trkpt lat="44.45327" lon="1.48701">
        <ele>419.6</ele>
        <time>2024-02-10T08:48:54Z</time>
      </trkpt>
      <trkpt lat="44.45326" lon="1.48702">
        <ele>419.8</ele>
        <time>2024-02-10T08:48:55Z</time>
      </trkpt>
      <trkpt lat="44.45325" lon="1.48704">
        <ele>420.6</ele>
        <time>2024-02-10T08:48:57Z</time>
      </trkpt>
      <trkpt lat="44.45324" lon="1.48704">
        <ele>420.8</ele>
        <time>2024-02-10T08:48:58Z</time>
      </trkpt>
      <trkpt lat="44.45323" lon="1.48705">
        <ele>420.8</ele>
        <time>2024-02-10T08:48:59Z</time>
      </trkpt>
      <trkpt lat="44.45321" lon="1.48707">
        <ele>421.2</ele>
        <time>2024-02-10T08:49:01Z</time>
      </trkpt>
      <trkpt lat="44.45319" lon="1.48708">
        <ele>421.6</ele>
        <time>2024-02-10T08:49:03Z</time>
      </trkpt>
      <trkpt lat="44.45318" lon="1.48709">
        <ele>421.8</ele>
        <time>2024-02-10T08:49:04Z</time>
      </trkpt>
      <trkpt lat="44.45318" lon="1.48709">
        <ele>422</ele>
        <time>2024-02-10T08:49:05Z</time>
      </trkpt>
      <trkpt lat="44.45316" lon="1.4871">
        <ele>422.8</ele>
        <time>2024-02-10T08:49:07Z</time>
      </trkpt>
      <trkpt lat="44.45316" lon="1.4871">
        <ele>423</ele>
        <time>2024-02-10T08:49:08Z</time>
      </trkpt>
      <trkpt lat="44.45315" lon="1.4871">
        <ele>423</ele>
        <time>2024-02-10T08:49:09Z</time>
      </trkpt>
      <trkpt lat="44.45314" lon="1.48711">
        <ele>423.8</ele>
        <time>2024-02-10T08:49:11Z</time>
      </trkpt>
      <trkpt lat="44.45313" lon="1.48712">
        <ele>424</ele>
        <time>2024-02-10T08:49:12Z</time>
      </trkpt>
      <trkpt lat="44.45312" lon="1.48713">
        <ele>424.2</ele>
        <time>2024-02-10T08:49:13Z</time>
      </trkpt>
      <trkpt lat="44.4531" lon="1.48714">
        <ele>424.4</ele>
        <time>2024-02-10T08:49:15Z</time>
      </trkpt>
      <trkpt lat="44.45308" lon="1.48715">
        <ele>424.8</ele>
        <time>2024-02-10T08:49:17Z</time>
      </trkpt>
      <trkpt lat="44.45307" lon="1.48716">
        <ele>425.2</ele>
        <time>2024-02-10T08:49:18Z</time>
      </trkpt>
      <trkpt lat="44.45307" lon="1.48717">
        <ele>425.4</ele>
        <time>2024-02-10T08:49:19Z</time>
      </trkpt>
      <trkpt lat="44.45305" lon="1.4872">
        <ele>425.8</ele>
        <time>2024-02-10T08:49:21Z</time>
      </trkpt>
      <trkpt lat="44.45305" lon="1.48722">
        <ele>426.4</ele>
        <time>2024-02-10T08:49:23Z</time>
      </trkpt>
      <trkpt lat="44.45303" lon="1.48724">
        <ele>426.6</ele>
        <time>2024-02-10T08:49:25Z</time>
      </trkpt>
      <trkpt lat="44.45302" lon="1.48726">
        <ele>427</ele>
        <time>2024-02-10T08:49:27Z</time>
      </trkpt>
      <trkpt lat="44.453" lon="1.48728">
        <ele>427.4</ele>
        <time>2024-02-10T08:49:29Z</time>
      </trkpt>
      <trkpt lat="44.45298" lon="1.48731">
        <ele>428</ele>
        <time>2024-02-10T08:49:31Z</time>
      </trkpt>
      <trkpt lat="44.45297" lon="1.48733">
        <ele>428.6</ele>
        <time>2024-02-10T08:49:33Z</time>
      </trkpt>
      <trkpt lat="44.45295" lon="1.48735">
        <ele>429</ele>
        <time>2024-02-10T08:49:35Z</time>
      </trkpt>
      <trkpt lat="44.45293" lon="1.48737">
        <ele>429.6</ele>
        <time>2024-02-10T08:49:37Z</time>
      </trkpt>
      <trkpt lat="44.45292" lon="1.48738">
        <ele>429.8</ele>
        <time>2024-02-10T08:49:38Z</time>
      </trkpt>
      <trkpt lat="44.45292" lon="1.48739">
        <ele>430</ele>
        <time>2024-02-10T08:49:39Z</time>
      </trkpt>
      <trkpt lat="44.45291" lon="1.48742">
        <ele>430.6</ele>
        <time>2024-02-10T08:49:41Z</time>
      </trkpt>
      <trkpt lat="44.4529" lon="1.48743">
        <ele>430.8</ele>
        <time>2024-02-10T08:49:42Z</time>
      </trkpt>
      <trkpt lat="44.45289" lon="1.48744">
        <ele>431</ele>
        <time>2024-02-10T08:49:43Z</time>
      </trkpt>
      <trkpt lat="44.45288" lon="1.48745">
        <ele>431.6</ele>
        <time>2024-02-10T08:49:45Z</time>
      </trkpt>
      <trkpt lat="44.45286" lon="1.48748">
        <ele>432</ele>
        <time>2024-02-10T08:49:47Z</time>
      </trkpt>
      <trkpt lat="44.45286" lon="1.48749">
        <ele>432.4</ele>
        <time>2024-02-10T08:49:48Z</time>
      </trkpt>
      <trkpt lat="44.45285" lon="1.4875">
        <ele>432.6</ele>
        <time>2024-02-10T08:49:49Z</time>
      </trkpt>
      <trkpt lat="44.45283" lon="1.48752">
        <ele>432.8</ele>
        <time>2024-02-10T08:49:51Z</time>
      </trkpt>
      <trkpt lat="44.45281" lon="1.48754">
        <ele>433.2</ele>
        <time>2024-02-10T08:49:53Z</time>
      </trkpt>
      <trkpt lat="44.4528" lon="1.48757">
        <ele>433.4</ele>
        <time>2024-02-10T08:49:55Z</time>
      </trkpt>
      <trkpt lat="44.45278" lon="1.48759">
        <ele>433.8</ele>
        <time>2024-02-10T08:49:57Z</time>
      </trkpt>
      <trkpt lat="44.45277" lon="1.48761">
        <ele>434</ele>
        <time>2024-02-10T08:49:59Z</time>
      </trkpt>
      <trkpt lat="44.45275" lon="1.48764">
        <ele>434.6</ele>
        <time>2024-02-10T08:50:01Z</time>
      </trkpt>
      <trkpt lat="44.45274" lon="1.48766">
        <ele>434.8</ele>
        <time>2024-02-10T08:50:03Z</time>
      </trkpt>
      <trkpt lat="44.45273" lon="1.48768">
        <ele>435.2</ele>
        <time>2024-02-10T08:50:05Z</time>
      </trkpt>
      <trkpt lat="44.45272" lon="1.4877">
        <ele>435.4</ele>
        <time>2024-02-10T08:50:07Z</time>
      </trkpt>
      <trkpt lat="44.45271" lon="1.48773">
        <ele>436</ele>
        <time>2024-02-10T08:50:09Z</time>
      </trkpt>
      <trkpt lat="44.45271" lon="1.48774">
        <ele>436.2</ele>
        <time>2024-02-10T08:50:10Z</time>
      </trkpt>
      <trkpt lat="44.45271" lon="1.48776">
        <ele>436.6</ele>
        <time>2024-02-10T08:50:11Z</time>
      </trkpt>
      <trkpt lat="44.4527" lon="1.48778">
        <ele>437</ele>
        <time>2024-02-10T08:50:13Z</time>
      </trkpt>
      <trkpt lat="44.4527" lon="1.48781">
        <ele>437.4</ele>
        <time>2024-02-10T08:50:15Z</time>
      </trkpt>
      <trkpt lat="44.45269" lon="1.48784">
        <ele>437.8</ele>
        <time>2024-02-10T08:50:17Z</time>
      </trkpt>
      <trkpt lat="44.45268" lon="1.48786">
        <ele>438.4</ele>
        <time>2024-02-10T08:50:19Z</time>
      </trkpt>
      <trkpt lat="44.45268" lon="1.48788">
        <ele>438.8</ele>
        <time>2024-02-10T08:50:21Z</time>
      </trkpt>
      <trkpt lat="44.45268" lon="1.48791">
        <ele>439.4</ele>
        <time>2024-02-10T08:50:23Z</time>
      </trkpt>
      <trkpt lat="44.45268" lon="1.48792">
        <ele>439.4</ele>
        <time>2024-02-10T08:50:24Z</time>
      </trkpt>
      <trkpt lat="44.45267" lon="1.48793">
        <ele>439.6</ele>
        <time>2024-02-10T08:50:25Z</time>
      </trkpt>
      <trkpt lat="44.45266" lon="1.48796">
        <ele>440</ele>
        <time>2024-02-10T08:50:27Z</time>
      </trkpt>
      <trkpt lat="44.45265" lon="1.48799">
        <ele>440.4</ele>
        <time>2024-02-10T08:50:29Z</time>
      </trkpt>
      <trkpt lat="44.45265" lon="1.48802">
        <ele>440.8</ele>
        <time>2024-02-10T08:50:31Z</time>
      </trkpt>
      <trkpt lat="44.45264" lon="1.48805">
        <ele>441.2</ele>
        <time>2024-02-10T08:50:33Z</time>
      </trkpt>
      <trkpt lat="44.45264" lon="1.48806">
        <ele>441.4</ele>
        <time>2024-02-10T08:50:34Z</time>
      </trkpt>
      <trkpt lat="44.45264" lon="1.48807">
        <ele>441.8</ele>
        <time>2024-02-10T08:50:35Z</time>
      </trkpt>
      <trkpt lat="44.45263" lon="1.48809">
        <ele>442.2</ele>
        <time>2024-02-10T08:50:36Z</time>
      </trkpt>
      <trkpt lat="44.45262" lon="1.4881">
        <ele>442.6</ele>
        <time>2024-02-10T08:50:37Z</time>
      </trkpt>
      <trkpt lat="44.45261" lon="1.48812">
        <ele>443.2</ele>
        <time>2024-02-10T08:50:39Z</time>
      </trkpt>
      <trkpt lat="44.4526" lon="1.48813">
        <ele>443.6</ele>
        <time>2024-02-10T08:50:40Z</time>
      </trkpt>
      <trkpt lat="44.4526" lon="1.48814">
        <ele>443.8</ele>
        <time>2024-02-10T08:50:41Z</time>
      </trkpt>
      <trkpt lat="44.45259" lon="1.48816">
        <ele>444.4</ele>
        <time>2024-02-10T08:50:43Z</time>
      </trkpt>
      <trkpt lat="44.45258" lon="1.48817">
        <ele>444.8</ele>
        <time>2024-02-10T08:50:45Z</time>
      </trkpt>
      <trkpt lat="44.45258" lon="1.48818">
        <ele>445</ele>
        <time>2024-02-10T08:50:46Z</time>
      </trkpt>
      <trkpt lat="44.45257" lon="1.48818">
        <ele>445.2</ele>
        <time>2024-02-10T08:50:47Z</time>
      </trkpt>
      <trkpt lat="44.45257" lon="1.48819">
        <ele>445.4</ele>
        <time>2024-02-10T08:50:49Z</time>
      </trkpt>
      <trkpt lat="44.45256" lon="1.48819">
        <ele>445.8</ele>
        <time>2024-02-10T08:50:51Z</time>
      </trkpt>
      <trkpt lat="44.45256" lon="1.4882">
        <ele>445.8</ele>
        <time>2024-02-10T08:50:52Z</time>
      </trkpt>
      <trkpt lat="44.45256" lon="1.4882">
        <ele>446</ele>
        <time>2024-02-10T08:50:53Z</time>
      </trkpt>
      <trkpt lat="44.45255" lon="1.48821">
        <ele>446.4</ele>
        <time>2024-02-10T08:50:55Z</time>
      </trkpt>
      <trkpt lat="44.45255" lon="1.48821">
        <ele>446.4</ele>
        <time>2024-02-10T08:50:56Z</time>
      </trkpt>
      <trkpt lat="44.45254" lon="1.48821">
        <ele>446.6</ele>
        <time>2024-02-10T08:50:57Z</time>
      </trkpt>
      <trkpt lat="44.45254" lon="1.48821">
        <ele>446.8</ele>
        <time>2024-02-10T08:50:59Z</time>
      </trkpt>
      <trkpt lat="44.45254" lon="1.48821">
        <ele>447</ele>
        <time>2024-02-10T08:51:00Z</time>
      </trkpt>
      <trkpt lat="44.45254" lon="1.48821">
        <ele>447</ele>
        <time>2024-02-10T08:51:01Z</time>
      </trkpt>
      <trkpt lat="44.45253" lon="1.48821">
        <ele>447.2</ele>
        <time>2024-02-10T08:51:03Z</time>
      </trkpt>
      <trkpt lat="44.45253" lon="1.48822">
        <ele>447.2</ele>
        <time>2024-02-10T08:51:05Z</time>
      </trkpt>
      <trkpt lat="44.45252" lon="1.48822">
        <ele>447.4</ele>
        <time>2024-02-10T08:51:07Z</time>
      </trkpt>
      <trkpt lat="44.4525" lon="1.48823">
        <ele>447.4</ele>
        <time>2024-02-10T08:51:09Z</time>
      </trkpt>
      <trkpt lat="44.45248" lon="1.48822">
        <ele>447.4</ele>
        <time>2024-02-10T08:51:11Z</time>
      </trkpt>
      <trkpt lat="44.45247" lon="1.48822">
        <ele>447.4</ele>
        <time>2024-02-10T08:51:12Z</time>
      </trkpt>
      <trkpt lat="44.45247" lon="1.48822">
        <ele>447.4</ele>
        <time>2024-02-10T08:51:13Z</time>
      </trkpt>
      <trkpt lat="44.45245" lon="1.48823">
        <ele>447.4</ele>
        <time>2024-02-10T08:51:15Z</time>
      </trkpt>
      <trkpt lat="44.45243" lon="1.48823">
        <ele>447.6</ele>
        <time>2024-02-10T08:51:16Z</time>
      </trkpt>
      <trkpt lat="44.45242" lon="1.48823">
        <ele>447.8</ele>
        <time>2024-02-10T08:51:17Z</time>
      </trkpt>
      <trkpt lat="44.45241" lon="1.48824">
        <ele>448</ele>
        <time>2024-02-10T08:51:18Z</time>
      </trkpt>
      <trkpt lat="44.4524" lon="1.48824">
        <ele>448.2</ele>
        <time>2024-02-10T08:51:19Z</time>
      </trkpt>
      <trkpt lat="44.45239" lon="1.48825">
        <ele>448.4</ele>
        <time>2024-02-10T08:51:20Z</time>
      </trkpt>
      <trkpt lat="44.45238" lon="1.48827">
        <ele>448.8</ele>
        <time>2024-02-10T08:51:21Z</time>
      </trkpt>
      <trkpt lat="44.45238" lon="1.48828">
        <ele>449</ele>
        <time>2024-02-10T08:51:22Z</time>
      </trkpt>
      <trkpt lat="44.45237" lon="1.4883">
        <ele>449.4</ele>
        <time>2024-02-10T08:51:23Z</time>
      </trkpt>
      <trkpt lat="44.45237" lon="1.48831">
        <ele>449.6</ele>
        <time>2024-02-10T08:51:24Z</time>
      </trkpt>
      <trkpt lat="44.45236" lon="1.48833">
        <ele>449.8</ele>
        <time>2024-02-10T08:51:25Z</time>
      </trkpt>
      <trkpt lat="44.45234" lon="1.48836">
        <ele>450.2</ele>
        <time>2024-02-10T08:51:27Z</time>
      </trkpt>
      <trkpt lat="44.45233" lon="1.4884">
        <ele>450.4</ele>
        <time>2024-02-10T08:51:29Z</time>
      </trkpt>
      <trkpt lat="44.45232" lon="1.48841">
        <ele>450.6</ele>
        <time>2024-02-10T08:51:30Z</time>
      </trkpt>
      <trkpt lat="44.45232" lon="1.48843">
        <ele>451</ele>
        <time>2024-02-10T08:51:31Z</time>
      </trkpt>
      <trkpt lat="44.45231" lon="1.48845">
        <ele>451.2</ele>
        <time>2024-02-10T08:51:32Z</time>
      </trkpt>
      <trkpt lat="44.4523" lon="1.48847">
        <ele>451.6</ele>
        <time>2024-02-10T08:51:33Z</time>
      </trkpt>
      <trkpt lat="44.45229" lon="1.4885">
        <ele>452.4</ele>
        <time>2024-02-10T08:51:35Z</time>
      </trkpt>
      <trkpt lat="44.45228" lon="1.48853">
        <ele>453.2</ele>
        <time>2024-02-10T08:51:37Z</time>
      </trkpt>
      <trkpt lat="44.45227" lon="1.48857">
        <ele>453.6</ele>
        <time>2024-02-10T08:51:39Z</time>
      </trkpt>
      <trkpt lat="44.45225" lon="1.4886">
        <ele>453.8</ele>
        <time>2024-02-10T08:51:41Z</time>
      </trkpt>
      <trkpt lat="44.45224" lon="1.48862">
        <ele>454.2</ele>
        <time>2024-02-10T08:51:43Z</time>
      </trkpt>
      <trkpt lat="44.45223" lon="1.48863">
        <ele>454.2</ele>
        <time>2024-02-10T08:51:44Z</time>
      </trkpt>
      <trkpt lat="44.45222" lon="1.48864">
        <ele>454.4</ele>
        <time>2024-02-10T08:51:45Z</time>
      </trkpt>
      <trkpt lat="44.45222" lon="1.48865">
        <ele>454.8</ele>
        <time>2024-02-10T08:51:46Z</time>
      </trkpt>
      <trkpt lat="44.45221" lon="1.48866">
        <ele>455</ele>
        <time>2024-02-10T08:51:47Z</time>
      </trkpt>
      <trkpt lat="44.4522" lon="1.48869">
        <ele>455.2</ele>
        <time>2024-02-10T08:51:49Z</time>
      </trkpt>
      <trkpt lat="44.45219" lon="1.48872">
        <ele>455.4</ele>
        <time>2024-02-10T08:51:51Z</time>
      </trkpt>
      <trkpt lat="44.45219" lon="1.48873">
        <ele>455.6</ele>
        <time>2024-02-10T08:51:52Z</time>
      </trkpt>
      <trkpt lat="44.45218" lon="1.48874">
        <ele>455.6</ele>
        <time>2024-02-10T08:51:53Z</time>
      </trkpt>
      <trkpt lat="44.45218" lon="1.48875">
        <ele>455.8</ele>
        <time>2024-02-10T08:51:54Z</time>
      </trkpt>
      <trkpt lat="44.45217" lon="1.48876">
        <ele>456</ele>
        <time>2024-02-10T08:51:55Z</time>
      </trkpt>
      <trkpt lat="44.45215" lon="1.48878">
        <ele>456.6</ele>
        <time>2024-02-10T08:51:57Z</time>
      </trkpt>
      <trkpt lat="44.45214" lon="1.4888">
        <ele>456.8</ele>
        <time>2024-02-10T08:51:59Z</time>
      </trkpt>
      <trkpt lat="44.45213" lon="1.48882">
        <ele>456.8</ele>
        <time>2024-02-10T08:52:00Z</time>
      </trkpt>
      <trkpt lat="44.45212" lon="1.48882">
        <ele>457</ele>
        <time>2024-02-10T08:52:01Z</time>
      </trkpt>
      <trkpt lat="44.4521" lon="1.48884">
        <ele>457.4</ele>
        <time>2024-02-10T08:52:03Z</time>
      </trkpt>
      <trkpt lat="44.45208" lon="1.48885">
        <ele>457.8</ele>
        <time>2024-02-10T08:52:05Z</time>
      </trkpt>
      <trkpt lat="44.45206" lon="1.48886">
        <ele>457.8</ele>
        <time>2024-02-10T08:52:07Z</time>
      </trkpt>
      <trkpt lat="44.45205" lon="1.48887">
        <ele>458</ele>
        <time>2024-02-10T08:52:09Z</time>
      </trkpt>
      <trkpt lat="44.45203" lon="1.48888">
        <ele>458.8</ele>
        <time>2024-02-10T08:52:11Z</time>
      </trkpt>
      <trkpt lat="44.45201" lon="1.48889">
        <ele>459.2</ele>
        <time>2024-02-10T08:52:13Z</time>
      </trkpt>
      <trkpt lat="44.45199" lon="1.48889">
        <ele>459.8</ele>
        <time>2024-02-10T08:52:15Z</time>
      </trkpt>
      <trkpt lat="44.45196" lon="1.4889">
        <ele>460</ele>
        <time>2024-02-10T08:52:17Z</time>
      </trkpt>
      <trkpt lat="44.45195" lon="1.48891">
        <ele>460.4</ele>
        <time>2024-02-10T08:52:19Z</time>
      </trkpt>
      <trkpt lat="44.45193" lon="1.48891">
        <ele>461.2</ele>
        <time>2024-02-10T08:52:21Z</time>
      </trkpt>
      <trkpt lat="44.45192" lon="1.48892">
        <ele>461.6</ele>
        <time>2024-02-10T08:52:23Z</time>
      </trkpt>
      <trkpt lat="44.45191" lon="1.48891">
        <ele>461.6</ele>
        <time>2024-02-10T08:52:24Z</time>
      </trkpt>
      <trkpt lat="44.4519" lon="1.48891">
        <ele>461.8</ele>
        <time>2024-02-10T08:52:25Z</time>
      </trkpt>
      <trkpt lat="44.4519" lon="1.4889">
        <ele>462.2</ele>
        <time>2024-02-10T08:52:27Z</time>
      </trkpt>
      <trkpt lat="44.45189" lon="1.48891">
        <ele>462.6</ele>
        <time>2024-02-10T08:52:29Z</time>
      </trkpt>
      <trkpt lat="44.45189" lon="1.48891">
        <ele>463</ele>
        <time>2024-02-10T08:52:31Z</time>
      </trkpt>
      <trkpt lat="44.45189" lon="1.48891">
        <ele>463.2</ele>
        <time>2024-02-10T08:52:32Z</time>
      </trkpt>
      <trkpt lat="44.45189" lon="1.48891">
        <ele>463.2</ele>
        <time>2024-02-10T08:52:33Z</time>
      </trkpt>
      <trkpt lat="44.45189" lon="1.48891">
        <ele>463.6</ele>
        <time>2024-02-10T08:52:35Z</time>
      </trkpt>
      <trkpt lat="44.45189" lon="1.48891">
        <ele>463.6</ele>
        <time>2024-02-10T08:52:37Z</time>
      </trkpt>
      <trkpt lat="44.45187" lon="1.48892">
        <ele>463.6</ele>
        <time>2024-02-10T08:52:39Z</time>
      </trkpt>
      <trkpt lat="44.45186" lon="1.48893">
        <ele>463.6</ele>
        <time>2024-02-10T08:52:40Z</time>
      </trkpt>
      <trkpt lat="44.45185" lon="1.48893">
        <ele>463.8</ele>
        <time>2024-02-10T08:52:41Z</time>
      </trkpt>
      <trkpt lat="44.45183" lon="1.48894">
        <ele>463.8</ele>
        <time>2024-02-10T08:52:43Z</time>
      </trkpt>
      <trkpt lat="44.45181" lon="1.48894">
        <ele>464</ele>
        <time>2024-02-10T08:52:45Z</time>
      </trkpt>
      <trkpt lat="44.45179" lon="1.48895">
        <ele>464</ele>
        <time>2024-02-10T08:52:47Z</time>
      </trkpt>
      <trkpt lat="44.45178" lon="1.48896">
        <ele>464.2</ele>
        <time>2024-02-10T08:52:49Z</time>
      </trkpt>
      <trkpt lat="44.45176" lon="1.48897">
        <ele>464.4</ele>
        <time>2024-02-10T08:52:51Z</time>
      </trkpt>
      <trkpt lat="44.45175" lon="1.48898">
        <ele>464.8</ele>
        <time>2024-02-10T08:52:52Z</time>
      </trkpt>
      <trkpt lat="44.45174" lon="1.48898">
        <ele>465</ele>
        <time>2024-02-10T08:52:53Z</time>
      </trkpt>
      <trkpt lat="44.45173" lon="1.48898">
        <ele>465.6</ele>
        <time>2024-02-10T08:52:55Z</time>
      </trkpt>
      <trkpt lat="44.45172" lon="1.48899">
        <ele>465.8</ele>
        <time>2024-02-10T08:52:56Z</time>
      </trkpt>
      <trkpt lat="44.45171" lon="1.489">
        <ele>466.2</ele>
        <time>2024-02-10T08:52:57Z</time>
      </trkpt>
      <trkpt lat="44.45169" lon="1.489">
        <ele>466.8</ele>
        <time>2024-02-10T08:52:59Z</time>
      </trkpt>
      <trkpt lat="44.45169" lon="1.489">
        <ele>467</ele>
        <time>2024-02-10T08:53:00Z</time>
      </trkpt>
      <trkpt lat="44.45168" lon="1.489">
        <ele>467</ele>
        <time>2024-02-10T08:53:01Z</time>
      </trkpt>
      <trkpt lat="44.45166" lon="1.48901">
        <ele>467.4</ele>
        <time>2024-02-10T08:53:03Z</time>
      </trkpt>
      <trkpt lat="44.45165" lon="1.48903">
        <ele>467.8</ele>
        <time>2024-02-10T08:53:05Z</time>
      </trkpt>
      <trkpt lat="44.45164" lon="1.48904">
        <ele>468.2</ele>
        <time>2024-02-10T08:53:06Z</time>
      </trkpt>
      <trkpt lat="44.45163" lon="1.48904">
        <ele>468.4</ele>
        <time>2024-02-10T08:53:07Z</time>
      </trkpt>
      <trkpt lat="44.45161" lon="1.48905">
        <ele>468.6</ele>
        <time>2024-02-10T08:53:09Z</time>
      </trkpt>
      <trkpt lat="44.4516" lon="1.48905">
        <ele>468.8</ele>
        <time>2024-02-10T08:53:11Z</time>
      </trkpt>
      <trkpt lat="44.4516" lon="1.48905">
        <ele>468.8</ele>
        <time>2024-02-10T08:53:13Z</time>
      </trkpt>
      <trkpt lat="44.4516" lon="1.48905">
        <ele>469</ele>
        <time>2024-02-10T08:53:15Z</time>
      </trkpt>
      <trkpt lat="44.45161" lon="1.48905">
        <ele>469.2</ele>
        <time>2024-02-10T08:53:16Z</time>
      </trkpt>
      <trkpt lat="44.45161" lon="1.48904">
        <ele>469.6</ele>
        <time>2024-02-10T08:53:17Z</time>
      </trkpt>
      <trkpt lat="44.4516" lon="1.48904">
        <ele>470</ele>
        <time>2024-02-10T08:53:19Z</time>
      </trkpt>
      <trkpt lat="44.45161" lon="1.48904">
        <ele>470.4</ele>
        <time>2024-02-10T08:53:21Z</time>
      </trkpt>
      <trkpt lat="44.45161" lon="1.48904">
        <ele>470.6</ele>
        <time>2024-02-10T08:53:22Z</time>
      </trkpt>
      <trkpt lat="44.45161" lon="1.48903">
        <ele>470.8</ele>
        <time>2024-02-10T08:53:23Z</time>
      </trkpt>
      <trkpt lat="44.4516" lon="1.48904">
        <ele>470.8</ele>
        <time>2024-02-10T08:53:24Z</time>
      </trkpt>
      <trkpt lat="44.4516" lon="1.48904">
        <ele>471</ele>
        <time>2024-02-10T08:53:25Z</time>
      </trkpt>
      <trkpt lat="44.45159" lon="1.48904">
        <ele>471</ele>
        <time>2024-02-10T08:53:27Z</time>
      </trkpt>
      <trkpt lat="44.45159" lon="1.48904">
        <ele>471</ele>
        <time>2024-02-10T08:53:29Z</time>
      </trkpt>
      <trkpt lat="44.45159" lon="1.48904">
        <ele>471</ele>
        <time>2024-02-10T08:53:31Z</time>
      </trkpt>
      <trkpt lat="44.45158" lon="1.48906">
        <ele>471</ele>
        <time>2024-02-10T08:53:33Z</time>
      </trkpt>
      <trkpt lat="44.45157" lon="1.48907">
        <ele>471.2</ele>
        <time>2024-02-10T08:53:35Z</time>
      </trkpt>
      <trkpt lat="44.45154" lon="1.48907">
        <ele>471.4</ele>
        <time>2024-02-10T08:53:37Z</time>
      </trkpt>
      <trkpt lat="44.45152" lon="1.48907">
        <ele>471.4</ele>
        <time>2024-02-10T08:53:39Z</time>
      </trkpt>
      <trkpt lat="44.45151" lon="1.48907">
        <ele>471.6</ele>
        <time>2024-02-10T08:53:40Z</time>
      </trkpt>
      <trkpt lat="44.4515" lon="1.48908">
        <ele>471.6</ele>
        <time>2024-02-10T08:53:41Z</time>
      </trkpt>
      <trkpt lat="44.45149" lon="1.48908">
        <ele>471.6</ele>
        <time>2024-02-10T08:53:42Z</time>
      </trkpt>
      <trkpt lat="44.45148" lon="1.48908">
        <ele>472</ele>
        <time>2024-02-10T08:53:43Z</time>
      </trkpt>
      <trkpt lat="44.45146" lon="1.48908">
        <ele>472.4</ele>
        <time>2024-02-10T08:53:45Z</time>
      </trkpt>
      <trkpt lat="44.45144" lon="1.48909">
        <ele>472.4</ele>
        <time>2024-02-10T08:53:47Z</time>
      </trkpt>
      <trkpt lat="44.45143" lon="1.48909">
        <ele>472.6</ele>
        <time>2024-02-10T08:53:48Z</time>
      </trkpt>
      <trkpt lat="44.45143" lon="1.48909">
        <ele>472.6</ele>
        <time>2024-02-10T08:53:49Z</time>
      </trkpt>
      <trkpt lat="44.45141" lon="1.4891">
        <ele>472.8</ele>
        <time>2024-02-10T08:53:51Z</time>
      </trkpt>
      <trkpt lat="44.45139" lon="1.4891">
        <ele>473.4</ele>
        <time>2024-02-10T08:53:53Z</time>
      </trkpt>
      <trkpt lat="44.45138" lon="1.4891">
        <ele>473.8</ele>
        <time>2024-02-10T08:53:54Z</time>
      </trkpt>
      <trkpt lat="44.45137" lon="1.4891">
        <ele>474.2</ele>
        <time>2024-02-10T08:53:55Z</time>
      </trkpt>
      <trkpt lat="44.45135" lon="1.48912">
        <ele>474.8</ele>
        <time>2024-02-10T08:53:57Z</time>
      </trkpt>
      <trkpt lat="44.45135" lon="1.48912">
        <ele>475</ele>
        <time>2024-02-10T08:53:58Z</time>
      </trkpt>
      <trkpt lat="44.45134" lon="1.48912">
        <ele>475.2</ele>
        <time>2024-02-10T08:53:59Z</time>
      </trkpt>
      <trkpt lat="44.45132" lon="1.48913">
        <ele>475.4</ele>
        <time>2024-02-10T08:54:01Z</time>
      </trkpt>
      <trkpt lat="44.4513" lon="1.48914">
        <ele>475.6</ele>
        <time>2024-02-10T08:54:03Z</time>
      </trkpt>
      <trkpt lat="44.45128" lon="1.48916">
        <ele>476</ele>
        <time>2024-02-10T08:54:05Z</time>
      </trkpt>
      <trkpt lat="44.45126" lon="1.48917">
        <ele>476.6</ele>
        <time>2024-02-10T08:54:07Z</time>
      </trkpt>
      <trkpt lat="44.45125" lon="1.48917">
        <ele>477</ele>
        <time>2024-02-10T08:54:08Z</time>
      </trkpt>
      <trkpt lat="44.45124" lon="1.48918">
        <ele>477.2</ele>
        <time>2024-02-10T08:54:09Z</time>
      </trkpt>
      <trkpt lat="44.45123" lon="1.48919">
        <ele>477.6</ele>
        <time>2024-02-10T08:54:11Z</time>
      </trkpt>
      <trkpt lat="44.45121" lon="1.48921">
        <ele>478.2</ele>
        <time>2024-02-10T08:54:13Z</time>
      </trkpt>
      <trkpt lat="44.4512" lon="1.48922">
        <ele>478.6</ele>
        <time>2024-02-10T08:54:15Z</time>
      </trkpt>
      <trkpt lat="44.45118" lon="1.48923">
        <ele>479.4</ele>
        <time>2024-02-10T08:54:17Z</time>
      </trkpt>
      <trkpt lat="44.45118" lon="1.48925">
        <ele>479.8</ele>
        <time>2024-02-10T08:54:19Z</time>
      </trkpt>
      <trkpt lat="44.45117" lon="1.48927">
        <ele>480</ele>
        <time>2024-02-10T08:54:21Z</time>
      </trkpt>
      <trkpt lat="44.45116" lon="1.4893">
        <ele>480.2</ele>
        <time>2024-02-10T08:54:23Z</time>
      </trkpt>
      <trkpt lat="44.45115" lon="1.48932">
        <ele>480.4</ele>
        <time>2024-02-10T08:54:24Z</time>
      </trkpt>
      <trkpt lat="44.45114" lon="1.48933">
        <ele>480.8</ele>
        <time>2024-02-10T08:54:25Z</time>
      </trkpt>
      <trkpt lat="44.45113" lon="1.48935">
        <ele>481.6</ele>
        <time>2024-02-10T08:54:27Z</time>
      </trkpt>
      <trkpt lat="44.45112" lon="1.48937">
        <ele>482.6</ele>
        <time>2024-02-10T08:54:29Z</time>
      </trkpt>
      <trkpt lat="44.45111" lon="1.48938">
        <ele>482.8</ele>
        <time>2024-02-10T08:54:30Z</time>
      </trkpt>
      <trkpt lat="44.4511" lon="1.48939">
        <ele>482.8</ele>
        <time>2024-02-10T08:54:31Z</time>
      </trkpt>
      <trkpt lat="44.4511" lon="1.48941">
        <ele>483</ele>
        <time>2024-02-10T08:54:33Z</time>
      </trkpt>
      <trkpt lat="44.45109" lon="1.48943">
        <ele>483</ele>
        <time>2024-02-10T08:54:35Z</time>
      </trkpt>
      <trkpt lat="44.45108" lon="1.48946">
        <ele>483.2</ele>
        <time>2024-02-10T08:54:37Z</time>
      </trkpt>
      <trkpt lat="44.45107" lon="1.48947">
        <ele>483.4</ele>
        <time>2024-02-10T08:54:38Z</time>
      </trkpt>
      <trkpt lat="44.45107" lon="1.48949">
        <ele>483.8</ele>
        <time>2024-02-10T08:54:39Z</time>
      </trkpt>
      <trkpt lat="44.45106" lon="1.48951">
        <ele>484.4</ele>
        <time>2024-02-10T08:54:41Z</time>
      </trkpt>
      <trkpt lat="44.45105" lon="1.48952">
        <ele>484.6</ele>
        <time>2024-02-10T08:54:42Z</time>
      </trkpt>
      <trkpt lat="44.45104" lon="1.48953">
        <ele>484.8</ele>
        <time>2024-02-10T08:54:43Z</time>
      </trkpt>
      <trkpt lat="44.45103" lon="1.48955">
        <ele>484.8</ele>
        <time>2024-02-10T08:54:45Z</time>
      </trkpt>
      <trkpt lat="44.45101" lon="1.48958">
        <ele>484.8</ele>
        <time>2024-02-10T08:54:47Z</time>
      </trkpt>
      <trkpt lat="44.451" lon="1.4896">
        <ele>485</ele>
        <time>2024-02-10T08:54:49Z</time>
      </trkpt>
      <trkpt lat="44.45099" lon="1.48963">
        <ele>485.2</ele>
        <time>2024-02-10T08:54:51Z</time>
      </trkpt>
      <trkpt lat="44.45097" lon="1.48964">
        <ele>485.2</ele>
        <time>2024-02-10T08:54:53Z</time>
      </trkpt>
      <trkpt lat="44.45096" lon="1.48967">
        <ele>485.6</ele>
        <time>2024-02-10T08:54:55Z</time>
      </trkpt>
      <trkpt lat="44.45095" lon="1.48968">
        <ele>486.2</ele>
        <time>2024-02-10T08:54:56Z</time>
      </trkpt>
      <trkpt lat="44.45094" lon="1.48969">
        <ele>486.4</ele>
        <time>2024-02-10T08:54:57Z</time>
      </trkpt>
      <trkpt lat="44.45093" lon="1.48971">
        <ele>487</ele>
        <time>2024-02-10T08:54:59Z</time>
      </trkpt>
      <trkpt lat="44.45091" lon="1.48972">
        <ele>487.2</ele>
        <time>2024-02-10T08:55:00Z</time>
      </trkpt>
      <trkpt lat="44.4509" lon="1.48973">
        <ele>487.4</ele>
        <time>2024-02-10T08:55:01Z</time>
      </trkpt>
      <trkpt lat="44.45088" lon="1.48974">
        <ele>488.2</ele>
        <time>2024-02-10T08:55:03Z</time>
      </trkpt>
      <trkpt lat="44.45087" lon="1.48975">
        <ele>488.6</ele>
        <time>2024-02-10T08:55:04Z</time>
      </trkpt>
      <trkpt lat="44.45086" lon="1.48976">
        <ele>488.8</ele>
        <time>2024-02-10T08:55:05Z</time>
      </trkpt>
      <trkpt lat="44.45084" lon="1.48978">
        <ele>489</ele>
        <time>2024-02-10T08:55:07Z</time>
      </trkpt>
      <trkpt lat="44.45082" lon="1.48979">
        <ele>489.2</ele>
        <time>2024-02-10T08:55:09Z</time>
      </trkpt>
      <trkpt lat="44.45081" lon="1.4898">
        <ele>489.4</ele>
        <time>2024-02-10T08:55:10Z</time>
      </trkpt>
      <trkpt lat="44.4508" lon="1.48981">
        <ele>489.6</ele>
        <time>2024-02-10T08:55:11Z</time>
      </trkpt>
      <trkpt lat="44.45079" lon="1.48981">
        <ele>489.6</ele>
        <time>2024-02-10T08:55:12Z</time>
      </trkpt>
      <trkpt lat="44.45078" lon="1.48982">
        <ele>489.8</ele>
        <time>2024-02-10T08:55:13Z</time>
      </trkpt>
      <trkpt lat="44.45076" lon="1.48984">
        <ele>490</ele>
        <time>2024-02-10T08:55:15Z</time>
      </trkpt>
      <trkpt lat="44.45074" lon="1.48986">
        <ele>490.4</ele>
        <time>2024-02-10T08:55:17Z</time>
      </trkpt>
      <trkpt lat="44.45073" lon="1.48986">
        <ele>490.8</ele>
        <time>2024-02-10T08:55:18Z</time>
      </trkpt>
      <trkpt lat="44.45072" lon="1.48987">
        <ele>491</ele>
        <time>2024-02-10T08:55:19Z</time>
      </trkpt>
      <trkpt lat="44.4507" lon="1.48988">
        <ele>491.6</ele>
        <time>2024-02-10T08:55:21Z</time>
      </trkpt>
      <trkpt lat="44.45069" lon="1.48989">
        <ele>491.8</ele>
        <time>2024-02-10T08:55:22Z</time>
      </trkpt>
      <trkpt lat="44.45068" lon="1.4899">
        <ele>491.8</ele>
        <time>2024-02-10T08:55:23Z</time>
      </trkpt>
      <trkpt lat="44.45066" lon="1.48992">
        <ele>492.2</ele>
        <time>2024-02-10T08:55:25Z</time>
      </trkpt>
      <trkpt lat="44.45065" lon="1.48993">
        <ele>492.4</ele>
        <time>2024-02-10T08:55:26Z</time>
      </trkpt>
      <trkpt lat="44.45064" lon="1.48993">
        <ele>492.6</ele>
        <time>2024-02-10T08:55:27Z</time>
      </trkpt>
      <trkpt lat="44.45063" lon="1.48994">
        <ele>493</ele>
        <time>2024-02-10T08:55:28Z</time>
      </trkpt>
      <trkpt lat="44.45062" lon="1.48995">
        <ele>493.2</ele>
        <time>2024-02-10T08:55:29Z</time>
      </trkpt>
      <trkpt lat="44.4506" lon="1.48997">
        <ele>493.6</ele>
        <time>2024-02-10T08:55:31Z</time>
      </trkpt>
      <trkpt lat="44.45059" lon="1.48998">
        <ele>493.8</ele>
        <time>2024-02-10T08:55:32Z</time>
      </trkpt>
      <trkpt lat="44.45058" lon="1.48998">
        <ele>494.2</ele>
        <time>2024-02-10T08:55:33Z</time>
      </trkpt>
      <trkpt lat="44.45057" lon="1.48999">
        <ele>494.4</ele>
        <time>2024-02-10T08:55:34Z</time>
      </trkpt>
      <trkpt lat="44.45056" lon="1.48999">
        <ele>494.6</ele>
        <time>2024-02-10T08:55:35Z</time>
      </trkpt>
      <trkpt lat="44.45054" lon="1.49">
        <ele>495</ele>
        <time>2024-02-10T08:55:37Z</time>
      </trkpt>
      <trkpt lat="44.45051" lon="1.49002">
        <ele>495.2</ele>
        <time>2024-02-10T08:55:39Z</time>
      </trkpt>
      <trkpt lat="44.4505" lon="1.49002">
        <ele>495.2</ele>
        <time>2024-02-10T08:55:40Z</time>
      </trkpt>
      <trkpt lat="44.45049" lon="1.49003">
        <ele>495.4</ele>
        <time>2024-02-10T08:55:41Z</time>
      </trkpt>
      <trkpt lat="44.45047" lon="1.49005">
        <ele>495.4</ele>
        <time>2024-02-10T08:55:43Z</time>
      </trkpt>
      <trkpt lat="44.45045" lon="1.49006">
        <ele>495.6</ele>
        <time>2024-02-10T08:55:45Z</time>
      </trkpt>
      <trkpt lat="44.45042" lon="1.49008">
        <ele>495.8</ele>
        <time>2024-02-10T08:55:47Z</time>
      </trkpt>
      <trkpt lat="44.4504" lon="1.4901">
        <ele>496.2</ele>
        <time>2024-02-10T08:55:49Z</time>
      </trkpt>
      <trkpt lat="44.45039" lon="1.4901">
        <ele>496.4</ele>
        <time>2024-02-10T08:55:50Z</time>
      </trkpt>
      <trkpt lat="44.45038" lon="1.49011">
        <ele>496.6</ele>
        <time>2024-02-10T08:55:51Z</time>
      </trkpt>
      <trkpt lat="44.45035" lon="1.49013">
        <ele>497.2</ele>
        <time>2024-02-10T08:55:53Z</time>
      </trkpt>
      <trkpt lat="44.45033" lon="1.49014">
        <ele>497.2</ele>
        <time>2024-02-10T08:55:55Z</time>
      </trkpt>
      <trkpt lat="44.45031" lon="1.49015">
        <ele>497.6</ele>
        <time>2024-02-10T08:55:57Z</time>
      </trkpt>
      <trkpt lat="44.45029" lon="1.49016">
        <ele>498.2</ele>
        <time>2024-02-10T08:55:59Z</time>
      </trkpt>
      <trkpt lat="44.45028" lon="1.49016">
        <ele>498.8</ele>
        <time>2024-02-10T08:56:00Z</time>
      </trkpt>
      <trkpt lat="44.45027" lon="1.49017">
        <ele>499</ele>
        <time>2024-02-10T08:56:01Z</time>
      </trkpt>
      <trkpt lat="44.45025" lon="1.49019">
        <ele>499.2</ele>
        <time>2024-02-10T08:56:03Z</time>
      </trkpt>
      <trkpt lat="44.45022" lon="1.49021">
        <ele>499.4</ele>
        <time>2024-02-10T08:56:05Z</time>
      </trkpt>
      <trkpt lat="44.45019" lon="1.49023">
        <ele>499.4</ele>
        <time>2024-02-10T08:56:07Z</time>
      </trkpt>
      <trkpt lat="44.45017" lon="1.49025">
        <ele>499.4</ele>
        <time>2024-02-10T08:56:09Z</time>
      </trkpt>
      <trkpt lat="44.45014" lon="1.49026">
        <ele>499.6</ele>
        <time>2024-02-10T08:56:11Z</time>
      </trkpt>
      <trkpt lat="44.45011" lon="1.49027">
        <ele>499.6</ele>
        <time>2024-02-10T08:56:13Z</time>
      </trkpt>
      <trkpt lat="44.45009" lon="1.49028">
        <ele>499.6</ele>
        <time>2024-02-10T08:56:15Z</time>
      </trkpt>
      <trkpt lat="44.45006" lon="1.49029">
        <ele>499.8</ele>
        <time>2024-02-10T08:56:17Z</time>
      </trkpt>
      <trkpt lat="44.45004" lon="1.49031">
        <ele>500.4</ele>
        <time>2024-02-10T08:56:19Z</time>
      </trkpt>
      <trkpt lat="44.45002" lon="1.49031">
        <ele>500.8</ele>
        <time>2024-02-10T08:56:20Z</time>
      </trkpt>
      <trkpt lat="44.45001" lon="1.49032">
        <ele>501.6</ele>
        <time>2024-02-10T08:56:21Z</time>
      </trkpt>
      <trkpt lat="44.44998" lon="1.49034">
        <ele>501.8</ele>
        <time>2024-02-10T08:56:23Z</time>
      </trkpt>
      <trkpt lat="44.44997" lon="1.49035">
        <ele>502</ele>
        <time>2024-02-10T08:56:24Z</time>
      </trkpt>
      <trkpt lat="44.44996" lon="1.49036">
        <ele>502.2</ele>
        <time>2024-02-10T08:56:25Z</time>
      </trkpt>
      <trkpt lat="44.44993" lon="1.49037">
        <ele>502.8</ele>
        <time>2024-02-10T08:56:27Z</time>
      </trkpt>
      <trkpt lat="44.44992" lon="1.49038">
        <ele>503.2</ele>
        <time>2024-02-10T08:56:28Z</time>
      </trkpt>
      <trkpt lat="44.44991" lon="1.49038">
        <ele>503.4</ele>
        <time>2024-02-10T08:56:29Z</time>
      </trkpt>
      <trkpt lat="44.44989" lon="1.49038">
        <ele>504.2</ele>
        <time>2024-02-10T08:56:31Z</time>
      </trkpt>
      <trkpt lat="44.44988" lon="1.49039">
        <ele>504.6</ele>
        <time>2024-02-10T08:56:32Z</time>
      </trkpt>
      <trkpt lat="44.44987" lon="1.49039">
        <ele>505</ele>
        <time>2024-02-10T08:56:33Z</time>
      </trkpt>
      <trkpt lat="44.44985" lon="1.4904">
        <ele>505.6</ele>
        <time>2024-02-10T08:56:35Z</time>
      </trkpt>
      <trkpt lat="44.44983" lon="1.4904">
        <ele>505.8</ele>
        <time>2024-02-10T08:56:36Z</time>
      </trkpt>
      <trkpt lat="44.44982" lon="1.49041">
        <ele>506</ele>
        <time>2024-02-10T08:56:37Z</time>
      </trkpt>
      <trkpt lat="44.44979" lon="1.49043">
        <ele>506.4</ele>
        <time>2024-02-10T08:56:39Z</time>
      </trkpt>
      <trkpt lat="44.44975" lon="1.49045">
        <ele>506.8</ele>
        <time>2024-02-10T08:56:41Z</time>
      </trkpt>
      <trkpt lat="44.4497" lon="1.49047">
        <ele>507.6</ele>
        <time>2024-02-10T08:56:43Z</time>
      </trkpt>
      <trkpt lat="44.44968" lon="1.49049">
        <ele>507.8</ele>
        <time>2024-02-10T08:56:44Z</time>
      </trkpt>
      <trkpt lat="44.44965" lon="1.4905">
        <ele>508</ele>
        <time>2024-02-10T08:56:45Z</time>
      </trkpt>
      <trkpt lat="44.4496" lon="1.49053">
        <ele>508.2</ele>
        <time>2024-02-10T08:56:47Z</time>
      </trkpt>
      <trkpt lat="44.44956" lon="1.49056">
        <ele>508.8</ele>
        <time>2024-02-10T08:56:49Z</time>
      </trkpt>
      <trkpt lat="44.44954" lon="1.49058">
        <ele>509</ele>
        <time>2024-02-10T08:56:50Z</time>
      </trkpt>
      <trkpt lat="44.44952" lon="1.49059">
        <ele>509.4</ele>
        <time>2024-02-10T08:56:51Z</time>
      </trkpt>
      <trkpt lat="44.44948" lon="1.49063">
        <ele>510</ele>
        <time>2024-02-10T08:56:53Z</time>
      </trkpt>
      <trkpt lat="44.44946" lon="1.49065">
        <ele>510.4</ele>
        <time>2024-02-10T08:56:54Z</time>
      </trkpt>
      <trkpt lat="44.44944" lon="1.49067">
        <ele>510.6</ele>
        <time>2024-02-10T08:56:55Z</time>
      </trkpt>
      <trkpt lat="44.4494" lon="1.4907">
        <ele>511.2</ele>
        <time>2024-02-10T08:56:57Z</time>
      </trkpt>
      <trkpt lat="44.44939" lon="1.49072">
        <ele>511.6</ele>
        <time>2024-02-10T08:56:58Z</time>
      </trkpt>
      <trkpt lat="44.44937" lon="1.49073">
        <ele>512</ele>
        <time>2024-02-10T08:56:59Z</time>
      </trkpt>
      <trkpt lat="44.44934" lon="1.49076">
        <ele>512.8</ele>
        <time>2024-02-10T08:57:01Z</time>
      </trkpt>
      <trkpt lat="44.4493" lon="1.4908">
        <ele>513</ele>
        <time>2024-02-10T08:57:03Z</time>
      </trkpt>
      <trkpt lat="44.44927" lon="1.49083">
        <ele>513.2</ele>
        <time>2024-02-10T08:57:05Z</time>
      </trkpt>
      <trkpt lat="44.44926" lon="1.49085">
        <ele>513.2</ele>
        <time>2024-02-10T08:57:06Z</time>
      </trkpt>
      <trkpt lat="44.44925" lon="1.49086">
        <ele>513.2</ele>
        <time>2024-02-10T08:57:07Z</time>
      </trkpt>
      <trkpt lat="44.44921" lon="1.49089">
        <ele>513.4</ele>
        <time>2024-02-10T08:57:09Z</time>
      </trkpt>
      <trkpt lat="44.44917" lon="1.49093">
        <ele>513.8</ele>
        <time>2024-02-10T08:57:11Z</time>
      </trkpt>
      <trkpt lat="44.44913" lon="1.49098">
        <ele>514.6</ele>
        <time>2024-02-10T08:57:13Z</time>
      </trkpt>
      <trkpt lat="44.44912" lon="1.49101">
        <ele>514.8</ele>
        <time>2024-02-10T08:57:14Z</time>
      </trkpt>
      <trkpt lat="44.4491" lon="1.49103">
        <ele>515</ele>
        <time>2024-02-10T08:57:15Z</time>
      </trkpt>
      <trkpt lat="44.44906" lon="1.49107">
        <ele>515.2</ele>
        <time>2024-02-10T08:57:17Z</time>
      </trkpt>
      <trkpt lat="44.44905" lon="1.49109">
        <ele>515.4</ele>
        <time>2024-02-10T08:57:18Z</time>
      </trkpt>
      <trkpt lat="44.44903" lon="1.49112">
        <ele>515.6</ele>
        <time>2024-02-10T08:57:19Z</time>
      </trkpt>
      <trkpt lat="44.44899" lon="1.49117">
        <ele>516</ele>
        <time>2024-02-10T08:57:21Z</time>
      </trkpt>
      <trkpt lat="44.44896" lon="1.49123">
        <ele>516.2</ele>
        <time>2024-02-10T08:57:23Z</time>
      </trkpt>
      <trkpt lat="44.44894" lon="1.49126">
        <ele>516.4</ele>
        <time>2024-02-10T08:57:24Z</time>
      </trkpt>
      <trkpt lat="44.44892" lon="1.49128">
        <ele>516.6</ele>
        <time>2024-02-10T08:57:25Z</time>
      </trkpt>
      <trkpt lat="44.44888" lon="1.49134">
        <ele>516.8</ele>
        <time>2024-02-10T08:57:27Z</time>
      </trkpt>
      <trkpt lat="44.44886" lon="1.49137">
        <ele>517</ele>
        <time>2024-02-10T08:57:28Z</time>
      </trkpt>
      <trkpt lat="44.44884" lon="1.4914">
        <ele>517.2</ele>
        <time>2024-02-10T08:57:29Z</time>
      </trkpt>
      <trkpt lat="44.4488" lon="1.49146">
        <ele>517.6</ele>
        <time>2024-02-10T08:57:31Z</time>
      </trkpt>
      <trkpt lat="44.44876" lon="1.49151">
        <ele>518</ele>
        <time>2024-02-10T08:57:33Z</time>
      </trkpt>
      <trkpt lat="44.44874" lon="1.49154">
        <ele>518.2</ele>
        <time>2024-02-10T08:57:34Z</time>
      </trkpt>
      <trkpt lat="44.44872" lon="1.49156">
        <ele>518.2</ele>
        <time>2024-02-10T08:57:35Z</time>
      </trkpt>
      <trkpt lat="44.44868" lon="1.49161">
        <ele>518.6</ele>
        <time>2024-02-10T08:57:37Z</time>
      </trkpt>
      <trkpt lat="44.44866" lon="1.49163">
        <ele>518.6</ele>
        <time>2024-02-10T08:57:38Z</time>
      </trkpt>
      <trkpt lat="44.44865" lon="1.49165">
        <ele>519</ele>
        <time>2024-02-10T08:57:39Z</time>
      </trkpt>
      <trkpt lat="44.44861" lon="1.4917">
        <ele>519.4</ele>
        <time>2024-02-10T08:57:41Z</time>
      </trkpt>
      <trkpt lat="44.44857" lon="1.49174">
        <ele>519.8</ele>
        <time>2024-02-10T08:57:43Z</time>
      </trkpt>
      <trkpt lat="44.44854" lon="1.49178">
        <ele>520</ele>
        <time>2024-02-10T08:57:45Z</time>
      </trkpt>
      <trkpt lat="44.44851" lon="1.49182">
        <ele>520.2</ele>
        <time>2024-02-10T08:57:47Z</time>
      </trkpt>
      <trkpt lat="44.44848" lon="1.49185">
        <ele>520.4</ele>
        <time>2024-02-10T08:57:49Z</time>
      </trkpt>
      <trkpt lat="44.44845" lon="1.49188">
        <ele>520.4</ele>
        <time>2024-02-10T08:57:51Z</time>
      </trkpt>
      <trkpt lat="44.44844" lon="1.49189">
        <ele>520.4</ele>
        <time>2024-02-10T08:57:52Z</time>
      </trkpt>
      <trkpt lat="44.44843" lon="1.4919">
        <ele>520.4</ele>
        <time>2024-02-10T08:57:53Z</time>
      </trkpt>
      <trkpt lat="44.4484" lon="1.49192">
        <ele>520.6</ele>
        <time>2024-02-10T08:57:55Z</time>
      </trkpt>
      <trkpt lat="44.44838" lon="1.49194">
        <ele>520.8</ele>
        <time>2024-02-10T08:57:57Z</time>
      </trkpt>
      <trkpt lat="44.44836" lon="1.49196">
        <ele>520.8</ele>
        <time>2024-02-10T08:57:59Z</time>
      </trkpt>
      <trkpt lat="44.44834" lon="1.49198">
        <ele>521</ele>
        <time>2024-02-10T08:58:01Z</time>
      </trkpt>
      <trkpt lat="44.44832" lon="1.49199">
        <ele>521</ele>
        <time>2024-02-10T08:58:03Z</time>
      </trkpt>
      <trkpt lat="44.44831" lon="1.492">
        <ele>521</ele>
        <time>2024-02-10T08:58:05Z</time>
      </trkpt>
      <trkpt lat="44.44829" lon="1.49203">
        <ele>521</ele>
        <time>2024-02-10T08:58:07Z</time>
      </trkpt>
      <trkpt lat="44.44827" lon="1.49205">
        <ele>521.2</ele>
        <time>2024-02-10T08:58:09Z</time>
      </trkpt>
      <trkpt lat="44.44826" lon="1.49205">
        <ele>521.2</ele>
        <time>2024-02-10T08:58:11Z</time>
      </trkpt>
      <trkpt lat="44.44826" lon="1.49206">
        <ele>521.4</ele>
        <time>2024-02-10T08:58:13Z</time>
      </trkpt>
      <trkpt lat="44.44826" lon="1.49206">
        <ele>521.4</ele>
        <time>2024-02-10T08:58:14Z</time>
      </trkpt>
      <trkpt lat="44.44826" lon="1.49206">
        <ele>521.4</ele>
        <time>2024-02-10T08:58:15Z</time>
      </trkpt>
      <trkpt lat="44.44826" lon="1.49206">
        <ele>521.6</ele>
        <time>2024-02-10T08:58:16Z</time>
      </trkpt>
      <trkpt lat="44.44826" lon="1.49206">
        <ele>521.6</ele>
        <time>2024-02-10T08:58:17Z</time>
      </trkpt>
      <trkpt lat="44.44826" lon="1.49206">
        <ele>521.6</ele>
        <time>2024-02-10T08:58:19Z</time>
      </trkpt>
      <trkpt lat="44.44826" lon="1.49206">
        <ele>521.6</ele>
        <time>2024-02-10T08:58:21Z</time>
      </trkpt>
      <trkpt lat="44.44826" lon="1.49206">
        <ele>521.8</ele>
        <time>2024-02-10T08:58:23Z</time>
      </trkpt>
      <trkpt lat="44.44826" lon="1.49206">
        <ele>521.8</ele>
        <time>2024-02-10T08:58:25Z</time>
      </trkpt>
      <trkpt lat="44.44826" lon="1.49206">
        <ele>521.8</ele>
        <time>2024-02-10T08:58:27Z</time>
      </trkpt>
      <trkpt lat="44.44826" lon="1.49206">
        <ele>521.8</ele>
        <time>2024-02-10T08:58:29Z</time>
      </trkpt>
      <trkpt lat="44.44826" lon="1.49206">
        <ele>521.8</ele>
        <time>2024-02-10T08:58:31Z</time>
      </trkpt>
      <trkpt lat="44.44826" lon="1.49206">
        <ele>521.8</ele>
        <time>2024-02-10T08:58:33Z</time>
      </trkpt>
      <trkpt lat="44.44826" lon="1.49206">
        <ele>521.8</ele>
        <time>2024-02-10T08:58:35Z</time>
      </trkpt>
      <trkpt lat="44.44826" lon="1.49206">
        <ele>521.8</ele>
        <time>2024-02-10T08:58:37Z</time>
      </trkpt>
      <trkpt lat="44.44826" lon="1.49206">
        <ele>521.8</ele>
        <time>2024-02-10T08:58:39Z</time>
      </trkpt>
      <trkpt lat="44.44826" lon="1.49206">
        <ele>521.8</ele>
        <time>2024-02-10T08:58:41Z</time>
      </trkpt>
      <trkpt lat="44.44826" lon="1.49206">
        <ele>521.6</ele>
        <time>2024-02-10T08:58:43Z</time>
      </trkpt>
      <trkpt lat="44.44826" lon="1.49206">
        <ele>521.6</ele>
        <time>2024-02-10T08:58:45Z</time>
      </trkpt>
      <trkpt lat="44.44826" lon="1.49206">
        <ele>521.4</ele>
        <time>2024-02-10T08:58:47Z</time>
      </trkpt>
      <trkpt lat="44.44826" lon="1.49206">
        <ele>521.4</ele>
        <time>2024-02-10T08:58:49Z</time>
      </trkpt>
      <trkpt lat="44.44826" lon="1.49206">
        <ele>521.4</ele>
        <time>2024-02-10T08:58:51Z</time>
      </trkpt>
      <trkpt lat="44.44826" lon="1.49206">
        <ele>521.4</ele>
        <time>2024-02-10T08:58:53Z</time>
      </trkpt>
      <trkpt lat="44.44826" lon="1.49206">
        <ele>521.2</ele>
        <time>2024-02-10T08:58:55Z</time>
      </trkpt>
      <trkpt lat="44.44826" lon="1.49206">
        <ele>521.4</ele>
        <time>2024-02-10T08:58:57Z</time>
      </trkpt>
      <trkpt lat="44.44826" lon="1.49206">
        <ele>521.6</ele>
        <time>2024-02-10T08:58:59Z</time>
      </trkpt>
      <trkpt lat="44.44826" lon="1.49206">
        <ele>521.6</ele>
        <time>2024-02-10T08:59:01Z</time>
      </trkpt>
      <trkpt lat="44.44826" lon="1.49206">
        <ele>521.6</ele>
        <time>2024-02-10T08:59:03Z</time>
      </trkpt>
      <trkpt lat="44.44826" lon="1.49206">
        <ele>521.6</ele>
        <time>2024-02-10T08:59:05Z</time>
      </trkpt>
      <trkpt lat="44.44826" lon="1.49206">
        <ele>521.6</ele>
        <time>2024-02-10T08:59:07Z</time>
      </trkpt>
      <trkpt lat="44.44826" lon="1.49206">
        <ele>521.4</ele>
        <time>2024-02-10T08:59:09Z</time>
      </trkpt>
      <trkpt lat="44.44826" lon="1.49206">
        <ele>521.4</ele>
        <time>2024-02-10T08:59:11Z</time>
      </trkpt>
      <trkpt lat="44.44826" lon="1.49206">
        <ele>521.4</ele>
        <time>2024-02-10T08:59:13Z</time>
      </trkpt>
      <trkpt lat="44.44826" lon="1.49206">
        <ele>521.2</ele>
        <time>2024-02-10T08:59:15Z</time>
      </trkpt>
      <trkpt lat="44.44826" lon="1.49206">
        <ele>521</ele>
        <time>2024-02-10T08:59:17Z</time>
      </trkpt>
      <trkpt lat="44.44826" lon="1.49206">
        <ele>521</ele>
        <time>2024-02-10T08:59:19Z</time>
      </trkpt>
      <trkpt lat="44.44826" lon="1.49206">
        <ele>520.8</ele>
        <time>2024-02-10T08:59:21Z</time>
      </trkpt>
      <trkpt lat="44.44826" lon="1.49206">
        <ele>520.8</ele>
        <time>2024-02-10T08:59:23Z</time>
      </trkpt>
      <trkpt lat="44.44826" lon="1.49206">
        <ele>520.8</ele>
        <time>2024-02-10T08:59:25Z</time>
      </trkpt>
      <trkpt lat="44.44826" lon="1.49206">
        <ele>520.8</ele>
        <time>2024-02-10T08:59:27Z</time>
      </trkpt>
      <trkpt lat="44.44826" lon="1.49206">
        <ele>520.6</ele>
        <time>2024-02-10T08:59:29Z</time>
      </trkpt>
      <trkpt lat="44.44826" lon="1.49206">
        <ele>520.6</ele>
        <time>2024-02-10T08:59:31Z</time>
      </trkpt>
      <trkpt lat="44.44826" lon="1.49206">
        <ele>520.8</ele>
        <time>2024-02-10T08:59:33Z</time>
      </trkpt>
      <trkpt lat="44.44826" lon="1.49206">
        <ele>520.8</ele>
        <time>2024-02-10T08:59:35Z</time>
      </trkpt>
      <trkpt lat="44.44826" lon="1.49206">
        <ele>520.8</ele>
        <time>2024-02-10T08:59:37Z</time>
      </trkpt>
      <trkpt lat="44.44826" lon="1.49206">
        <ele>520.8</ele>
        <time>2024-02-10T08:59:39Z</time>
      </trkpt>
      <trkpt lat="44.44826" lon="1.49206">
        <ele>521</ele>
        <time>2024-02-10T08:59:41Z</time>
      </trkpt>
      <trkpt lat="44.44826" lon="1.49206">
        <ele>521.2</ele>
        <time>2024-02-10T08:59:42Z</time>
      </trkpt>
      <trkpt lat="44.44826" lon="1.49206">
        <ele>521.2</ele>
        <time>2024-02-10T08:59:43Z</time>
      </trkpt>
      <trkpt lat="44.44826" lon="1.49206">
        <ele>521.2</ele>
        <time>2024-02-10T08:59:45Z</time>
      </trkpt>
      <trkpt lat="44.44826" lon="1.49206">
        <ele>521.2</ele>
        <time>2024-02-10T08:59:47Z</time>
      </trkpt>
      <trkpt lat="44.44826" lon="1.49206">
        <ele>521.2</ele>
        <time>2024-02-10T08:59:49Z</time>
      </trkpt>
      <trkpt lat="44.44826" lon="1.49205">
        <ele>521.2</ele>
        <time>2024-02-10T08:59:51Z</time>
      </trkpt>
      <trkpt lat="44.44826" lon="1.49205">
        <ele>521.2</ele>
        <time>2024-02-10T08:59:53Z</time>
      </trkpt>
      <trkpt lat="44.44826" lon="1.49204">
        <ele>521.2</ele>
        <time>2024-02-10T08:59:55Z</time>
      </trkpt>
      <trkpt lat="44.44826" lon="1.49204">
        <ele>521.2</ele>
        <time>2024-02-10T08:59:56Z</time>
      </trkpt>
      <trkpt lat="44.44827" lon="1.49204">
        <ele>521.2</ele>
        <time>2024-02-10T08:59:57Z</time>
      </trkpt>
      <trkpt lat="44.44827" lon="1.49204">
        <ele>521.2</ele>
        <time>2024-02-10T08:59:59Z</time>
      </trkpt>
      <trkpt lat="44.44827" lon="1.49204">
        <ele>521.2</ele>
        <time>2024-02-10T09:00:01Z</time>
      </trkpt>
      <trkpt lat="44.44827" lon="1.49204">
        <ele>521.2</ele>
        <time>2024-02-10T09:00:03Z</time>
      </trkpt>
      <trkpt lat="44.44827" lon="1.49204">
        <ele>521.2</ele>
        <time>2024-02-10T09:00:05Z</time>
      </trkpt>
      <trkpt lat="44.44827" lon="1.49204">
        <ele>521.2</ele>
        <time>2024-02-10T09:00:07Z</time>
      </trkpt>
      <trkpt lat="44.44827" lon="1.49204">
        <ele>521.2</ele>
        <time>2024-02-10T09:00:08Z</time>
      </trkpt>
      <trkpt lat="44.44827" lon="1.49204">
        <ele>521.2</ele>
        <time>2024-02-10T09:00:09Z</time>
      </trkpt>
      <trkpt lat="44.44827" lon="1.49204">
        <ele>521.2</ele>
        <time>2024-02-10T09:00:11Z</time>
      </trkpt>
      <trkpt lat="44.44827" lon="1.49204">
        <ele>521.2</ele>
        <time>2024-02-10T09:00:13Z</time>
      </trkpt>
      <trkpt lat="44.44827" lon="1.49204">
        <ele>521</ele>
        <time>2024-02-10T09:00:15Z</time>
      </trkpt>
      <trkpt lat="44.44827" lon="1.49204">
        <ele>521</ele>
        <time>2024-02-10T09:00:17Z</time>
      </trkpt>
      <trkpt lat="44.44827" lon="1.49204">
        <ele>521</ele>
        <time>2024-02-10T09:00:19Z</time>
      </trkpt>
      <trkpt lat="44.44827" lon="1.49204">
        <ele>521</ele>
        <time>2024-02-10T09:00:21Z</time>
      </trkpt>
      <trkpt lat="44.44827" lon="1.49204">
        <ele>521</ele>
        <time>2024-02-10T09:00:23Z</time>
      </trkpt>
      <trkpt lat="44.44827" lon="1.49204">
        <ele>521</ele>
        <time>2024-02-10T09:00:25Z</time>
      </trkpt>
      <trkpt lat="44.44827" lon="1.49204">
        <ele>521</ele>
        <time>2024-02-10T09:00:27Z</time>
      </trkpt>
      <trkpt lat="44.44827" lon="1.49204">
        <ele>521</ele>
        <time>2024-02-10T09:00:29Z</time>
      </trkpt>
      <trkpt lat="44.44827" lon="1.49204">
        <ele>521</ele>
        <time>2024-02-10T09:00:31Z</time>
      </trkpt>
      <trkpt lat="44.44827" lon="1.49204">
        <ele>521</ele>
        <time>2024-02-10T09:00:33Z</time>
      </trkpt>
      <trkpt lat="44.44827" lon="1.49204">
        <ele>521</ele>
        <time>2024-02-10T09:00:35Z</time>
      </trkpt>
      <trkpt lat="44.44827" lon="1.49204">
        <ele>521</ele>
        <time>2024-02-10T09:00:37Z</time>
      </trkpt>
      <trkpt lat="44.44827" lon="1.49204">
        <ele>521</ele>
        <time>2024-02-10T09:00:39Z</time>
      </trkpt>
      <trkpt lat="44.44827" lon="1.49204">
        <ele>520.6</ele>
        <time>2024-02-10T09:00:41Z</time>
      </trkpt>
      <trkpt lat="44.44827" lon="1.49204">
        <ele>520.6</ele>
        <time>2024-02-10T09:00:42Z</time>
      </trkpt>
      <trkpt lat="44.44827" lon="1.49204">
        <ele>520.4</ele>
        <time>2024-02-10T09:00:43Z</time>
      </trkpt>
      <trkpt lat="44.44827" lon="1.49204">
        <ele>520.4</ele>
        <time>2024-02-10T09:00:45Z</time>
      </trkpt>
      <trkpt lat="44.44827" lon="1.49204">
        <ele>520.4</ele>
        <time>2024-02-10T09:00:47Z</time>
      </trkpt>
      <trkpt lat="44.44827" lon="1.49204">
        <ele>520.4</ele>
        <time>2024-02-10T09:00:48Z</time>
      </trkpt>
      <trkpt lat="44.44827" lon="1.49204">
        <ele>520.4</ele>
        <time>2024-02-10T09:00:49Z</time>
      </trkpt>
      <trkpt lat="44.44827" lon="1.49204">
        <ele>520.4</ele>
        <time>2024-02-10T09:00:51Z</time>
      </trkpt>
      <trkpt lat="44.44827" lon="1.49204">
        <ele>520.4</ele>
        <time>2024-02-10T09:00:53Z</time>
      </trkpt>
      <trkpt lat="44.44827" lon="1.49204">
        <ele>520</ele>
        <time>2024-02-10T09:00:55Z</time>
      </trkpt>
      <trkpt lat="44.44827" lon="1.49204">
        <ele>520</ele>
        <time>2024-02-10T09:00:57Z</time>
      </trkpt>
      <trkpt lat="44.44827" lon="1.49204">
        <ele>520</ele>
        <time>2024-02-10T09:00:59Z</time>
      </trkpt>
      <trkpt lat="44.44827" lon="1.49204">
        <ele>520</ele>
        <time>2024-02-10T09:01:01Z</time>
      </trkpt>
      <trkpt lat="44.44827" lon="1.49204">
        <ele>520</ele>
        <time>2024-02-10T09:01:03Z</time>
      </trkpt>
      <trkpt lat="44.44827" lon="1.49204">
        <ele>520</ele>
        <time>2024-02-10T09:01:05Z</time>
      </trkpt>
      <trkpt lat="44.44827" lon="1.49204">
        <ele>520</ele>
        <time>2024-02-10T09:01:07Z</time>
      </trkpt>
      <trkpt lat="44.44827" lon="1.49204">
        <ele>520.4</ele>
        <time>2024-02-10T09:01:09Z</time>
      </trkpt>
      <trkpt lat="44.44827" lon="1.49204">
        <ele>520.4</ele>
        <time>2024-02-10T09:01:11Z</time>
      </trkpt>
      <trkpt lat="44.44827" lon="1.49204">
        <ele>520.4</ele>
        <time>2024-02-10T09:01:13Z</time>
      </trkpt>
      <trkpt lat="44.44827" lon="1.49204">
        <ele>520.4</ele>
        <time>2024-02-10T09:01:15Z</time>
      </trkpt>
      <trkpt lat="44.44827" lon="1.49204">
        <ele>520.4</ele>
        <time>2024-02-10T09:01:17Z</time>
      </trkpt>
      <trkpt lat="44.44827" lon="1.49204">
        <ele>520.4</ele>
        <time>2024-02-10T09:01:19Z</time>
      </trkpt>
      <trkpt lat="44.44827" lon="1.49204">
        <ele>520.4</ele>
        <time>2024-02-10T09:01:21Z</time>
      </trkpt>
      <trkpt lat="44.44827" lon="1.49204">
        <ele>520.4</ele>
        <time>2024-02-10T09:01:23Z</time>
      </trkpt>
      <trkpt lat="44.44827" lon="1.49204">
        <ele>520.4</ele>
        <time>2024-02-10T09:01:25Z</time>
      </trkpt>
      <trkpt lat="44.44827" lon="1.49204">
        <ele>520.4</ele>
        <time>2024-02-10T09:01:27Z</time>
      </trkpt>
      <trkpt lat="44.44827" lon="1.49204">
        <ele>520</ele>
        <time>2024-02-10T09:01:29Z</time>
      </trkpt>
      <trkpt lat="44.44827" lon="1.49204">
        <ele>520</ele>
        <time>2024-02-10T09:01:31Z</time>
      </trkpt>
      <trkpt lat="44.44827" lon="1.49204">
        <ele>520</ele>
        <time>2024-02-10T09:01:33Z</time>
      </trkpt>
      <trkpt lat="44.44827" lon="1.49204">
        <ele>520</ele>
        <time>2024-02-10T09:01:35Z</time>
      </trkpt>
      <trkpt lat="44.44827" lon="1.49204">
        <ele>520.4</ele>
        <time>2024-02-10T09:01:37Z</time>
      </trkpt>
      <trkpt lat="44.44827" lon="1.49204">
        <ele>520.4</ele>
        <time>2024-02-10T09:01:39Z</time>
      </trkpt>
      <trkpt lat="44.44827" lon="1.49204">
        <ele>520.4</ele>
        <time>2024-02-10T09:01:41Z</time>
      </trkpt>
      <trkpt lat="44.44827" lon="1.49204">
        <ele>520.4</ele>
        <time>2024-02-10T09:01:43Z</time>
      </trkpt>
      <trkpt lat="44.44827" lon="1.49204">
        <ele>520.4</ele>
        <time>2024-02-10T09:01:45Z</time>
      </trkpt>
      <trkpt lat="44.44827" lon="1.49204">
        <ele>520.4</ele>
        <time>2024-02-10T09:01:47Z</time>
      </trkpt>
      <trkpt lat="44.44827" lon="1.49204">
        <ele>520</ele>
        <time>2024-02-10T09:01:49Z</time>
      </trkpt>
      <trkpt lat="44.44827" lon="1.49204">
        <ele>520</ele>
        <time>2024-02-10T09:01:51Z</time>
      </trkpt>
      <trkpt lat="44.44827" lon="1.49204">
        <ele>520</ele>
        <time>2024-02-10T09:01:53Z</time>
      </trkpt>
      <trkpt lat="44.44827" lon="1.49204">
        <ele>520</ele>
        <time>2024-02-10T09:01:55Z</time>
      </trkpt>
      <trkpt lat="44.44827" lon="1.49204">
        <ele>520</ele>
        <time>2024-02-10T09:01:57Z</time>
      </trkpt>
      <trkpt lat="44.44827" lon="1.49204">
        <ele>520</ele>
        <time>2024-02-10T09:01:58Z</time>
      </trkpt>
      <trkpt lat="44.44827" lon="1.49204">
        <ele>520</ele>
        <time>2024-02-10T09:01:59Z</time>
      </trkpt>
      <trkpt lat="44.44827" lon="1.49204">
        <ele>520</ele>
        <time>2024-02-10T09:02:01Z</time>
      </trkpt>
      <trkpt lat="44.44827" lon="1.49204">
        <ele>520.2</ele>
        <time>2024-02-10T09:02:03Z</time>
      </trkpt>
      <trkpt lat="44.44827" lon="1.49204">
        <ele>520.2</ele>
        <time>2024-02-10T09:02:05Z</time>
      </trkpt>
      <trkpt lat="44.44827" lon="1.49204">
        <ele>520.2</ele>
        <time>2024-02-10T09:02:07Z</time>
      </trkpt>
      <trkpt lat="44.44827" lon="1.49204">
        <ele>520.4</ele>
        <time>2024-02-10T09:02:09Z</time>
      </trkpt>
      <trkpt lat="44.44827" lon="1.49204">
        <ele>520.4</ele>
        <time>2024-02-10T09:02:11Z</time>
      </trkpt>
      <trkpt lat="44.44827" lon="1.49204">
        <ele>520.4</ele>
        <time>2024-02-10T09:02:13Z</time>
      </trkpt>
      <trkpt lat="44.44827" lon="1.49204">
        <ele>520.4</ele>
        <time>2024-02-10T09:02:15Z</time>
      </trkpt>
      <trkpt lat="44.44827" lon="1.49204">
        <ele>520.4</ele>
        <time>2024-02-10T09:02:17Z</time>
      </trkpt>
      <trkpt lat="44.44827" lon="1.49204">
        <ele>520.4</ele>
        <time>2024-02-10T09:02:19Z</time>
      </trkpt>
      <trkpt lat="44.44827" lon="1.49204">
        <ele>520.4</ele>
        <time>2024-02-10T09:02:21Z</time>
      </trkpt>
      <trkpt lat="44.44827" lon="1.49204">
        <ele>520.2</ele>
        <time>2024-02-10T09:02:23Z</time>
      </trkpt>
      <trkpt lat="44.44827" lon="1.49204">
        <ele>520.2</ele>
        <time>2024-02-10T09:02:25Z</time>
      </trkpt>
      <trkpt lat="44.44827" lon="1.49204">
        <ele>520.2</ele>
        <time>2024-02-10T09:02:27Z</time>
      </trkpt>
      <trkpt lat="44.44827" lon="1.49204">
        <ele>520.2</ele>
        <time>2024-02-10T09:02:29Z</time>
      </trkpt>
      <trkpt lat="44.44827" lon="1.49204">
        <ele>520.2</ele>
        <time>2024-02-10T09:02:31Z</time>
      </trkpt>
      <trkpt lat="44.44827" lon="1.49204">
        <ele>520.2</ele>
        <time>2024-02-10T09:02:33Z</time>
      </trkpt>
      <trkpt lat="44.44827" lon="1.49204">
        <ele>520.2</ele>
        <time>2024-02-10T09:02:35Z</time>
      </trkpt>
      <trkpt lat="44.44827" lon="1.49204">
        <ele>520.2</ele>
        <time>2024-02-10T09:02:37Z</time>
      </trkpt>
      <trkpt lat="44.44827" lon="1.49204">
        <ele>520.2</ele>
        <time>2024-02-10T09:02:39Z</time>
      </trkpt>
      <trkpt lat="44.44827" lon="1.49204">
        <ele>520.2</ele>
        <time>2024-02-10T09:02:41Z</time>
      </trkpt>
      <trkpt lat="44.44827" lon="1.49204">
        <ele>520.2</ele>
        <time>2024-02-10T09:02:43Z</time>
      </trkpt>
      <trkpt lat="44.44827" lon="1.49204">
        <ele>520.2</ele>
        <time>2024-02-10T09:02:45Z</time>
      </trkpt>
      <trkpt lat="44.44827" lon="1.49204">
        <ele>520.2</ele>
        <time>2024-02-10T09:02:47Z</time>
      </trkpt>
      <trkpt lat="44.44827" lon="1.49204">
        <ele>520.2</ele>
        <time>2024-02-10T09:02:49Z</time>
      </trkpt>
      <trkpt lat="44.44827" lon="1.49204">
        <ele>520.2</ele>
        <time>2024-02-10T09:02:51Z</time>
      </trkpt>
      <trkpt lat="44.44827" lon="1.49204">
        <ele>520.2</ele>
        <time>2024-02-10T09:02:53Z</time>
      </trkpt>
      <trkpt lat="44.44827" lon="1.49204">
        <ele>520.2</ele>
        <time>2024-02-10T09:02:55Z</time>
      </trkpt>
      <trkpt lat="44.44827" lon="1.49204">
        <ele>520.2</ele>
        <time>2024-02-10T09:02:57Z</time>
      </trkpt>
      <trkpt lat="44.44827" lon="1.49204">
        <ele>520.2</ele>
        <time>2024-02-10T09:02:59Z</time>
      </trkpt>
      <trkpt lat="44.44827" lon="1.49203">
        <ele>520.2</ele>
        <time>2024-02-10T09:03:01Z</time>
      </trkpt>
      <trkpt lat="44.44827" lon="1.49203">
        <ele>520.2</ele>
        <time>2024-02-10T09:03:03Z</time>
      </trkpt>
      <trkpt lat="44.44827" lon="1.49203">
        <ele>520.2</ele>
        <time>2024-02-10T09:03:05Z</time>
      </trkpt>
      <trkpt lat="44.44827" lon="1.49203">
        <ele>520.2</ele>
        <time>2024-02-10T09:03:07Z</time>
      </trkpt>
      <trkpt lat="44.44827" lon="1.49203">
        <ele>520.2</ele>
        <time>2024-02-10T09:03:09Z</time>
      </trkpt>
      <trkpt lat="44.44827" lon="1.49203">
        <ele>520.2</ele>
        <time>2024-02-10T09:03:11Z</time>
      </trkpt>
      <trkpt lat="44.44827" lon="1.49203">
        <ele>520</ele>
        <time>2024-02-10T09:03:13Z</time>
      </trkpt>
      <trkpt lat="44.44827" lon="1.49203">
        <ele>520</ele>
        <time>2024-02-10T09:03:15Z</time>
      </trkpt>
      <trkpt lat="44.44827" lon="1.49203">
        <ele>519.8</ele>
        <time>2024-02-10T09:03:17Z</time>
      </trkpt>
      <trkpt lat="44.44827" lon="1.49203">
        <ele>519.8</ele>
        <time>2024-02-10T09:03:19Z</time>
      </trkpt>
      <trkpt lat="44.44827" lon="1.49203">
        <ele>519.8</ele>
        <time>2024-02-10T09:03:20Z</time>
      </trkpt>
      <trkpt lat="44.44827" lon="1.49203">
        <ele>519.6</ele>
        <time>2024-02-10T09:03:21Z</time>
      </trkpt>
      <trkpt lat="44.44827" lon="1.49203">
        <ele>519.6</ele>
        <time>2024-02-10T09:03:22Z</time>
      </trkpt>
      <trkpt lat="44.44827" lon="1.49203">
        <ele>519.6</ele>
        <time>2024-02-10T09:03:23Z</time>
      </trkpt>
      <trkpt lat="44.44827" lon="1.49203">
        <ele>519.6</ele>
        <time>2024-02-10T09:03:25Z</time>
      </trkpt>
      <trkpt lat="44.44827" lon="1.49203">
        <ele>519.6</ele>
        <time>2024-02-10T09:03:27Z</time>
      </trkpt>
      <trkpt lat="44.44827" lon="1.49203">
        <ele>519.6</ele>
        <time>2024-02-10T09:03:29Z</time>
      </trkpt>
      <trkpt lat="44.44827" lon="1.49203">
        <ele>519.6</ele>
        <time>2024-02-10T09:03:31Z</time>
      </trkpt>
      <trkpt lat="44.44827" lon="1.49203">
        <ele>519.6</ele>
        <time>2024-02-10T09:03:33Z</time>
      </trkpt>
      <trkpt lat="44.44827" lon="1.49203">
        <ele>519.6</ele>
        <time>2024-02-10T09:03:35Z</time>
      </trkpt>
      <trkpt lat="44.44827" lon="1.49203">
        <ele>519.6</ele>
        <time>2024-02-10T09:03:37Z</time>
      </trkpt>
      <trkpt lat="44.44827" lon="1.49203">
        <ele>519.6</ele>
        <time>2024-02-10T09:03:39Z</time>
      </trkpt>
      <trkpt lat="44.44827" lon="1.49203">
        <ele>519.6</ele>
        <time>2024-02-10T09:03:41Z</time>
      </trkpt>
      <trkpt lat="44.44827" lon="1.49203">
        <ele>519.6</ele>
        <time>2024-02-10T09:03:43Z</time>
      </trkpt>
      <trkpt lat="44.44827" lon="1.49203">
        <ele>519.6</ele>
        <time>2024-02-10T09:03:45Z</time>
      </trkpt>
      <trkpt lat="44.44827" lon="1.49203">
        <ele>519.6</ele>
        <time>2024-02-10T09:03:47Z</time>
      </trkpt>
      <trkpt lat="44.44828" lon="1.49203">
        <ele>519.6</ele>
        <time>2024-02-10T09:03:49Z</time>
      </trkpt>
      <trkpt lat="44.44829" lon="1.49203">
        <ele>519.6</ele>
        <time>2024-02-10T09:03:51Z</time>
      </trkpt>
      <trkpt lat="44.44829" lon="1.49203">
        <ele>519.6</ele>
        <time>2024-02-10T09:03:52Z</time>
      </trkpt>
      <trkpt lat="44.4483" lon="1.49202">
        <ele>519.6</ele>
        <time>2024-02-10T09:03:53Z</time>
      </trkpt>
      <trkpt lat="44.44831" lon="1.49201">
        <ele>519.6</ele>
        <time>2024-02-10T09:03:55Z</time>
      </trkpt>
      <trkpt lat="44.44833" lon="1.49199">
        <ele>519.6</ele>
        <time>2024-02-10T09:03:57Z</time>
      </trkpt>
      <trkpt lat="44.44835" lon="1.492">
        <ele>519.6</ele>
        <time>2024-02-10T09:03:59Z</time>
      </trkpt>
      <trkpt lat="44.44837" lon="1.49206">
        <ele>519.4</ele>
        <time>2024-02-10T09:04:01Z</time>
      </trkpt>
      <trkpt lat="44.44838" lon="1.49212">
        <ele>519.4</ele>
        <time>2024-02-10T09:04:02Z</time>
      </trkpt>
      <trkpt lat="44.44839" lon="1.49217">
        <ele>519.2</ele>
        <time>2024-02-10T09:04:03Z</time>
      </trkpt>
      <trkpt lat="44.44841" lon="1.49227">
        <ele>518.8</ele>
        <time>2024-02-10T09:04:05Z</time>
      </trkpt>
      <trkpt lat="44.44841" lon="1.49232">
        <ele>518.6</ele>
        <time>2024-02-10T09:04:06Z</time>
      </trkpt>
      <trkpt lat="44.4484" lon="1.49237">
        <ele>518.6</ele>
        <time>2024-02-10T09:04:07Z</time>
      </trkpt>
      <trkpt lat="44.44837" lon="1.49245">
        <ele>517.8</ele>
        <time>2024-02-10T09:04:09Z</time>
      </trkpt>
      <trkpt lat="44.44836" lon="1.49249">
        <ele>517.4</ele>
        <time>2024-02-10T09:04:10Z</time>
      </trkpt>
      <trkpt lat="44.44835" lon="1.49252">
        <ele>516.4</ele>
        <time>2024-02-10T09:04:11Z</time>
      </trkpt>
      <trkpt lat="44.44834" lon="1.49255">
        <ele>515.2</ele>
        <time>2024-02-10T09:04:12Z</time>
      </trkpt>
      <trkpt lat="44.44833" lon="1.49258">
        <ele>514.2</ele>
        <time>2024-02-10T09:04:13Z</time>
      </trkpt>
      <trkpt lat="44.44831" lon="1.49261">
        <ele>512.8</ele>
        <time>2024-02-10T09:04:14Z</time>
      </trkpt>
      <trkpt lat="44.44829" lon="1.49264">
        <ele>511.8</ele>
        <time>2024-02-10T09:04:15Z</time>
      </trkpt>
      <trkpt lat="44.44826" lon="1.49272">
        <ele>509.8</ele>
        <time>2024-02-10T09:04:17Z</time>
      </trkpt>
      <trkpt lat="44.44824" lon="1.4928">
        <ele>508.4</ele>
        <time>2024-02-10T09:04:19Z</time>
      </trkpt>
      <trkpt lat="44.44822" lon="1.49287">
        <ele>507</ele>
        <time>2024-02-10T09:04:21Z</time>
      </trkpt>
      <trkpt lat="44.44819" lon="1.49295">
        <ele>505.4</ele>
        <time>2024-02-10T09:04:23Z</time>
      </trkpt>
      <trkpt lat="44.44818" lon="1.49299">
        <ele>504.4</ele>
        <time>2024-02-10T09:04:24Z</time>
      </trkpt>
      <trkpt lat="44.44817" lon="1.49302">
        <ele>503.6</ele>
        <time>2024-02-10T09:04:25Z</time>
      </trkpt>
      <trkpt lat="44.44816" lon="1.49306">
        <ele>502.8</ele>
        <time>2024-02-10T09:04:26Z</time>
      </trkpt>
      <trkpt lat="44.44815" lon="1.4931">
        <ele>502</ele>
        <time>2024-02-10T09:04:27Z</time>
      </trkpt>
      <trkpt lat="44.44814" lon="1.49313">
        <ele>499.8</ele>
        <time>2024-02-10T09:04:28Z</time>
      </trkpt>
      <trkpt lat="44.44813" lon="1.49316">
        <ele>498.8</ele>
        <time>2024-02-10T09:04:29Z</time>
      </trkpt>
      <trkpt lat="44.44811" lon="1.49322">
        <ele>497</ele>
        <time>2024-02-10T09:04:31Z</time>
      </trkpt>
      <trkpt lat="44.4481" lon="1.49328">
        <ele>495.4</ele>
        <time>2024-02-10T09:04:33Z</time>
      </trkpt>
      <trkpt lat="44.44809" lon="1.49332">
        <ele>494.4</ele>
        <time>2024-02-10T09:04:34Z</time>
      </trkpt>
      <trkpt lat="44.44808" lon="1.49336">
        <ele>493.6</ele>
        <time>2024-02-10T09:04:35Z</time>
      </trkpt>
      <trkpt lat="44.44808" lon="1.49339">
        <ele>493</ele>
        <time>2024-02-10T09:04:36Z</time>
      </trkpt>
      <trkpt lat="44.44807" lon="1.49342">
        <ele>492.2</ele>
        <time>2024-02-10T09:04:37Z</time>
      </trkpt>
      <trkpt lat="44.44809" lon="1.49351">
        <ele>491</ele>
        <time>2024-02-10T09:04:39Z</time>
      </trkpt>
      <trkpt lat="44.44813" lon="1.49357">
        <ele>490</ele>
        <time>2024-02-10T09:04:41Z</time>
      </trkpt>
      <trkpt lat="44.44816" lon="1.4936">
        <ele>489</ele>
        <time>2024-02-10T09:04:42Z</time>
      </trkpt>
      <trkpt lat="44.44819" lon="1.49363">
        <ele>488</ele>
        <time>2024-02-10T09:04:43Z</time>
      </trkpt>
      <trkpt lat="44.44823" lon="1.49366">
        <ele>487.4</ele>
        <time>2024-02-10T09:04:44Z</time>
      </trkpt>
      <trkpt lat="44.44826" lon="1.49368">
        <ele>487.2</ele>
        <time>2024-02-10T09:04:45Z</time>
      </trkpt>
      <trkpt lat="44.44833" lon="1.4937">
        <ele>485.6</ele>
        <time>2024-02-10T09:04:47Z</time>
      </trkpt>
      <trkpt lat="44.44836" lon="1.49371">
        <ele>484.4</ele>
        <time>2024-02-10T09:04:48Z</time>
      </trkpt>
      <trkpt lat="44.44839" lon="1.49372">
        <ele>482.6</ele>
        <time>2024-02-10T09:04:49Z</time>
      </trkpt>
      <trkpt lat="44.44843" lon="1.49373">
        <ele>480.2</ele>
        <time>2024-02-10T09:04:50Z</time>
      </trkpt>
      <trkpt lat="44.44847" lon="1.49375">
        <ele>477.4</ele>
        <time>2024-02-10T09:04:51Z</time>
      </trkpt>
      <trkpt lat="44.44852" lon="1.49374">
        <ele>474.8</ele>
        <time>2024-02-10T09:04:52Z</time>
      </trkpt>
      <trkpt lat="44.44857" lon="1.49373">
        <ele>472</ele>
        <time>2024-02-10T09:04:53Z</time>
      </trkpt>
      <trkpt lat="44.44862" lon="1.49369">
        <ele>469.2</ele>
        <time>2024-02-10T09:04:54Z</time>
      </trkpt>
      <trkpt lat="44.44866" lon="1.49365">
        <ele>466.8</ele>
        <time>2024-02-10T09:04:55Z</time>
      </trkpt>
      <trkpt lat="44.44869" lon="1.49362">
        <ele>463.6</ele>
        <time>2024-02-10T09:04:56Z</time>
      </trkpt>
      <trkpt lat="44.44874" lon="1.49359">
        <ele>462.2</ele>
        <time>2024-02-10T09:04:57Z</time>
      </trkpt>
      <trkpt lat="44.44878" lon="1.49358">
        <ele>460.8</ele>
        <time>2024-02-10T09:04:58Z</time>
      </trkpt>
      <trkpt lat="44.44882" lon="1.49357">
        <ele>458.8</ele>
        <time>2024-02-10T09:04:59Z</time>
      </trkpt>
      <trkpt lat="44.44885" lon="1.49357">
        <ele>456.4</ele>
        <time>2024-02-10T09:05:00Z</time>
      </trkpt>
      <trkpt lat="44.44888" lon="1.49356">
        <ele>454</ele>
        <time>2024-02-10T09:05:01Z</time>
      </trkpt>
      <trkpt lat="44.44893" lon="1.49355">
        <ele>452.4</ele>
        <time>2024-02-10T09:05:02Z</time>
      </trkpt>
      <trkpt lat="44.44896" lon="1.49355">
        <ele>451.4</ele>
        <time>2024-02-10T09:05:03Z</time>
      </trkpt>
      <trkpt lat="44.44904" lon="1.49353">
        <ele>450.8</ele>
        <time>2024-02-10T09:05:04Z</time>
      </trkpt>
      <trkpt lat="44.44912" lon="1.49351">
        <ele>450.4</ele>
        <time>2024-02-10T09:05:05Z</time>
      </trkpt>
      <trkpt lat="44.44919" lon="1.49352">
        <ele>449</ele>
        <time>2024-02-10T09:05:06Z</time>
      </trkpt>
      <trkpt lat="44.44926" lon="1.49353">
        <ele>447.6</ele>
        <time>2024-02-10T09:05:07Z</time>
      </trkpt>
      <trkpt lat="44.44943" lon="1.49355">
        <ele>446.4</ele>
        <time>2024-02-10T09:05:09Z</time>
      </trkpt>
      <trkpt lat="44.44963" lon="1.49362">
        <ele>444.2</ele>
        <time>2024-02-10T09:05:11Z</time>
      </trkpt>
      <trkpt lat="44.4497" lon="1.49366">
        <ele>442.4</ele>
        <time>2024-02-10T09:05:12Z</time>
      </trkpt>
      <trkpt lat="44.44976" lon="1.49369">
        <ele>440</ele>
        <time>2024-02-10T09:05:13Z</time>
      </trkpt>
      <trkpt lat="44.44982" lon="1.4937">
        <ele>437.2</ele>
        <time>2024-02-10T09:05:14Z</time>
      </trkpt>
      <trkpt lat="44.44986" lon="1.4937">
        <ele>435.2</ele>
        <time>2024-02-10T09:05:15Z</time>
      </trkpt>
      <trkpt lat="44.44987" lon="1.4937">
        <ele>433.8</ele>
        <time>2024-02-10T09:05:16Z</time>
      </trkpt>
      <trkpt lat="44.44988" lon="1.49371">
        <ele>433</ele>
        <time>2024-02-10T09:05:17Z</time>
      </trkpt>
      <trkpt lat="44.44989" lon="1.49371">
        <ele>432.6</ele>
        <time>2024-02-10T09:05:18Z</time>
      </trkpt>
      <trkpt lat="44.44989" lon="1.49371">
        <ele>432.4</ele>
        <time>2024-02-10T09:05:19Z</time>
      </trkpt>
      <trkpt lat="44.44991" lon="1.49372">
        <ele>432.2</ele>
        <time>2024-02-10T09:05:21Z</time>
      </trkpt>
      <trkpt lat="44.44991" lon="1.49373">
        <ele>432.2</ele>
        <time>2024-02-10T09:05:23Z</time>
      </trkpt>
      <trkpt lat="44.44991" lon="1.49374">
        <ele>432.2</ele>
        <time>2024-02-10T09:05:25Z</time>
      </trkpt>
      <trkpt lat="44.44991" lon="1.49374">
        <ele>432.4</ele>
        <time>2024-02-10T09:05:27Z</time>
      </trkpt>
      <trkpt lat="44.4499" lon="1.49374">
        <ele>432.4</ele>
        <time>2024-02-10T09:05:29Z</time>
      </trkpt>
      <trkpt lat="44.44987" lon="1.49374">
        <ele>432.4</ele>
        <time>2024-02-10T09:05:31Z</time>
      </trkpt>
      <trkpt lat="44.44983" lon="1.49373">
        <ele>432.4</ele>
        <time>2024-02-10T09:05:33Z</time>
      </trkpt>
      <trkpt lat="44.44982" lon="1.49373">
        <ele>432.4</ele>
        <time>2024-02-10T09:05:34Z</time>
      </trkpt>
      <trkpt lat="44.4498" lon="1.49373">
        <ele>432.4</ele>
        <time>2024-02-10T09:05:35Z</time>
      </trkpt>
      <trkpt lat="44.44978" lon="1.49374">
        <ele>432.2</ele>
        <time>2024-02-10T09:05:37Z</time>
      </trkpt>
      <trkpt lat="44.44977" lon="1.49374">
        <ele>431.6</ele>
        <time>2024-02-10T09:05:39Z</time>
      </trkpt>
      <trkpt lat="44.44977" lon="1.49373">
        <ele>431.4</ele>
        <time>2024-02-10T09:05:40Z</time>
      </trkpt>
      <trkpt lat="44.44977" lon="1.49373">
        <ele>430.8</ele>
        <time>2024-02-10T09:05:41Z</time>
      </trkpt>
      <trkpt lat="44.44977" lon="1.49374">
        <ele>430.6</ele>
        <time>2024-02-10T09:05:43Z</time>
      </trkpt>
      <trkpt lat="44.44977" lon="1.49374">
        <ele>430.4</ele>
        <time>2024-02-10T09:05:45Z</time>
      </trkpt>
      <trkpt lat="44.44977" lon="1.49374">
        <ele>430.4</ele>
        <time>2024-02-10T09:05:47Z</time>
      </trkpt>
      <trkpt lat="44.44977" lon="1.49374">
        <ele>430.4</ele>
        <time>2024-02-10T09:05:49Z</time>
      </trkpt>
      <trkpt lat="44.44977" lon="1.49374">
        <ele>430.4</ele>
        <time>2024-02-10T09:05:51Z</time>
      </trkpt>
      <trkpt lat="44.44977" lon="1.49374">
        <ele>430.4</ele>
        <time>2024-02-10T09:05:53Z</time>
      </trkpt>
      <trkpt lat="44.44977" lon="1.49374">
        <ele>430.4</ele>
        <time>2024-02-10T09:05:55Z</time>
      </trkpt>
      <trkpt lat="44.44976" lon="1.49374">
        <ele>430.4</ele>
        <time>2024-02-10T09:05:57Z</time>
      </trkpt>
      <trkpt lat="44.44976" lon="1.49374">
        <ele>430.4</ele>
        <time>2024-02-10T09:05:59Z</time>
      </trkpt>
      <trkpt lat="44.44976" lon="1.49374">
        <ele>430.4</ele>
        <time>2024-02-10T09:06:01Z</time>
      </trkpt>
      <trkpt lat="44.44976" lon="1.49374">
        <ele>430.4</ele>
        <time>2024-02-10T09:06:03Z</time>
      </trkpt>
      <trkpt lat="44.44977" lon="1.49374">
        <ele>430.4</ele>
        <time>2024-02-10T09:06:04Z</time>
      </trkpt>
      <trkpt lat="44.44977" lon="1.49374">
        <ele>430.4</ele>
        <time>2024-02-10T09:06:05Z</time>
      </trkpt>
      <trkpt lat="44.44976" lon="1.49374">
        <ele>430.2</ele>
        <time>2024-02-10T09:06:07Z</time>
      </trkpt>
      <trkpt lat="44.44976" lon="1.49374">
        <ele>430.2</ele>
        <time>2024-02-10T09:06:09Z</time>
      </trkpt>
      <trkpt lat="44.44976" lon="1.49374">
        <ele>429.8</ele>
        <time>2024-02-10T09:06:11Z</time>
      </trkpt>
      <trkpt lat="44.44976" lon="1.49374">
        <ele>429.8</ele>
        <time>2024-02-10T09:06:13Z</time>
      </trkpt>
      <trkpt lat="44.44976" lon="1.49374">
        <ele>429.8</ele>
        <time>2024-02-10T09:06:15Z</time>
      </trkpt>
      <trkpt lat="44.44976" lon="1.49376">
        <ele>429.8</ele>
        <time>2024-02-10T09:06:17Z</time>
      </trkpt>
      <trkpt lat="44.44977" lon="1.4938">
        <ele>429.8</ele>
        <time>2024-02-10T09:06:19Z</time>
      </trkpt>
      <trkpt lat="44.44978" lon="1.49383">
        <ele>429.8</ele>
        <time>2024-02-10T09:06:21Z</time>
      </trkpt>
      <trkpt lat="44.44978" lon="1.49386">
        <ele>429.8</ele>
        <time>2024-02-10T09:06:23Z</time>
      </trkpt>
      <trkpt lat="44.44979" lon="1.49389">
        <ele>429.8</ele>
        <time>2024-02-10T09:06:25Z</time>
      </trkpt>
      <trkpt lat="44.44979" lon="1.4939">
        <ele>430.2</ele>
        <time>2024-02-10T09:06:26Z</time>
      </trkpt>
      <trkpt lat="44.4498" lon="1.49391">
        <ele>430.6</ele>
        <time>2024-02-10T09:06:27Z</time>
      </trkpt>
      <trkpt lat="44.4498" lon="1.49393">
        <ele>431</ele>
        <time>2024-02-10T09:06:28Z</time>
      </trkpt>
      <trkpt lat="44.4498" lon="1.49395">
        <ele>431.6</ele>
        <time>2024-02-10T09:06:29Z</time>
      </trkpt>
      <trkpt lat="44.4498" lon="1.49396">
        <ele>432</ele>
        <time>2024-02-10T09:06:30Z</time>
      </trkpt>
      <trkpt lat="44.4498" lon="1.49399">
        <ele>432.4</ele>
        <time>2024-02-10T09:06:31Z</time>
      </trkpt>
      <trkpt lat="44.4498" lon="1.49402">
        <ele>432.6</ele>
        <time>2024-02-10T09:06:33Z</time>
      </trkpt>
      <trkpt lat="44.4498" lon="1.49407">
        <ele>432.8</ele>
        <time>2024-02-10T09:06:35Z</time>
      </trkpt>
      <trkpt lat="44.44979" lon="1.49409">
        <ele>433</ele>
        <time>2024-02-10T09:06:36Z</time>
      </trkpt>
      <trkpt lat="44.44979" lon="1.49411">
        <ele>433</ele>
        <time>2024-02-10T09:06:37Z</time>
      </trkpt>
      <trkpt lat="44.44979" lon="1.49415">
        <ele>433.2</ele>
        <time>2024-02-10T09:06:39Z</time>
      </trkpt>
      <trkpt lat="44.44978" lon="1.49418">
        <ele>433.4</ele>
        <time>2024-02-10T09:06:41Z</time>
      </trkpt>
      <trkpt lat="44.44978" lon="1.49422">
        <ele>433.4</ele>
        <time>2024-02-10T09:06:43Z</time>
      </trkpt>
      <trkpt lat="44.44976" lon="1.49426">
        <ele>433.8</ele>
        <time>2024-02-10T09:06:45Z</time>
      </trkpt>
      <trkpt lat="44.44976" lon="1.49428">
        <ele>434</ele>
        <time>2024-02-10T09:06:46Z</time>
      </trkpt>
      <trkpt lat="44.44976" lon="1.49429">
        <ele>434.2</ele>
        <time>2024-02-10T09:06:47Z</time>
      </trkpt>
      <trkpt lat="44.44975" lon="1.49432">
        <ele>434.6</ele>
        <time>2024-02-10T09:06:49Z</time>
      </trkpt>
      <trkpt lat="44.44974" lon="1.49433">
        <ele>434.8</ele>
        <time>2024-02-10T09:06:50Z</time>
      </trkpt>
      <trkpt lat="44.44974" lon="1.49435">
        <ele>435</ele>
        <time>2024-02-10T09:06:51Z</time>
      </trkpt>
      <trkpt lat="44.44973" lon="1.49438">
        <ele>435.4</ele>
        <time>2024-02-10T09:06:53Z</time>
      </trkpt>
      <trkpt lat="44.44973" lon="1.49441">
        <ele>435.8</ele>
        <time>2024-02-10T09:06:55Z</time>
      </trkpt>
      <trkpt lat="44.44972" lon="1.49445">
        <ele>436.6</ele>
        <time>2024-02-10T09:06:57Z</time>
      </trkpt>
      <trkpt lat="44.44971" lon="1.49446">
        <ele>437</ele>
        <time>2024-02-10T09:06:58Z</time>
      </trkpt>
      <trkpt lat="44.4497" lon="1.49447">
        <ele>437.6</ele>
        <time>2024-02-10T09:06:59Z</time>
      </trkpt>
      <trkpt lat="44.4497" lon="1.49449">
        <ele>438</ele>
        <time>2024-02-10T09:07:00Z</time>
      </trkpt>
      <trkpt lat="44.44969" lon="1.4945">
        <ele>438.4</ele>
        <time>2024-02-10T09:07:01Z</time>
      </trkpt>
      <trkpt lat="44.44968" lon="1.49453">
        <ele>439.2</ele>
        <time>2024-02-10T09:07:03Z</time>
      </trkpt>
      <trkpt lat="44.44967" lon="1.49456">
        <ele>439.8</ele>
        <time>2024-02-10T09:07:05Z</time>
      </trkpt>
      <trkpt lat="44.44966" lon="1.49459">
        <ele>440</ele>
        <time>2024-02-10T09:07:07Z</time>
      </trkpt>
      <trkpt lat="44.44965" lon="1.4946">
        <ele>440.4</ele>
        <time>2024-02-10T09:07:08Z</time>
      </trkpt>
      <trkpt lat="44.44965" lon="1.49461">
        <ele>440.6</ele>
        <time>2024-02-10T09:07:09Z</time>
      </trkpt>
      <trkpt lat="44.44963" lon="1.49462">
        <ele>441</ele>
        <time>2024-02-10T09:07:11Z</time>
      </trkpt>
      <trkpt lat="44.44962" lon="1.49464">
        <ele>441.2</ele>
        <time>2024-02-10T09:07:12Z</time>
      </trkpt>
      <trkpt lat="44.44962" lon="1.49465">
        <ele>441.6</ele>
        <time>2024-02-10T09:07:13Z</time>
      </trkpt>
      <trkpt lat="44.44961" lon="1.49467">
        <ele>442.2</ele>
        <time>2024-02-10T09:07:15Z</time>
      </trkpt>
      <trkpt lat="44.4496" lon="1.49468">
        <ele>442.4</ele>
        <time>2024-02-10T09:07:16Z</time>
      </trkpt>
      <trkpt lat="44.44959" lon="1.49469">
        <ele>442.8</ele>
        <time>2024-02-10T09:07:17Z</time>
      </trkpt>
      <trkpt lat="44.44958" lon="1.49471">
        <ele>443.2</ele>
        <time>2024-02-10T09:07:19Z</time>
      </trkpt>
      <trkpt lat="44.44957" lon="1.49473">
        <ele>443.6</ele>
        <time>2024-02-10T09:07:21Z</time>
      </trkpt>
      <trkpt lat="44.44956" lon="1.49475">
        <ele>444.2</ele>
        <time>2024-02-10T09:07:23Z</time>
      </trkpt>
      <trkpt lat="44.44955" lon="1.49476">
        <ele>444.4</ele>
        <time>2024-02-10T09:07:24Z</time>
      </trkpt>
      <trkpt lat="44.44954" lon="1.49477">
        <ele>444.6</ele>
        <time>2024-02-10T09:07:25Z</time>
      </trkpt>
      <trkpt lat="44.44953" lon="1.49478">
        <ele>444.8</ele>
        <time>2024-02-10T09:07:26Z</time>
      </trkpt>
      <trkpt lat="44.44952" lon="1.49479">
        <ele>445</ele>
        <time>2024-02-10T09:07:27Z</time>
      </trkpt>
      <trkpt lat="44.4495" lon="1.49481">
        <ele>445.2</ele>
        <time>2024-02-10T09:07:29Z</time>
      </trkpt>
      <trkpt lat="44.44949" lon="1.49483">
        <ele>445.4</ele>
        <time>2024-02-10T09:07:31Z</time>
      </trkpt>
      <trkpt lat="44.44948" lon="1.49485">
        <ele>445.8</ele>
        <time>2024-02-10T09:07:33Z</time>
      </trkpt>
      <trkpt lat="44.44947" lon="1.49486">
        <ele>446</ele>
        <time>2024-02-10T09:07:34Z</time>
      </trkpt>
      <trkpt lat="44.44946" lon="1.49487">
        <ele>446.4</ele>
        <time>2024-02-10T09:07:35Z</time>
      </trkpt>
      <trkpt lat="44.44944" lon="1.49488">
        <ele>447</ele>
        <time>2024-02-10T09:07:37Z</time>
      </trkpt>
      <trkpt lat="44.44944" lon="1.49489">
        <ele>447.4</ele>
        <time>2024-02-10T09:07:38Z</time>
      </trkpt>
      <trkpt lat="44.44943" lon="1.49489">
        <ele>447.6</ele>
        <time>2024-02-10T09:07:39Z</time>
      </trkpt>
      <trkpt lat="44.44942" lon="1.49491">
        <ele>448.2</ele>
        <time>2024-02-10T09:07:41Z</time>
      </trkpt>
      <trkpt lat="44.44941" lon="1.49492">
        <ele>448.4</ele>
        <time>2024-02-10T09:07:42Z</time>
      </trkpt>
      <trkpt lat="44.4494" lon="1.49494">
        <ele>448.4</ele>
        <time>2024-02-10T09:07:43Z</time>
      </trkpt>
      <trkpt lat="44.44938" lon="1.49496">
        <ele>448.8</ele>
        <time>2024-02-10T09:07:45Z</time>
      </trkpt>
      <trkpt lat="44.44937" lon="1.49498">
        <ele>449.4</ele>
        <time>2024-02-10T09:07:47Z</time>
      </trkpt>
      <trkpt lat="44.44936" lon="1.49499">
        <ele>449.6</ele>
        <time>2024-02-10T09:07:48Z</time>
      </trkpt>
      <trkpt lat="44.44936" lon="1.495">
        <ele>450</ele>
        <time>2024-02-10T09:07:49Z</time>
      </trkpt>
      <trkpt lat="44.44936" lon="1.49502">
        <ele>450.6</ele>
        <time>2024-02-10T09:07:51Z</time>
      </trkpt>
      <trkpt lat="44.44935" lon="1.49503">
        <ele>450.8</ele>
        <time>2024-02-10T09:07:52Z</time>
      </trkpt>
      <trkpt lat="44.44935" lon="1.49504">
        <ele>451.2</ele>
        <time>2024-02-10T09:07:53Z</time>
      </trkpt>
      <trkpt lat="44.44935" lon="1.49505">
        <ele>451.6</ele>
        <time>2024-02-10T09:07:55Z</time>
      </trkpt>
      <trkpt lat="44.44934" lon="1.49507">
        <ele>452</ele>
        <time>2024-02-10T09:07:57Z</time>
      </trkpt>
      <trkpt lat="44.44934" lon="1.49509">
        <ele>452.4</ele>
        <time>2024-02-10T09:07:59Z</time>
      </trkpt>
      <trkpt lat="44.44933" lon="1.49513">
        <ele>452.6</ele>
        <time>2024-02-10T09:08:01Z</time>
      </trkpt>
      <trkpt lat="44.44931" lon="1.49515">
        <ele>452.8</ele>
        <time>2024-02-10T09:08:03Z</time>
      </trkpt>
      <trkpt lat="44.44931" lon="1.49516">
        <ele>452.8</ele>
        <time>2024-02-10T09:08:04Z</time>
      </trkpt>
      <trkpt lat="44.4493" lon="1.49517">
        <ele>453</ele>
        <time>2024-02-10T09:08:05Z</time>
      </trkpt>
      <trkpt lat="44.44928" lon="1.4952">
        <ele>453.4</ele>
        <time>2024-02-10T09:08:07Z</time>
      </trkpt>
      <trkpt lat="44.44927" lon="1.49521">
        <ele>454</ele>
        <time>2024-02-10T09:08:09Z</time>
      </trkpt>
      <trkpt lat="44.44925" lon="1.49523">
        <ele>454.8</ele>
        <time>2024-02-10T09:08:11Z</time>
      </trkpt>
      <trkpt lat="44.44924" lon="1.49524">
        <ele>455.2</ele>
        <time>2024-02-10T09:08:12Z</time>
      </trkpt>
      <trkpt lat="44.44923" lon="1.49524">
        <ele>455.6</ele>
        <time>2024-02-10T09:08:13Z</time>
      </trkpt>
      <trkpt lat="44.4492" lon="1.49525">
        <ele>456</ele>
        <time>2024-02-10T09:08:15Z</time>
      </trkpt>
      <trkpt lat="44.44918" lon="1.49526">
        <ele>456.2</ele>
        <time>2024-02-10T09:08:17Z</time>
      </trkpt>
      <trkpt lat="44.44916" lon="1.49527">
        <ele>457</ele>
        <time>2024-02-10T09:08:19Z</time>
      </trkpt>
      <trkpt lat="44.44914" lon="1.49528">
        <ele>457.4</ele>
        <time>2024-02-10T09:08:20Z</time>
      </trkpt>
      <trkpt lat="44.44913" lon="1.49528">
        <ele>457.6</ele>
        <time>2024-02-10T09:08:21Z</time>
      </trkpt>
      <trkpt lat="44.44911" lon="1.4953">
        <ele>457.8</ele>
        <time>2024-02-10T09:08:23Z</time>
      </trkpt>
      <trkpt lat="44.44908" lon="1.4953">
        <ele>458</ele>
        <time>2024-02-10T09:08:25Z</time>
      </trkpt>
      <trkpt lat="44.44906" lon="1.49531">
        <ele>458.4</ele>
        <time>2024-02-10T09:08:27Z</time>
      </trkpt>
      <trkpt lat="44.44905" lon="1.49532">
        <ele>458.4</ele>
        <time>2024-02-10T09:08:28Z</time>
      </trkpt>
      <trkpt lat="44.44904" lon="1.49532">
        <ele>458.8</ele>
        <time>2024-02-10T09:08:29Z</time>
      </trkpt>
      <trkpt lat="44.44902" lon="1.49533">
        <ele>459</ele>
        <time>2024-02-10T09:08:31Z</time>
      </trkpt>
      <trkpt lat="44.44902" lon="1.49534">
        <ele>459.2</ele>
        <time>2024-02-10T09:08:32Z</time>
      </trkpt>
      <trkpt lat="44.44901" lon="1.49535">
        <ele>459.4</ele>
        <time>2024-02-10T09:08:33Z</time>
      </trkpt>
      <trkpt lat="44.449" lon="1.49536">
        <ele>459.6</ele>
        <time>2024-02-10T09:08:34Z</time>
      </trkpt>
      <trkpt lat="44.449" lon="1.49537">
        <ele>459.8</ele>
        <time>2024-02-10T09:08:35Z</time>
      </trkpt>
      <trkpt lat="44.44899" lon="1.49539">
        <ele>460.2</ele>
        <time>2024-02-10T09:08:37Z</time>
      </trkpt>
      <trkpt lat="44.44898" lon="1.49542">
        <ele>460.8</ele>
        <time>2024-02-10T09:08:39Z</time>
      </trkpt>
      <trkpt lat="44.44898" lon="1.49545">
        <ele>461.2</ele>
        <time>2024-02-10T09:08:41Z</time>
      </trkpt>
      <trkpt lat="44.44897" lon="1.49547">
        <ele>461.8</ele>
        <time>2024-02-10T09:08:43Z</time>
      </trkpt>
      <trkpt lat="44.44896" lon="1.49548">
        <ele>462</ele>
        <time>2024-02-10T09:08:44Z</time>
      </trkpt>
      <trkpt lat="44.44896" lon="1.49549">
        <ele>462.2</ele>
        <time>2024-02-10T09:08:45Z</time>
      </trkpt>
      <trkpt lat="44.44896" lon="1.49552">
        <ele>462.8</ele>
        <time>2024-02-10T09:08:47Z</time>
      </trkpt>
      <trkpt lat="44.44896" lon="1.49553">
        <ele>463</ele>
        <time>2024-02-10T09:08:48Z</time>
      </trkpt>
      <trkpt lat="44.44896" lon="1.49554">
        <ele>463</ele>
        <time>2024-02-10T09:08:49Z</time>
      </trkpt>
      <trkpt lat="44.44895" lon="1.49556">
        <ele>463.6</ele>
        <time>2024-02-10T09:08:51Z</time>
      </trkpt>
      <trkpt lat="44.44895" lon="1.49557">
        <ele>463.8</ele>
        <time>2024-02-10T09:08:52Z</time>
      </trkpt>
      <trkpt lat="44.44895" lon="1.49558">
        <ele>464.2</ele>
        <time>2024-02-10T09:08:53Z</time>
      </trkpt>
      <trkpt lat="44.44895" lon="1.49559">
        <ele>464.4</ele>
        <time>2024-02-10T09:08:54Z</time>
      </trkpt>
      <trkpt lat="44.44895" lon="1.49561">
        <ele>464.8</ele>
        <time>2024-02-10T09:08:55Z</time>
      </trkpt>
      <trkpt lat="44.44894" lon="1.49563">
        <ele>465.6</ele>
        <time>2024-02-10T09:08:57Z</time>
      </trkpt>
      <trkpt lat="44.44894" lon="1.49564">
        <ele>466</ele>
        <time>2024-02-10T09:08:58Z</time>
      </trkpt>
      <trkpt lat="44.44894" lon="1.49565">
        <ele>466.4</ele>
        <time>2024-02-10T09:08:59Z</time>
      </trkpt>
      <trkpt lat="44.44893" lon="1.49568">
        <ele>467</ele>
        <time>2024-02-10T09:09:01Z</time>
      </trkpt>
      <trkpt lat="44.44893" lon="1.49569">
        <ele>467.2</ele>
        <time>2024-02-10T09:09:02Z</time>
      </trkpt>
      <trkpt lat="44.44892" lon="1.4957">
        <ele>467.4</ele>
        <time>2024-02-10T09:09:03Z</time>
      </trkpt>
      <trkpt lat="44.44891" lon="1.49572">
        <ele>467.8</ele>
        <time>2024-02-10T09:09:05Z</time>
      </trkpt>
      <trkpt lat="44.4489" lon="1.49573">
        <ele>468.4</ele>
        <time>2024-02-10T09:09:07Z</time>
      </trkpt>
      <trkpt lat="44.44889" lon="1.49574">
        <ele>469</ele>
        <time>2024-02-10T09:09:09Z</time>
      </trkpt>
      <trkpt lat="44.44888" lon="1.49576">
        <ele>469.6</ele>
        <time>2024-02-10T09:09:11Z</time>
      </trkpt>
      <trkpt lat="44.44888" lon="1.49577">
        <ele>469.8</ele>
        <time>2024-02-10T09:09:13Z</time>
      </trkpt>
      <trkpt lat="44.44887" lon="1.49577">
        <ele>469.8</ele>
        <time>2024-02-10T09:09:15Z</time>
      </trkpt>
      <trkpt lat="44.44885" lon="1.49579">
        <ele>470.2</ele>
        <time>2024-02-10T09:09:17Z</time>
      </trkpt>
      <trkpt lat="44.44884" lon="1.49581">
        <ele>470.6</ele>
        <time>2024-02-10T09:09:19Z</time>
      </trkpt>
      <trkpt lat="44.44883" lon="1.49583">
        <ele>471</ele>
        <time>2024-02-10T09:09:21Z</time>
      </trkpt>
      <trkpt lat="44.44882" lon="1.49584">
        <ele>471.2</ele>
        <time>2024-02-10T09:09:23Z</time>
      </trkpt>
      <trkpt lat="44.44881" lon="1.49585">
        <ele>471.4</ele>
        <time>2024-02-10T09:09:25Z</time>
      </trkpt>
      <trkpt lat="44.44879" lon="1.49586">
        <ele>471.8</ele>
        <time>2024-02-10T09:09:27Z</time>
      </trkpt>
      <trkpt lat="44.44879" lon="1.49589">
        <ele>472</ele>
        <time>2024-02-10T09:09:29Z</time>
      </trkpt>
      <trkpt lat="44.4488" lon="1.49591">
        <ele>472.2</ele>
        <time>2024-02-10T09:09:31Z</time>
      </trkpt>
      <trkpt lat="44.44882" lon="1.49592">
        <ele>472.4</ele>
        <time>2024-02-10T09:09:33Z</time>
      </trkpt>
      <trkpt lat="44.44883" lon="1.49592">
        <ele>472.6</ele>
        <time>2024-02-10T09:09:34Z</time>
      </trkpt>
      <trkpt lat="44.44885" lon="1.49593">
        <ele>472.6</ele>
        <time>2024-02-10T09:09:35Z</time>
      </trkpt>
      <trkpt lat="44.44886" lon="1.49594">
        <ele>473</ele>
        <time>2024-02-10T09:09:37Z</time>
      </trkpt>
      <trkpt lat="44.44888" lon="1.49595">
        <ele>474</ele>
        <time>2024-02-10T09:09:39Z</time>
      </trkpt>
      <trkpt lat="44.4489" lon="1.49596">
        <ele>474.8</ele>
        <time>2024-02-10T09:09:41Z</time>
      </trkpt>
      <trkpt lat="44.44892" lon="1.49597">
        <ele>475.2</ele>
        <time>2024-02-10T09:09:43Z</time>
      </trkpt>
      <trkpt lat="44.44894" lon="1.49598">
        <ele>475.4</ele>
        <time>2024-02-10T09:09:45Z</time>
      </trkpt>
      <trkpt lat="44.44896" lon="1.49599">
        <ele>475.6</ele>
        <time>2024-02-10T09:09:47Z</time>
      </trkpt>
      <trkpt lat="44.44897" lon="1.496">
        <ele>476</ele>
        <time>2024-02-10T09:09:49Z</time>
      </trkpt>
      <trkpt lat="44.44898" lon="1.496">
        <ele>476.2</ele>
        <time>2024-02-10T09:09:50Z</time>
      </trkpt>
      <trkpt lat="44.44899" lon="1.496">
        <ele>476.2</ele>
        <time>2024-02-10T09:09:51Z</time>
      </trkpt>
      <trkpt lat="44.44901" lon="1.49601">
        <ele>476.4</ele>
        <time>2024-02-10T09:09:53Z</time>
      </trkpt>
      <trkpt lat="44.44903" lon="1.49602">
        <ele>476.8</ele>
        <time>2024-02-10T09:09:55Z</time>
      </trkpt>
      <trkpt lat="44.44904" lon="1.49603">
        <ele>477.2</ele>
        <time>2024-02-10T09:09:57Z</time>
      </trkpt>
      <trkpt lat="44.44906" lon="1.49605">
        <ele>477.6</ele>
        <time>2024-02-10T09:09:59Z</time>
      </trkpt>
      <trkpt lat="44.44907" lon="1.49606">
        <ele>477.8</ele>
        <time>2024-02-10T09:10:01Z</time>
      </trkpt>
      <trkpt lat="44.44909" lon="1.49608">
        <ele>478</ele>
        <time>2024-02-10T09:10:03Z</time>
      </trkpt>
      <trkpt lat="44.44908" lon="1.49609">
        <ele>478.4</ele>
        <time>2024-02-10T09:10:05Z</time>
      </trkpt>
      <trkpt lat="44.44906" lon="1.49611">
        <ele>479</ele>
        <time>2024-02-10T09:10:07Z</time>
      </trkpt>
      <trkpt lat="44.44904" lon="1.49611">
        <ele>479.2</ele>
        <time>2024-02-10T09:10:08Z</time>
      </trkpt>
      <trkpt lat="44.44903" lon="1.49612">
        <ele>479.4</ele>
        <time>2024-02-10T09:10:09Z</time>
      </trkpt>
      <trkpt lat="44.44901" lon="1.49614">
        <ele>479.8</ele>
        <time>2024-02-10T09:10:11Z</time>
      </trkpt>
      <trkpt lat="44.44898" lon="1.49615">
        <ele>480.8</ele>
        <time>2024-02-10T09:10:13Z</time>
      </trkpt>
      <trkpt lat="44.44896" lon="1.49617">
        <ele>481</ele>
        <time>2024-02-10T09:10:15Z</time>
      </trkpt>
      <trkpt lat="44.44893" lon="1.49619">
        <ele>481.2</ele>
        <time>2024-02-10T09:10:17Z</time>
      </trkpt>
      <trkpt lat="44.44892" lon="1.49621">
        <ele>481.4</ele>
        <time>2024-02-10T09:10:19Z</time>
      </trkpt>
      <trkpt lat="44.44891" lon="1.49624">
        <ele>481.6</ele>
        <time>2024-02-10T09:10:21Z</time>
      </trkpt>
      <trkpt lat="44.44891" lon="1.49627">
        <ele>481.6</ele>
        <time>2024-02-10T09:10:23Z</time>
      </trkpt>
      <trkpt lat="44.4489" lon="1.4963">
        <ele>481.8</ele>
        <time>2024-02-10T09:10:25Z</time>
      </trkpt>
      <trkpt lat="44.44889" lon="1.49632">
        <ele>482.2</ele>
        <time>2024-02-10T09:10:27Z</time>
      </trkpt>
      <trkpt lat="44.44888" lon="1.49634">
        <ele>482.8</ele>
        <time>2024-02-10T09:10:29Z</time>
      </trkpt>
      <trkpt lat="44.44887" lon="1.49636">
        <ele>483</ele>
        <time>2024-02-10T09:10:30Z</time>
      </trkpt>
      <trkpt lat="44.44886" lon="1.49637">
        <ele>483.4</ele>
        <time>2024-02-10T09:10:31Z</time>
      </trkpt>
      <trkpt lat="44.44885" lon="1.49639">
        <ele>484</ele>
        <time>2024-02-10T09:10:33Z</time>
      </trkpt>
      <trkpt lat="44.44884" lon="1.4964">
        <ele>484.4</ele>
        <time>2024-02-10T09:10:34Z</time>
      </trkpt>
      <trkpt lat="44.44883" lon="1.49641">
        <ele>484.6</ele>
        <time>2024-02-10T09:10:35Z</time>
      </trkpt>
      <trkpt lat="44.44881" lon="1.49643">
        <ele>485</ele>
        <time>2024-02-10T09:10:37Z</time>
      </trkpt>
      <trkpt lat="44.44879" lon="1.49645">
        <ele>485.4</ele>
        <time>2024-02-10T09:10:39Z</time>
      </trkpt>
      <trkpt lat="44.44877" lon="1.49648">
        <ele>485.6</ele>
        <time>2024-02-10T09:10:41Z</time>
      </trkpt>
      <trkpt lat="44.44877" lon="1.49648">
        <ele>485.6</ele>
        <time>2024-02-10T09:10:42Z</time>
      </trkpt>
      <trkpt lat="44.44875" lon="1.49649">
        <ele>486</ele>
        <time>2024-02-10T09:10:43Z</time>
      </trkpt>
      <trkpt lat="44.44873" lon="1.4965">
        <ele>485.8</ele>
        <time>2024-02-10T09:10:45Z</time>
      </trkpt>
      <trkpt lat="44.4487" lon="1.49651">
        <ele>486.2</ele>
        <time>2024-02-10T09:10:47Z</time>
      </trkpt>
      <trkpt lat="44.4487" lon="1.49652">
        <ele>486.2</ele>
        <time>2024-02-10T09:10:48Z</time>
      </trkpt>
      <trkpt lat="44.4487" lon="1.49654">
        <ele>486.4</ele>
        <time>2024-02-10T09:10:49Z</time>
      </trkpt>
      <trkpt lat="44.4487" lon="1.49655">
        <ele>487</ele>
        <time>2024-02-10T09:10:51Z</time>
      </trkpt>
      <trkpt lat="44.4487" lon="1.49656">
        <ele>487</ele>
        <time>2024-02-10T09:10:53Z</time>
      </trkpt>
      <trkpt lat="44.4487" lon="1.49656">
        <ele>487.4</ele>
        <time>2024-02-10T09:10:54Z</time>
      </trkpt>
      <trkpt lat="44.4487" lon="1.49657">
        <ele>487.4</ele>
        <time>2024-02-10T09:10:55Z</time>
      </trkpt>
      <trkpt lat="44.44869" lon="1.49658">
        <ele>487.6</ele>
        <time>2024-02-10T09:10:57Z</time>
      </trkpt>
      <trkpt lat="44.44869" lon="1.49658">
        <ele>487.6</ele>
        <time>2024-02-10T09:10:59Z</time>
      </trkpt>
      <trkpt lat="44.44869" lon="1.49659">
        <ele>487.8</ele>
        <time>2024-02-10T09:11:01Z</time>
      </trkpt>
      <trkpt lat="44.44869" lon="1.49659">
        <ele>487.8</ele>
        <time>2024-02-10T09:11:03Z</time>
      </trkpt>
      <trkpt lat="44.44869" lon="1.49659">
        <ele>487.8</ele>
        <time>2024-02-10T09:11:05Z</time>
      </trkpt>
      <trkpt lat="44.44869" lon="1.49659">
        <ele>487.8</ele>
        <time>2024-02-10T09:11:07Z</time>
      </trkpt>
      <trkpt lat="44.44869" lon="1.49659">
        <ele>487.8</ele>
        <time>2024-02-10T09:11:09Z</time>
      </trkpt>
      <trkpt lat="44.44869" lon="1.4966">
        <ele>487.6</ele>
        <time>2024-02-10T09:11:11Z</time>
      </trkpt>
      <trkpt lat="44.44869" lon="1.4966">
        <ele>487.8</ele>
        <time>2024-02-10T09:11:13Z</time>
      </trkpt>
      <trkpt lat="44.44869" lon="1.4966">
        <ele>487.8</ele>
        <time>2024-02-10T09:11:15Z</time>
      </trkpt>
      <trkpt lat="44.44869" lon="1.49659">
        <ele>487.8</ele>
        <time>2024-02-10T09:11:17Z</time>
      </trkpt>
      <trkpt lat="44.44869" lon="1.49659">
        <ele>487.6</ele>
        <time>2024-02-10T09:11:19Z</time>
      </trkpt>
      <trkpt lat="44.44869" lon="1.49659">
        <ele>487.6</ele>
        <time>2024-02-10T09:11:21Z</time>
      </trkpt>
      <trkpt lat="44.44869" lon="1.4966">
        <ele>487.6</ele>
        <time>2024-02-10T09:11:22Z</time>
      </trkpt>
      <trkpt lat="44.44868" lon="1.4966">
        <ele>487.6</ele>
        <time>2024-02-10T09:11:23Z</time>
      </trkpt>
      <trkpt lat="44.44868" lon="1.4966">
        <ele>487.6</ele>
        <time>2024-02-10T09:11:25Z</time>
      </trkpt>
      <trkpt lat="44.44868" lon="1.4966">
        <ele>487.6</ele>
        <time>2024-02-10T09:11:27Z</time>
      </trkpt>
      <trkpt lat="44.44868" lon="1.49661">
        <ele>487.6</ele>
        <time>2024-02-10T09:11:29Z</time>
      </trkpt>
      <trkpt lat="44.44868" lon="1.49661">
        <ele>487.6</ele>
        <time>2024-02-10T09:11:31Z</time>
      </trkpt>
      <trkpt lat="44.44868" lon="1.49661">
        <ele>487.6</ele>
        <time>2024-02-10T09:11:33Z</time>
      </trkpt>
      <trkpt lat="44.44868" lon="1.49661">
        <ele>487.6</ele>
        <time>2024-02-10T09:11:35Z</time>
      </trkpt>
      <trkpt lat="44.44868" lon="1.49661">
        <ele>487.6</ele>
        <time>2024-02-10T09:11:37Z</time>
      </trkpt>
      <trkpt lat="44.44868" lon="1.49661">
        <ele>487.6</ele>
        <time>2024-02-10T09:11:39Z</time>
      </trkpt>
      <trkpt lat="44.44868" lon="1.49661">
        <ele>487.8</ele>
        <time>2024-02-10T09:11:41Z</time>
      </trkpt>
      <trkpt lat="44.44868" lon="1.49661">
        <ele>487.8</ele>
        <time>2024-02-10T09:11:43Z</time>
      </trkpt>
      <trkpt lat="44.44868" lon="1.49661">
        <ele>487.8</ele>
        <time>2024-02-10T09:11:45Z</time>
      </trkpt>
      <trkpt lat="44.44868" lon="1.49661">
        <ele>487.8</ele>
        <time>2024-02-10T09:11:47Z</time>
      </trkpt>
      <trkpt lat="44.44868" lon="1.49662">
        <ele>487.8</ele>
        <time>2024-02-10T09:11:49Z</time>
      </trkpt>
      <trkpt lat="44.44868" lon="1.49662">
        <ele>487.8</ele>
        <time>2024-02-10T09:11:51Z</time>
      </trkpt>
      <trkpt lat="44.44868" lon="1.49662">
        <ele>487.8</ele>
        <time>2024-02-10T09:11:53Z</time>
      </trkpt>
      <trkpt lat="44.44868" lon="1.49662">
        <ele>487.8</ele>
        <time>2024-02-10T09:11:55Z</time>
      </trkpt>
      <trkpt lat="44.44868" lon="1.49662">
        <ele>487.4</ele>
        <time>2024-02-10T09:11:57Z</time>
      </trkpt>
      <trkpt lat="44.44867" lon="1.49661">
        <ele>487</ele>
        <time>2024-02-10T09:11:59Z</time>
      </trkpt>
      <trkpt lat="44.44866" lon="1.49661">
        <ele>487</ele>
        <time>2024-02-10T09:12:01Z</time>
      </trkpt>
      <trkpt lat="44.44864" lon="1.4966">
        <ele>487</ele>
        <time>2024-02-10T09:12:03Z</time>
      </trkpt>
      <trkpt lat="44.44863" lon="1.49659">
        <ele>487</ele>
        <time>2024-02-10T09:12:04Z</time>
      </trkpt>
      <trkpt lat="44.44862" lon="1.49659">
        <ele>487</ele>
        <time>2024-02-10T09:12:05Z</time>
      </trkpt>
      <trkpt lat="44.44861" lon="1.49659">
        <ele>487</ele>
        <time>2024-02-10T09:12:07Z</time>
      </trkpt>
      <trkpt lat="44.44859" lon="1.49657">
        <ele>487.4</ele>
        <time>2024-02-10T09:12:09Z</time>
      </trkpt>
      <trkpt lat="44.44857" lon="1.49656">
        <ele>487.6</ele>
        <time>2024-02-10T09:12:11Z</time>
      </trkpt>
      <trkpt lat="44.44855" lon="1.49655">
        <ele>487.8</ele>
        <time>2024-02-10T09:12:13Z</time>
      </trkpt>
      <trkpt lat="44.44854" lon="1.49654">
        <ele>488.2</ele>
        <time>2024-02-10T09:12:14Z</time>
      </trkpt>
      <trkpt lat="44.44853" lon="1.49653">
        <ele>488.4</ele>
        <time>2024-02-10T09:12:15Z</time>
      </trkpt>
      <trkpt lat="44.44852" lon="1.49652">
        <ele>488.6</ele>
        <time>2024-02-10T09:12:16Z</time>
      </trkpt>
      <trkpt lat="44.44851" lon="1.49651">
        <ele>489</ele>
        <time>2024-02-10T09:12:17Z</time>
      </trkpt>
      <trkpt lat="44.44849" lon="1.4965">
        <ele>489.2</ele>
        <time>2024-02-10T09:12:19Z</time>
      </trkpt>
      <trkpt lat="44.44846" lon="1.49648">
        <ele>489.6</ele>
        <time>2024-02-10T09:12:21Z</time>
      </trkpt>
      <trkpt lat="44.44845" lon="1.49648">
        <ele>489.6</ele>
        <time>2024-02-10T09:12:22Z</time>
      </trkpt>
      <trkpt lat="44.44844" lon="1.49648">
        <ele>490</ele>
        <time>2024-02-10T09:12:23Z</time>
      </trkpt>
      <trkpt lat="44.44841" lon="1.49648">
        <ele>490.8</ele>
        <time>2024-02-10T09:12:25Z</time>
      </trkpt>
      <trkpt lat="44.4484" lon="1.49648">
        <ele>491.2</ele>
        <time>2024-02-10T09:12:26Z</time>
      </trkpt>
      <trkpt lat="44.44838" lon="1.49648">
        <ele>491.4</ele>
        <time>2024-02-10T09:12:27Z</time>
      </trkpt>
      <trkpt lat="44.44836" lon="1.49647">
        <ele>491.6</ele>
        <time>2024-02-10T09:12:29Z</time>
      </trkpt>
      <trkpt lat="44.44833" lon="1.49647">
        <ele>492</ele>
        <time>2024-02-10T09:12:31Z</time>
      </trkpt>
      <trkpt lat="44.44831" lon="1.49647">
        <ele>492.6</ele>
        <time>2024-02-10T09:12:33Z</time>
      </trkpt>
      <trkpt lat="44.44828" lon="1.49646">
        <ele>493.6</ele>
        <time>2024-02-10T09:12:35Z</time>
      </trkpt>
      <trkpt lat="44.44825" lon="1.49646">
        <ele>494.2</ele>
        <time>2024-02-10T09:12:37Z</time>
      </trkpt>
      <trkpt lat="44.44824" lon="1.49645">
        <ele>494.4</ele>
        <time>2024-02-10T09:12:38Z</time>
      </trkpt>
      <trkpt lat="44.44823" lon="1.49644">
        <ele>494.8</ele>
        <time>2024-02-10T09:12:39Z</time>
      </trkpt>
      <trkpt lat="44.4482" lon="1.49643">
        <ele>494.8</ele>
        <time>2024-02-10T09:12:41Z</time>
      </trkpt>
      <trkpt lat="44.44818" lon="1.49641">
        <ele>495.2</ele>
        <time>2024-02-10T09:12:43Z</time>
      </trkpt>
      <trkpt lat="44.44817" lon="1.4964">
        <ele>495.2</ele>
        <time>2024-02-10T09:12:44Z</time>
      </trkpt>
      <trkpt lat="44.44816" lon="1.49639">
        <ele>495.4</ele>
        <time>2024-02-10T09:12:45Z</time>
      </trkpt>
      <trkpt lat="44.44814" lon="1.49638">
        <ele>495.8</ele>
        <time>2024-02-10T09:12:47Z</time>
      </trkpt>
      <trkpt lat="44.44813" lon="1.49637">
        <ele>496</ele>
        <time>2024-02-10T09:12:48Z</time>
      </trkpt>
      <trkpt lat="44.44812" lon="1.49636">
        <ele>496</ele>
        <time>2024-02-10T09:12:49Z</time>
      </trkpt>
      <trkpt lat="44.44811" lon="1.49634">
        <ele>496.8</ele>
        <time>2024-02-10T09:12:51Z</time>
      </trkpt>
      <trkpt lat="44.44809" lon="1.49632">
        <ele>496.8</ele>
        <time>2024-02-10T09:12:53Z</time>
      </trkpt>
      <trkpt lat="44.44808" lon="1.49631">
        <ele>497.2</ele>
        <time>2024-02-10T09:12:54Z</time>
      </trkpt>
      <trkpt lat="44.44807" lon="1.4963">
        <ele>497.4</ele>
        <time>2024-02-10T09:12:55Z</time>
      </trkpt>
      <trkpt lat="44.44805" lon="1.49628">
        <ele>497.8</ele>
        <time>2024-02-10T09:12:57Z</time>
      </trkpt>
      <trkpt lat="44.44803" lon="1.49626">
        <ele>497.8</ele>
        <time>2024-02-10T09:12:59Z</time>
      </trkpt>
      <trkpt lat="44.44802" lon="1.49625">
        <ele>498</ele>
        <time>2024-02-10T09:13:00Z</time>
      </trkpt>
      <trkpt lat="44.44801" lon="1.49624">
        <ele>498.2</ele>
        <time>2024-02-10T09:13:01Z</time>
      </trkpt>
      <trkpt lat="44.44799" lon="1.49623">
        <ele>498.6</ele>
        <time>2024-02-10T09:13:03Z</time>
      </trkpt>
      <trkpt lat="44.44798" lon="1.49622">
        <ele>499.2</ele>
        <time>2024-02-10T09:13:05Z</time>
      </trkpt>
      <trkpt lat="44.44797" lon="1.49621">
        <ele>499.4</ele>
        <time>2024-02-10T09:13:06Z</time>
      </trkpt>
      <trkpt lat="44.44796" lon="1.49621">
        <ele>499.6</ele>
        <time>2024-02-10T09:13:07Z</time>
      </trkpt>
      <trkpt lat="44.44795" lon="1.4962">
        <ele>500</ele>
        <time>2024-02-10T09:13:08Z</time>
      </trkpt>
      <trkpt lat="44.44794" lon="1.4962">
        <ele>500.2</ele>
        <time>2024-02-10T09:13:09Z</time>
      </trkpt>
      <trkpt lat="44.44793" lon="1.49619">
        <ele>500.4</ele>
        <time>2024-02-10T09:13:11Z</time>
      </trkpt>
      <trkpt lat="44.44793" lon="1.49618">
        <ele>501</ele>
        <time>2024-02-10T09:13:13Z</time>
      </trkpt>
      <trkpt lat="44.44792" lon="1.49618">
        <ele>501.8</ele>
        <time>2024-02-10T09:13:15Z</time>
      </trkpt>
      <trkpt lat="44.44792" lon="1.49618">
        <ele>502</ele>
        <time>2024-02-10T09:13:17Z</time>
      </trkpt>
      <trkpt lat="44.44792" lon="1.49618">
        <ele>502.4</ele>
        <time>2024-02-10T09:13:19Z</time>
      </trkpt>
      <trkpt lat="44.44792" lon="1.49618">
        <ele>502.6</ele>
        <time>2024-02-10T09:13:21Z</time>
      </trkpt>
      <trkpt lat="44.44792" lon="1.49618">
        <ele>503</ele>
        <time>2024-02-10T09:13:23Z</time>
      </trkpt>
      <trkpt lat="44.44792" lon="1.49618">
        <ele>503</ele>
        <time>2024-02-10T09:13:25Z</time>
      </trkpt>
      <trkpt lat="44.44792" lon="1.49618">
        <ele>503</ele>
        <time>2024-02-10T09:13:27Z</time>
      </trkpt>
      <trkpt lat="44.44792" lon="1.49618">
        <ele>503</ele>
        <time>2024-02-10T09:13:29Z</time>
      </trkpt>
      <trkpt lat="44.44792" lon="1.49618">
        <ele>503</ele>
        <time>2024-02-10T09:13:31Z</time>
      </trkpt>
      <trkpt lat="44.44792" lon="1.49617">
        <ele>502.8</ele>
        <time>2024-02-10T09:13:33Z</time>
      </trkpt>
      <trkpt lat="44.44792" lon="1.49617">
        <ele>502.8</ele>
        <time>2024-02-10T09:13:34Z</time>
      </trkpt>
      <trkpt lat="44.44792" lon="1.49617">
        <ele>502.8</ele>
        <time>2024-02-10T09:13:35Z</time>
      </trkpt>
      <trkpt lat="44.44792" lon="1.49617">
        <ele>502.8</ele>
        <time>2024-02-10T09:13:37Z</time>
      </trkpt>
      <trkpt lat="44.44792" lon="1.49617">
        <ele>502.8</ele>
        <time>2024-02-10T09:13:39Z</time>
      </trkpt>
      <trkpt lat="44.44792" lon="1.49617">
        <ele>502.8</ele>
        <time>2024-02-10T09:13:41Z</time>
      </trkpt>
      <trkpt lat="44.44792" lon="1.49617">
        <ele>502.8</ele>
        <time>2024-02-10T09:13:43Z</time>
      </trkpt>
      <trkpt lat="44.44792" lon="1.49617">
        <ele>502.8</ele>
        <time>2024-02-10T09:13:45Z</time>
      </trkpt>
      <trkpt lat="44.44792" lon="1.49617">
        <ele>502.8</ele>
        <time>2024-02-10T09:13:47Z</time>
      </trkpt>
      <trkpt lat="44.44792" lon="1.49617">
        <ele>502.8</ele>
        <time>2024-02-10T09:13:49Z</time>
      </trkpt>
      <trkpt lat="44.44792" lon="1.49617">
        <ele>503</ele>
        <time>2024-02-10T09:13:51Z</time>
      </trkpt>
      <trkpt lat="44.44792" lon="1.49617">
        <ele>503</ele>
        <time>2024-02-10T09:13:53Z</time>
      </trkpt>
      <trkpt lat="44.44792" lon="1.49617">
        <ele>502.8</ele>
        <time>2024-02-10T09:13:55Z</time>
      </trkpt>
      <trkpt lat="44.44792" lon="1.49614">
        <ele>502.8</ele>
        <time>2024-02-10T09:13:57Z</time>
      </trkpt>
      <trkpt lat="44.4479" lon="1.4961">
        <ele>502.6</ele>
        <time>2024-02-10T09:13:59Z</time>
      </trkpt>
      <trkpt lat="44.4479" lon="1.49605">
        <ele>502.4</ele>
        <time>2024-02-10T09:14:01Z</time>
      </trkpt>
      <trkpt lat="44.4479" lon="1.49603">
        <ele>502.4</ele>
        <time>2024-02-10T09:14:02Z</time>
      </trkpt>
      <trkpt lat="44.4479" lon="1.49601">
        <ele>502.4</ele>
        <time>2024-02-10T09:14:03Z</time>
      </trkpt>
      <trkpt lat="44.4479" lon="1.49595">
        <ele>502.4</ele>
        <time>2024-02-10T09:14:05Z</time>
      </trkpt>
      <trkpt lat="44.44787" lon="1.49587">
        <ele>502.2</ele>
        <time>2024-02-10T09:14:07Z</time>
      </trkpt>
      <trkpt lat="44.44785" lon="1.49578">
        <ele>502.2</ele>
        <time>2024-02-10T09:14:09Z</time>
      </trkpt>
      <trkpt lat="44.44783" lon="1.49573">
        <ele>502.2</ele>
        <time>2024-02-10T09:14:10Z</time>
      </trkpt>
      <trkpt lat="44.44782" lon="1.49569">
        <ele>502.2</ele>
        <time>2024-02-10T09:14:11Z</time>
      </trkpt>
      <trkpt lat="44.44781" lon="1.49562">
        <ele>502.2</ele>
        <time>2024-02-10T09:14:13Z</time>
      </trkpt>
      <trkpt lat="44.44782" lon="1.49559">
        <ele>502.4</ele>
        <time>2024-02-10T09:14:14Z</time>
      </trkpt>
      <trkpt lat="44.44783" lon="1.49557">
        <ele>502.6</ele>
        <time>2024-02-10T09:14:15Z</time>
      </trkpt>
      <trkpt lat="44.44789" lon="1.49556">
        <ele>502.6</ele>
        <time>2024-02-10T09:14:17Z</time>
      </trkpt>
      <trkpt lat="44.44793" lon="1.49554">
        <ele>502.6</ele>
        <time>2024-02-10T09:14:18Z</time>
      </trkpt>
      <trkpt lat="44.44796" lon="1.4955">
        <ele>502.6</ele>
        <time>2024-02-10T09:14:19Z</time>
      </trkpt>
      <trkpt lat="44.44797" lon="1.49545">
        <ele>502.6</ele>
        <time>2024-02-10T09:14:20Z</time>
      </trkpt>
      <trkpt lat="44.44798" lon="1.4954">
        <ele>502.6</ele>
        <time>2024-02-10T09:14:21Z</time>
      </trkpt>
      <trkpt lat="44.44799" lon="1.49532">
        <ele>502.4</ele>
        <time>2024-02-10T09:14:23Z</time>
      </trkpt>
      <trkpt lat="44.44799" lon="1.49528">
        <ele>502.2</ele>
        <time>2024-02-10T09:14:24Z</time>
      </trkpt>
      <trkpt lat="44.44799" lon="1.49523">
        <ele>502.2</ele>
        <time>2024-02-10T09:14:25Z</time>
      </trkpt>
      <trkpt lat="44.44799" lon="1.49518">
        <ele>501.6</ele>
        <time>2024-02-10T09:14:26Z</time>
      </trkpt>
      <trkpt lat="44.44799" lon="1.49513">
        <ele>501.2</ele>
        <time>2024-02-10T09:14:27Z</time>
      </trkpt>
      <trkpt lat="44.44801" lon="1.49503">
        <ele>500.4</ele>
        <time>2024-02-10T09:14:29Z</time>
      </trkpt>
      <trkpt lat="44.44798" lon="1.49496">
        <ele>500.4</ele>
        <time>2024-02-10T09:14:31Z</time>
      </trkpt>
      <trkpt lat="44.44794" lon="1.49489">
        <ele>500.4</ele>
        <time>2024-02-10T09:14:33Z</time>
      </trkpt>
      <trkpt lat="44.44791" lon="1.49482">
        <ele>500.4</ele>
        <time>2024-02-10T09:14:35Z</time>
      </trkpt>
      <trkpt lat="44.44788" lon="1.49475">
        <ele>500.4</ele>
        <time>2024-02-10T09:14:37Z</time>
      </trkpt>
      <trkpt lat="44.44785" lon="1.49468">
        <ele>500.6</ele>
        <time>2024-02-10T09:14:39Z</time>
      </trkpt>
      <trkpt lat="44.44784" lon="1.49464">
        <ele>500.6</ele>
        <time>2024-02-10T09:14:40Z</time>
      </trkpt>
      <trkpt lat="44.44783" lon="1.49461">
        <ele>500.6</ele>
        <time>2024-02-10T09:14:41Z</time>
      </trkpt>
      <trkpt lat="44.44779" lon="1.49456">
        <ele>500.8</ele>
        <time>2024-02-10T09:14:43Z</time>
      </trkpt>
      <trkpt lat="44.44777" lon="1.49451">
        <ele>500.8</ele>
        <time>2024-02-10T09:14:45Z</time>
      </trkpt>
      <trkpt lat="44.44776" lon="1.49449">
        <ele>500.8</ele>
        <time>2024-02-10T09:14:46Z</time>
      </trkpt>
      <trkpt lat="44.44775" lon="1.49447">
        <ele>501</ele>
        <time>2024-02-10T09:14:47Z</time>
      </trkpt>
      <trkpt lat="44.44773" lon="1.49445">
        <ele>501.4</ele>
        <time>2024-02-10T09:14:49Z</time>
      </trkpt>
      <trkpt lat="44.44772" lon="1.49443">
        <ele>502.4</ele>
        <time>2024-02-10T09:14:51Z</time>
      </trkpt>
      <trkpt lat="44.44771" lon="1.49442">
        <ele>502.6</ele>
        <time>2024-02-10T09:14:52Z</time>
      </trkpt>
      <trkpt lat="44.4477" lon="1.49441">
        <ele>502.8</ele>
        <time>2024-02-10T09:14:53Z</time>
      </trkpt>
      <trkpt lat="44.44768" lon="1.49438">
        <ele>503</ele>
        <time>2024-02-10T09:14:55Z</time>
      </trkpt>
      <trkpt lat="44.44766" lon="1.49434">
        <ele>503.2</ele>
        <time>2024-02-10T09:14:57Z</time>
      </trkpt>
      <trkpt lat="44.44766" lon="1.49431">
        <ele>503.6</ele>
        <time>2024-02-10T09:14:58Z</time>
      </trkpt>
      <trkpt lat="44.44765" lon="1.49429">
        <ele>503.8</ele>
        <time>2024-02-10T09:14:59Z</time>
      </trkpt>
      <trkpt lat="44.44766" lon="1.49422">
        <ele>504</ele>
        <time>2024-02-10T09:15:01Z</time>
      </trkpt>
      <trkpt lat="44.44766" lon="1.49415">
        <ele>504</ele>
        <time>2024-02-10T09:15:03Z</time>
      </trkpt>
      <trkpt lat="44.44766" lon="1.49409">
        <ele>504.2</ele>
        <time>2024-02-10T09:15:05Z</time>
      </trkpt>
      <trkpt lat="44.44766" lon="1.49403">
        <ele>504.4</ele>
        <time>2024-02-10T09:15:07Z</time>
      </trkpt>
      <trkpt lat="44.44766" lon="1.49396">
        <ele>504.4</ele>
        <time>2024-02-10T09:15:09Z</time>
      </trkpt>
      <trkpt lat="44.44766" lon="1.4939">
        <ele>504.4</ele>
        <time>2024-02-10T09:15:11Z</time>
      </trkpt>
      <trkpt lat="44.44766" lon="1.49384">
        <ele>504</ele>
        <time>2024-02-10T09:15:13Z</time>
      </trkpt>
      <trkpt lat="44.44767" lon="1.49379">
        <ele>503.6</ele>
        <time>2024-02-10T09:15:15Z</time>
      </trkpt>
      <trkpt lat="44.44767" lon="1.49375">
        <ele>503.4</ele>
        <time>2024-02-10T09:15:17Z</time>
      </trkpt>
      <trkpt lat="44.44768" lon="1.49372">
        <ele>503.2</ele>
        <time>2024-02-10T09:15:19Z</time>
      </trkpt>
      <trkpt lat="44.44769" lon="1.4937">
        <ele>503.2</ele>
        <time>2024-02-10T09:15:21Z</time>
      </trkpt>
      <trkpt lat="44.44769" lon="1.4937">
        <ele>503.2</ele>
        <time>2024-02-10T09:15:22Z</time>
      </trkpt>
      <trkpt lat="44.44769" lon="1.49369">
        <ele>503.2</ele>
        <time>2024-02-10T09:15:23Z</time>
      </trkpt>
      <trkpt lat="44.44769" lon="1.49367">
        <ele>503.2</ele>
        <time>2024-02-10T09:15:25Z</time>
      </trkpt>
      <trkpt lat="44.4477" lon="1.49365">
        <ele>503.2</ele>
        <time>2024-02-10T09:15:27Z</time>
      </trkpt>
      <trkpt lat="44.4477" lon="1.49365">
        <ele>503.6</ele>
        <time>2024-02-10T09:15:29Z</time>
      </trkpt>
      <trkpt lat="44.4477" lon="1.49365">
        <ele>503.8</ele>
        <time>2024-02-10T09:15:30Z</time>
      </trkpt>
      <trkpt lat="44.4477" lon="1.49365">
        <ele>503.8</ele>
        <time>2024-02-10T09:15:31Z</time>
      </trkpt>
      <trkpt lat="44.4477" lon="1.49364">
        <ele>503.8</ele>
        <time>2024-02-10T09:15:33Z</time>
      </trkpt>
      <trkpt lat="44.4477" lon="1.49363">
        <ele>503.8</ele>
        <time>2024-02-10T09:15:35Z</time>
      </trkpt>
      <trkpt lat="44.4477" lon="1.49363">
        <ele>503.8</ele>
        <time>2024-02-10T09:15:36Z</time>
      </trkpt>
      <trkpt lat="44.4477" lon="1.49363">
        <ele>503.8</ele>
        <time>2024-02-10T09:15:37Z</time>
      </trkpt>
      <trkpt lat="44.4477" lon="1.49363">
        <ele>503.8</ele>
        <time>2024-02-10T09:15:39Z</time>
      </trkpt>
      <trkpt lat="44.4477" lon="1.49363">
        <ele>503.8</ele>
        <time>2024-02-10T09:15:41Z</time>
      </trkpt>
      <trkpt lat="44.4477" lon="1.49363">
        <ele>503.6</ele>
        <time>2024-02-10T09:15:43Z</time>
      </trkpt>
      <trkpt lat="44.4477" lon="1.49363">
        <ele>503.6</ele>
        <time>2024-02-10T09:15:45Z</time>
      </trkpt>
      <trkpt lat="44.4477" lon="1.49363">
        <ele>503.6</ele>
        <time>2024-02-10T09:15:47Z</time>
      </trkpt>
      <trkpt lat="44.4477" lon="1.49362">
        <ele>503.4</ele>
        <time>2024-02-10T09:15:49Z</time>
      </trkpt>
      <trkpt lat="44.44771" lon="1.4936">
        <ele>503.6</ele>
        <time>2024-02-10T09:15:51Z</time>
      </trkpt>
      <trkpt lat="44.44771" lon="1.49358">
        <ele>503.4</ele>
        <time>2024-02-10T09:15:53Z</time>
      </trkpt>
      <trkpt lat="44.44771" lon="1.49354">
        <ele>503.4</ele>
        <time>2024-02-10T09:15:55Z</time>
      </trkpt>
      <trkpt lat="44.44771" lon="1.49351">
        <ele>503.4</ele>
        <time>2024-02-10T09:15:57Z</time>
      </trkpt>
      <trkpt lat="44.44772" lon="1.49346">
        <ele>503.4</ele>
        <time>2024-02-10T09:15:59Z</time>
      </trkpt>
      <trkpt lat="44.44773" lon="1.49344">
        <ele>503.6</ele>
        <time>2024-02-10T09:16:01Z</time>
      </trkpt>
      <trkpt lat="44.44773" lon="1.49342">
        <ele>503.8</ele>
        <time>2024-02-10T09:16:03Z</time>
      </trkpt>
      <trkpt lat="44.44773" lon="1.49341">
        <ele>504.4</ele>
        <time>2024-02-10T09:16:05Z</time>
      </trkpt>
      <trkpt lat="44.44772" lon="1.4934">
        <ele>505</ele>
        <time>2024-02-10T09:16:07Z</time>
      </trkpt>
      <trkpt lat="44.44772" lon="1.4934">
        <ele>505.6</ele>
        <time>2024-02-10T09:16:09Z</time>
      </trkpt>
      <trkpt lat="44.44772" lon="1.49338">
        <ele>506</ele>
        <time>2024-02-10T09:16:11Z</time>
      </trkpt>
      <trkpt lat="44.44773" lon="1.49335">
        <ele>506.2</ele>
        <time>2024-02-10T09:16:13Z</time>
      </trkpt>
      <trkpt lat="44.44773" lon="1.49333">
        <ele>506.4</ele>
        <time>2024-02-10T09:16:15Z</time>
      </trkpt>
      <trkpt lat="44.44773" lon="1.49331">
        <ele>506.6</ele>
        <time>2024-02-10T09:16:17Z</time>
      </trkpt>
      <trkpt lat="44.44773" lon="1.4933">
        <ele>506.6</ele>
        <time>2024-02-10T09:16:18Z</time>
      </trkpt>
      <trkpt lat="44.44773" lon="1.49329">
        <ele>506.6</ele>
        <time>2024-02-10T09:16:19Z</time>
      </trkpt>
      <trkpt lat="44.44774" lon="1.49327">
        <ele>507</ele>
        <time>2024-02-10T09:16:21Z</time>
      </trkpt>
      <trkpt lat="44.44773" lon="1.49327">
        <ele>507.4</ele>
        <time>2024-02-10T09:16:23Z</time>
      </trkpt>
      <trkpt lat="44.44773" lon="1.49326">
        <ele>507.6</ele>
        <time>2024-02-10T09:16:24Z</time>
      </trkpt>
      <trkpt lat="44.44773" lon="1.49326">
        <ele>507.8</ele>
        <time>2024-02-10T09:16:25Z</time>
      </trkpt>
      <trkpt lat="44.44773" lon="1.49325">
        <ele>507.8</ele>
        <time>2024-02-10T09:16:27Z</time>
      </trkpt>
      <trkpt lat="44.44774" lon="1.49323">
        <ele>508</ele>
        <time>2024-02-10T09:16:29Z</time>
      </trkpt>
      <trkpt lat="44.44775" lon="1.4932">
        <ele>508</ele>
        <time>2024-02-10T09:16:31Z</time>
      </trkpt>
      <trkpt lat="44.44777" lon="1.49317">
        <ele>508</ele>
        <time>2024-02-10T09:16:33Z</time>
      </trkpt>
      <trkpt lat="44.44777" lon="1.49315">
        <ele>508</ele>
        <time>2024-02-10T09:16:34Z</time>
      </trkpt>
      <trkpt lat="44.44778" lon="1.49314">
        <ele>508</ele>
        <time>2024-02-10T09:16:35Z</time>
      </trkpt>
      <trkpt lat="44.44778" lon="1.4931">
        <ele>508.2</ele>
        <time>2024-02-10T09:16:37Z</time>
      </trkpt>
      <trkpt lat="44.44781" lon="1.49306">
        <ele>508.4</ele>
        <time>2024-02-10T09:16:39Z</time>
      </trkpt>
      <trkpt lat="44.44782" lon="1.49304">
        <ele>508.4</ele>
        <time>2024-02-10T09:16:40Z</time>
      </trkpt>
      <trkpt lat="44.44783" lon="1.49302">
        <ele>508.4</ele>
        <time>2024-02-10T09:16:41Z</time>
      </trkpt>
      <trkpt lat="44.44785" lon="1.49298">
        <ele>508.6</ele>
        <time>2024-02-10T09:16:43Z</time>
      </trkpt>
      <trkpt lat="44.44787" lon="1.49294">
        <ele>509</ele>
        <time>2024-02-10T09:16:45Z</time>
      </trkpt>
      <trkpt lat="44.4479" lon="1.49291">
        <ele>509</ele>
        <time>2024-02-10T09:16:47Z</time>
      </trkpt>
      <trkpt lat="44.44792" lon="1.49288">
        <ele>509</ele>
        <time>2024-02-10T09:16:49Z</time>
      </trkpt>
      <trkpt lat="44.44794" lon="1.49284">
        <ele>509</ele>
        <time>2024-02-10T09:16:51Z</time>
      </trkpt>
      <trkpt lat="44.44797" lon="1.4928">
        <ele>509.2</ele>
        <time>2024-02-10T09:16:53Z</time>
      </trkpt>
      <trkpt lat="44.44799" lon="1.49278">
        <ele>509.2</ele>
        <time>2024-02-10T09:16:54Z</time>
      </trkpt>
      <trkpt lat="44.44801" lon="1.49276">
        <ele>509.2</ele>
        <time>2024-02-10T09:16:55Z</time>
      </trkpt>
      <trkpt lat="44.44803" lon="1.49273">
        <ele>509.2</ele>
        <time>2024-02-10T09:16:57Z</time>
      </trkpt>
      <trkpt lat="44.44804" lon="1.49271">
        <ele>509.2</ele>
        <time>2024-02-10T09:16:59Z</time>
      </trkpt>
      <trkpt lat="44.44804" lon="1.49271">
        <ele>509.2</ele>
        <time>2024-02-10T09:17:00Z</time>
      </trkpt>
      <trkpt lat="44.44804" lon="1.49271">
        <ele>509.2</ele>
        <time>2024-02-10T09:17:01Z</time>
      </trkpt>
      <trkpt lat="44.44804" lon="1.49272">
        <ele>509.2</ele>
        <time>2024-02-10T09:17:03Z</time>
      </trkpt>
      <trkpt lat="44.44804" lon="1.49272">
        <ele>509.2</ele>
        <time>2024-02-10T09:17:05Z</time>
      </trkpt>
      <trkpt lat="44.44805" lon="1.4927">
        <ele>509.2</ele>
        <time>2024-02-10T09:17:07Z</time>
      </trkpt>
      <trkpt lat="44.44806" lon="1.49267">
        <ele>509.2</ele>
        <time>2024-02-10T09:17:09Z</time>
      </trkpt>
      <trkpt lat="44.44807" lon="1.49264">
        <ele>509.2</ele>
        <time>2024-02-10T09:17:11Z</time>
      </trkpt>
      <trkpt lat="44.44808" lon="1.49262">
        <ele>509.2</ele>
        <time>2024-02-10T09:17:13Z</time>
      </trkpt>
      <trkpt lat="44.44808" lon="1.4926">
        <ele>509.2</ele>
        <time>2024-02-10T09:17:14Z</time>
      </trkpt>
      <trkpt lat="44.44809" lon="1.49258">
        <ele>509.4</ele>
        <time>2024-02-10T09:17:15Z</time>
      </trkpt>
      <trkpt lat="44.4481" lon="1.49255">
        <ele>509.6</ele>
        <time>2024-02-10T09:17:17Z</time>
      </trkpt>
      <trkpt lat="44.44811" lon="1.49254">
        <ele>510</ele>
        <time>2024-02-10T09:17:18Z</time>
      </trkpt>
      <trkpt lat="44.44811" lon="1.49252">
        <ele>510.2</ele>
        <time>2024-02-10T09:17:19Z</time>
      </trkpt>
      <trkpt lat="44.44812" lon="1.49249">
        <ele>511.2</ele>
        <time>2024-02-10T09:17:21Z</time>
      </trkpt>
      <trkpt lat="44.44813" lon="1.49245">
        <ele>512</ele>
        <time>2024-02-10T09:17:23Z</time>
      </trkpt>
      <trkpt lat="44.44814" lon="1.49242">
        <ele>512.2</ele>
        <time>2024-02-10T09:17:25Z</time>
      </trkpt>
      <trkpt lat="44.44815" lon="1.4924">
        <ele>512.2</ele>
        <time>2024-02-10T09:17:26Z</time>
      </trkpt>
      <trkpt lat="44.44814" lon="1.49238">
        <ele>512.4</ele>
        <time>2024-02-10T09:17:27Z</time>
      </trkpt>
      <trkpt lat="44.44814" lon="1.49235">
        <ele>512.4</ele>
        <time>2024-02-10T09:17:29Z</time>
      </trkpt>
      <trkpt lat="44.44814" lon="1.49231">
        <ele>512.4</ele>
        <time>2024-02-10T09:17:31Z</time>
      </trkpt>
      <trkpt lat="44.44813" lon="1.4923">
        <ele>512.6</ele>
        <time>2024-02-10T09:17:33Z</time>
      </trkpt>
      <trkpt lat="44.44812" lon="1.49231">
        <ele>512.6</ele>
        <time>2024-02-10T09:17:35Z</time>
      </trkpt>
      <trkpt lat="44.4481" lon="1.49232">
        <ele>512.6</ele>
        <time>2024-02-10T09:17:37Z</time>
      </trkpt>
      <trkpt lat="44.44808" lon="1.49234">
        <ele>512.6</ele>
        <time>2024-02-10T09:17:39Z</time>
      </trkpt>
      <trkpt lat="44.44807" lon="1.49236">
        <ele>512.6</ele>
        <time>2024-02-10T09:17:40Z</time>
      </trkpt>
      <trkpt lat="44.44806" lon="1.49237">
        <ele>512.6</ele>
        <time>2024-02-10T09:17:41Z</time>
      </trkpt>
      <trkpt lat="44.44803" lon="1.4924">
        <ele>512.6</ele>
        <time>2024-02-10T09:17:43Z</time>
      </trkpt>
      <trkpt lat="44.448" lon="1.49244">
        <ele>512.6</ele>
        <time>2024-02-10T09:17:45Z</time>
      </trkpt>
      <trkpt lat="44.44797" lon="1.49248">
        <ele>512.6</ele>
        <time>2024-02-10T09:17:47Z</time>
      </trkpt>
      <trkpt lat="44.44795" lon="1.49249">
        <ele>512.8</ele>
        <time>2024-02-10T09:17:48Z</time>
      </trkpt>
      <trkpt lat="44.44794" lon="1.49251">
        <ele>512.8</ele>
        <time>2024-02-10T09:17:49Z</time>
      </trkpt>
      <trkpt lat="44.44791" lon="1.49254">
        <ele>512.8</ele>
        <time>2024-02-10T09:17:51Z</time>
      </trkpt>
      <trkpt lat="44.44787" lon="1.49258">
        <ele>513</ele>
        <time>2024-02-10T09:17:53Z</time>
      </trkpt>
      <trkpt lat="44.44784" lon="1.49263">
        <ele>513</ele>
        <time>2024-02-10T09:17:55Z</time>
      </trkpt>
      <trkpt lat="44.44781" lon="1.49266">
        <ele>513</ele>
        <time>2024-02-10T09:17:57Z</time>
      </trkpt>
      <trkpt lat="44.44779" lon="1.4927">
        <ele>513</ele>
        <time>2024-02-10T09:17:59Z</time>
      </trkpt>
      <trkpt lat="44.44776" lon="1.49273">
        <ele>513</ele>
        <time>2024-02-10T09:18:01Z</time>
      </trkpt>
      <trkpt lat="44.44773" lon="1.49276">
        <ele>513.2</ele>
        <time>2024-02-10T09:18:03Z</time>
      </trkpt>
      <trkpt lat="44.44772" lon="1.49277">
        <ele>513.2</ele>
        <time>2024-02-10T09:18:04Z</time>
      </trkpt>
      <trkpt lat="44.4477" lon="1.49278">
        <ele>513.2</ele>
        <time>2024-02-10T09:18:05Z</time>
      </trkpt>
      <trkpt lat="44.44768" lon="1.4928">
        <ele>513.2</ele>
        <time>2024-02-10T09:18:07Z</time>
      </trkpt>
      <trkpt lat="44.44767" lon="1.49282">
        <ele>513</ele>
        <time>2024-02-10T09:18:09Z</time>
      </trkpt>
      <trkpt lat="44.44766" lon="1.49283">
        <ele>513</ele>
        <time>2024-02-10T09:18:10Z</time>
      </trkpt>
      <trkpt lat="44.44766" lon="1.49284">
        <ele>513</ele>
        <time>2024-02-10T09:18:11Z</time>
      </trkpt>
      <trkpt lat="44.44765" lon="1.49285">
        <ele>513</ele>
        <time>2024-02-10T09:18:13Z</time>
      </trkpt>
      <trkpt lat="44.44764" lon="1.49285">
        <ele>513</ele>
        <time>2024-02-10T09:18:15Z</time>
      </trkpt>
      <trkpt lat="44.44764" lon="1.49287">
        <ele>513</ele>
        <time>2024-02-10T09:18:17Z</time>
      </trkpt>
      <trkpt lat="44.44764" lon="1.49287">
        <ele>513</ele>
        <time>2024-02-10T09:18:18Z</time>
      </trkpt>
      <trkpt lat="44.44764" lon="1.49288">
        <ele>513</ele>
        <time>2024-02-10T09:18:19Z</time>
      </trkpt>
      <trkpt lat="44.44765" lon="1.49288">
        <ele>513</ele>
        <time>2024-02-10T09:18:21Z</time>
      </trkpt>
      <trkpt lat="44.44765" lon="1.49287">
        <ele>513</ele>
        <time>2024-02-10T09:18:23Z</time>
      </trkpt>
      <trkpt lat="44.44765" lon="1.49287">
        <ele>513</ele>
        <time>2024-02-10T09:18:25Z</time>
      </trkpt>
      <trkpt lat="44.44765" lon="1.49287">
        <ele>513</ele>
        <time>2024-02-10T09:18:26Z</time>
      </trkpt>
      <trkpt lat="44.44765" lon="1.49287">
        <ele>513</ele>
        <time>2024-02-10T09:18:27Z</time>
      </trkpt>
      <trkpt lat="44.44765" lon="1.49287">
        <ele>513</ele>
        <time>2024-02-10T09:18:29Z</time>
      </trkpt>
      <trkpt lat="44.44765" lon="1.49287">
        <ele>513</ele>
        <time>2024-02-10T09:18:31Z</time>
      </trkpt>
      <trkpt lat="44.44765" lon="1.49287">
        <ele>513</ele>
        <time>2024-02-10T09:18:33Z</time>
      </trkpt>
      <trkpt lat="44.44765" lon="1.49287">
        <ele>513</ele>
        <time>2024-02-10T09:18:35Z</time>
      </trkpt>
      <trkpt lat="44.44765" lon="1.49287">
        <ele>513</ele>
        <time>2024-02-10T09:18:37Z</time>
      </trkpt>
      <trkpt lat="44.44765" lon="1.49287">
        <ele>513</ele>
        <time>2024-02-10T09:18:39Z</time>
      </trkpt>
      <trkpt lat="44.44765" lon="1.49287">
        <ele>513</ele>
        <time>2024-02-10T09:18:41Z</time>
      </trkpt>
      <trkpt lat="44.44765" lon="1.49287">
        <ele>513</ele>
        <time>2024-02-10T09:18:43Z</time>
      </trkpt>
      <trkpt lat="44.44765" lon="1.49287">
        <ele>513</ele>
        <time>2024-02-10T09:18:45Z</time>
      </trkpt>
      <trkpt lat="44.44764" lon="1.49287">
        <ele>513</ele>
        <time>2024-02-10T09:18:46Z</time>
      </trkpt>
      <trkpt lat="44.44764" lon="1.49287">
        <ele>513</ele>
        <time>2024-02-10T09:18:47Z</time>
      </trkpt>
      <trkpt lat="44.44764" lon="1.49287">
        <ele>513</ele>
        <time>2024-02-10T09:18:49Z</time>
      </trkpt>
      <trkpt lat="44.44764" lon="1.49287">
        <ele>513</ele>
        <time>2024-02-10T09:18:51Z</time>
      </trkpt>
      <trkpt lat="44.44764" lon="1.49287">
        <ele>513</ele>
        <time>2024-02-10T09:18:53Z</time>
      </trkpt>
      <trkpt lat="44.44764" lon="1.49287">
        <ele>513</ele>
        <time>2024-02-10T09:18:55Z</time>
      </trkpt>
      <trkpt lat="44.44764" lon="1.49287">
        <ele>513</ele>
        <time>2024-02-10T09:18:57Z</time>
      </trkpt>
      <trkpt lat="44.44765" lon="1.49287">
        <ele>513.2</ele>
        <time>2024-02-10T09:18:59Z</time>
      </trkpt>
      <trkpt lat="44.44765" lon="1.49287">
        <ele>513.2</ele>
        <time>2024-02-10T09:19:01Z</time>
      </trkpt>
      <trkpt lat="44.44765" lon="1.49287">
        <ele>513.2</ele>
        <time>2024-02-10T09:19:02Z</time>
      </trkpt>
      <trkpt lat="44.44765" lon="1.49286">
        <ele>513.2</ele>
        <time>2024-02-10T09:19:03Z</time>
      </trkpt>
      <trkpt lat="44.44764" lon="1.49286">
        <ele>513</ele>
        <time>2024-02-10T09:19:05Z</time>
      </trkpt>
      <trkpt lat="44.44765" lon="1.49286">
        <ele>513.2</ele>
        <time>2024-02-10T09:19:07Z</time>
      </trkpt>
      <trkpt lat="44.44765" lon="1.49286">
        <ele>513.2</ele>
        <time>2024-02-10T09:19:08Z</time>
      </trkpt>
      <trkpt lat="44.44765" lon="1.49286">
        <ele>513.4</ele>
        <time>2024-02-10T09:19:09Z</time>
      </trkpt>
      <trkpt lat="44.44764" lon="1.49286">
        <ele>513.4</ele>
        <time>2024-02-10T09:19:11Z</time>
      </trkpt>
      <trkpt lat="44.44764" lon="1.49286">
        <ele>513.4</ele>
        <time>2024-02-10T09:19:13Z</time>
      </trkpt>
      <trkpt lat="44.44764" lon="1.49286">
        <ele>513.4</ele>
        <time>2024-02-10T09:19:15Z</time>
      </trkpt>
      <trkpt lat="44.44764" lon="1.49286">
        <ele>513.4</ele>
        <time>2024-02-10T09:19:17Z</time>
      </trkpt>
      <trkpt lat="44.44764" lon="1.49286">
        <ele>513.4</ele>
        <time>2024-02-10T09:19:19Z</time>
      </trkpt>
      <trkpt lat="44.44764" lon="1.49286">
        <ele>513.4</ele>
        <time>2024-02-10T09:19:21Z</time>
      </trkpt>
      <trkpt lat="44.44764" lon="1.49286">
        <ele>513.4</ele>
        <time>2024-02-10T09:19:23Z</time>
      </trkpt>
      <trkpt lat="44.44764" lon="1.49286">
        <ele>513.4</ele>
        <time>2024-02-10T09:19:25Z</time>
      </trkpt>
      <trkpt lat="44.44764" lon="1.49286">
        <ele>513.6</ele>
        <time>2024-02-10T09:19:27Z</time>
      </trkpt>
      <trkpt lat="44.44764" lon="1.49286">
        <ele>513.6</ele>
        <time>2024-02-10T09:19:29Z</time>
      </trkpt>
      <trkpt lat="44.44764" lon="1.49286">
        <ele>513.6</ele>
        <time>2024-02-10T09:19:31Z</time>
      </trkpt>
      <trkpt lat="44.44764" lon="1.49286">
        <ele>513.8</ele>
        <time>2024-02-10T09:19:33Z</time>
      </trkpt>
      <trkpt lat="44.44764" lon="1.49286">
        <ele>513.8</ele>
        <time>2024-02-10T09:19:34Z</time>
      </trkpt>
      <trkpt lat="44.44764" lon="1.49286">
        <ele>513.8</ele>
        <time>2024-02-10T09:19:35Z</time>
      </trkpt>
      <trkpt lat="44.44764" lon="1.49286">
        <ele>513.8</ele>
        <time>2024-02-10T09:19:37Z</time>
      </trkpt>
      <trkpt lat="44.44764" lon="1.49286">
        <ele>513.8</ele>
        <time>2024-02-10T09:19:39Z</time>
      </trkpt>
      <trkpt lat="44.44764" lon="1.49286">
        <ele>514</ele>
        <time>2024-02-10T09:19:41Z</time>
      </trkpt>
      <trkpt lat="44.44764" lon="1.49286">
        <ele>514</ele>
        <time>2024-02-10T09:19:43Z</time>
      </trkpt>
      <trkpt lat="44.44764" lon="1.49286">
        <ele>514</ele>
        <time>2024-02-10T09:19:45Z</time>
      </trkpt>
      <trkpt lat="44.44764" lon="1.49286">
        <ele>514.2</ele>
        <time>2024-02-10T09:19:47Z</time>
      </trkpt>
      <trkpt lat="44.44764" lon="1.49286">
        <ele>514.2</ele>
        <time>2024-02-10T09:19:48Z</time>
      </trkpt>
      <trkpt lat="44.44764" lon="1.49286">
        <ele>514.2</ele>
        <time>2024-02-10T09:19:49Z</time>
      </trkpt>
      <trkpt lat="44.44762" lon="1.49287">
        <ele>514.2</ele>
        <time>2024-02-10T09:19:51Z</time>
      </trkpt>
      <trkpt lat="44.4476" lon="1.49288">
        <ele>514.2</ele>
        <time>2024-02-10T09:19:52Z</time>
      </trkpt>
      <trkpt lat="44.44758" lon="1.49289">
        <ele>514.2</ele>
        <time>2024-02-10T09:19:53Z</time>
      </trkpt>
      <trkpt lat="44.44756" lon="1.4929">
        <ele>514.4</ele>
        <time>2024-02-10T09:19:54Z</time>
      </trkpt>
      <trkpt lat="44.44755" lon="1.49289">
        <ele>514.4</ele>
        <time>2024-02-10T09:19:55Z</time>
      </trkpt>
      <trkpt lat="44.44754" lon="1.49287">
        <ele>514.4</ele>
        <time>2024-02-10T09:19:56Z</time>
      </trkpt>
      <trkpt lat="44.44752" lon="1.49284">
        <ele>514.4</ele>
        <time>2024-02-10T09:19:57Z</time>
      </trkpt>
      <trkpt lat="44.44749" lon="1.49277">
        <ele>514.4</ele>
        <time>2024-02-10T09:19:59Z</time>
      </trkpt>
      <trkpt lat="44.44749" lon="1.49272">
        <ele>514.4</ele>
        <time>2024-02-10T09:20:00Z</time>
      </trkpt>
      <trkpt lat="44.44749" lon="1.49267">
        <ele>514.4</ele>
        <time>2024-02-10T09:20:01Z</time>
      </trkpt>
      <trkpt lat="44.44752" lon="1.49257">
        <ele>514.4</ele>
        <time>2024-02-10T09:20:03Z</time>
      </trkpt>
      <trkpt lat="44.44754" lon="1.49251">
        <ele>514.4</ele>
        <time>2024-02-10T09:20:04Z</time>
      </trkpt>
      <trkpt lat="44.44755" lon="1.49246">
        <ele>514.4</ele>
        <time>2024-02-10T09:20:05Z</time>
      </trkpt>
      <trkpt lat="44.44757" lon="1.49235">
        <ele>514.4</ele>
        <time>2024-02-10T09:20:07Z</time>
      </trkpt>
      <trkpt lat="44.4476" lon="1.49225">
        <ele>514.4</ele>
        <time>2024-02-10T09:20:09Z</time>
      </trkpt>
      <trkpt lat="44.44764" lon="1.49213">
        <ele>514.4</ele>
        <time>2024-02-10T09:20:11Z</time>
      </trkpt>
      <trkpt lat="44.44766" lon="1.49208">
        <ele>514.4</ele>
        <time>2024-02-10T09:20:12Z</time>
      </trkpt>
      <trkpt lat="44.44767" lon="1.49202">
        <ele>514.4</ele>
        <time>2024-02-10T09:20:13Z</time>
      </trkpt>
      <trkpt lat="44.44771" lon="1.49192">
        <ele>514.4</ele>
        <time>2024-02-10T09:20:15Z</time>
      </trkpt>
      <trkpt lat="44.44773" lon="1.49187">
        <ele>514.4</ele>
        <time>2024-02-10T09:20:16Z</time>
      </trkpt>
      <trkpt lat="44.44774" lon="1.49183">
        <ele>514.4</ele>
        <time>2024-02-10T09:20:17Z</time>
      </trkpt>
      <trkpt lat="44.44775" lon="1.49173">
        <ele>514</ele>
        <time>2024-02-10T09:20:19Z</time>
      </trkpt>
      <trkpt lat="44.44775" lon="1.49169">
        <ele>514</ele>
        <time>2024-02-10T09:20:20Z</time>
      </trkpt>
      <trkpt lat="44.44776" lon="1.49165">
        <ele>514</ele>
        <time>2024-02-10T09:20:21Z</time>
      </trkpt>
      <trkpt lat="44.44777" lon="1.49156">
        <ele>514</ele>
        <time>2024-02-10T09:20:23Z</time>
      </trkpt>
      <trkpt lat="44.44781" lon="1.49147">
        <ele>513.8</ele>
        <time>2024-02-10T09:20:25Z</time>
      </trkpt>
      <trkpt lat="44.44787" lon="1.49142">
        <ele>513.8</ele>
        <time>2024-02-10T09:20:27Z</time>
      </trkpt>
      <trkpt lat="44.44791" lon="1.49141">
        <ele>513.8</ele>
        <time>2024-02-10T09:20:28Z</time>
      </trkpt>
      <trkpt lat="44.44794" lon="1.49139">
        <ele>513.8</ele>
        <time>2024-02-10T09:20:29Z</time>
      </trkpt>
      <trkpt lat="44.44798" lon="1.49133">
        <ele>513.8</ele>
        <time>2024-02-10T09:20:31Z</time>
      </trkpt>
      <trkpt lat="44.44799" lon="1.4913">
        <ele>513.8</ele>
        <time>2024-02-10T09:20:32Z</time>
      </trkpt>
      <trkpt lat="44.448" lon="1.49125">
        <ele>513.8</ele>
        <time>2024-02-10T09:20:33Z</time>
      </trkpt>
      <trkpt lat="44.44803" lon="1.49117">
        <ele>513.8</ele>
        <time>2024-02-10T09:20:35Z</time>
      </trkpt>
      <trkpt lat="44.44805" lon="1.49108">
        <ele>514</ele>
        <time>2024-02-10T09:20:37Z</time>
      </trkpt>
      <trkpt lat="44.44808" lon="1.49098">
        <ele>514</ele>
        <time>2024-02-10T09:20:39Z</time>
      </trkpt>
      <trkpt lat="44.44813" lon="1.49092">
        <ele>514</ele>
        <time>2024-02-10T09:20:41Z</time>
      </trkpt>
      <trkpt lat="44.44815" lon="1.4909">
        <ele>514</ele>
        <time>2024-02-10T09:20:42Z</time>
      </trkpt>
      <trkpt lat="44.44818" lon="1.49088">
        <ele>514</ele>
        <time>2024-02-10T09:20:43Z</time>
      </trkpt>
      <trkpt lat="44.44823" lon="1.49083">
        <ele>514</ele>
        <time>2024-02-10T09:20:45Z</time>
      </trkpt>
      <trkpt lat="44.44827" lon="1.49077">
        <ele>514</ele>
        <time>2024-02-10T09:20:47Z</time>
      </trkpt>
      <trkpt lat="44.44829" lon="1.4907">
        <ele>514</ele>
        <time>2024-02-10T09:20:49Z</time>
      </trkpt>
      <trkpt lat="44.44833" lon="1.49064">
        <ele>514.4</ele>
        <time>2024-02-10T09:20:51Z</time>
      </trkpt>
      <trkpt lat="44.44836" lon="1.49061">
        <ele>514.4</ele>
        <time>2024-02-10T09:20:52Z</time>
      </trkpt>
      <trkpt lat="44.44838" lon="1.49057">
        <ele>514.4</ele>
        <time>2024-02-10T09:20:53Z</time>
      </trkpt>
      <trkpt lat="44.44843" lon="1.4905">
        <ele>514.4</ele>
        <time>2024-02-10T09:20:55Z</time>
      </trkpt>
      <trkpt lat="44.44848" lon="1.49042">
        <ele>514.6</ele>
        <time>2024-02-10T09:20:57Z</time>
      </trkpt>
      <trkpt lat="44.44851" lon="1.49032">
        <ele>514.8</ele>
        <time>2024-02-10T09:20:59Z</time>
      </trkpt>
      <trkpt lat="44.44855" lon="1.49024">
        <ele>514.8</ele>
        <time>2024-02-10T09:21:01Z</time>
      </trkpt>
      <trkpt lat="44.44863" lon="1.49024">
        <ele>514.6</ele>
        <time>2024-02-10T09:21:03Z</time>
      </trkpt>
      <trkpt lat="44.44867" lon="1.49026">
        <ele>514.8</ele>
        <time>2024-02-10T09:21:04Z</time>
      </trkpt>
      <trkpt lat="44.44871" lon="1.49027">
        <ele>514.8</ele>
        <time>2024-02-10T09:21:05Z</time>
      </trkpt>
      <trkpt lat="44.44874" lon="1.49026">
        <ele>514.6</ele>
        <time>2024-02-10T09:21:06Z</time>
      </trkpt>
      <trkpt lat="44.44877" lon="1.49023">
        <ele>514.6</ele>
        <time>2024-02-10T09:21:07Z</time>
      </trkpt>
      <trkpt lat="44.44881" lon="1.49016">
        <ele>514.8</ele>
        <time>2024-02-10T09:21:09Z</time>
      </trkpt>
      <trkpt lat="44.44883" lon="1.49006">
        <ele>514.8</ele>
        <time>2024-02-10T09:21:11Z</time>
      </trkpt>
      <trkpt lat="44.44887" lon="1.48997">
        <ele>514.8</ele>
        <time>2024-02-10T09:21:13Z</time>
      </trkpt>
      <trkpt lat="44.44894" lon="1.48993">
        <ele>514.8</ele>
        <time>2024-02-10T09:21:15Z</time>
      </trkpt>
      <trkpt lat="44.44898" lon="1.48992">
        <ele>514.8</ele>
        <time>2024-02-10T09:21:16Z</time>
      </trkpt>
      <trkpt lat="44.44902" lon="1.4899">
        <ele>514.8</ele>
        <time>2024-02-10T09:21:17Z</time>
      </trkpt>
      <trkpt lat="44.44909" lon="1.48987">
        <ele>514.8</ele>
        <time>2024-02-10T09:21:19Z</time>
      </trkpt>
      <trkpt lat="44.44915" lon="1.48983">
        <ele>515</ele>
        <time>2024-02-10T09:21:21Z</time>
      </trkpt>
      <trkpt lat="44.4492" lon="1.48977">
        <ele>515</ele>
        <time>2024-02-10T09:21:23Z</time>
      </trkpt>
      <trkpt lat="44.44926" lon="1.48972">
        <ele>515</ele>
        <time>2024-02-10T09:21:25Z</time>
      </trkpt>
      <trkpt lat="44.44929" lon="1.4897">
        <ele>515</ele>
        <time>2024-02-10T09:21:26Z</time>
      </trkpt>
      <trkpt lat="44.44932" lon="1.48967">
        <ele>515</ele>
        <time>2024-02-10T09:21:27Z</time>
      </trkpt>
      <trkpt lat="44.44939" lon="1.4896">
        <ele>515</ele>
        <time>2024-02-10T09:21:29Z</time>
      </trkpt>
      <trkpt lat="44.44945" lon="1.48951">
        <ele>515.2</ele>
        <time>2024-02-10T09:21:31Z</time>
      </trkpt>
      <trkpt lat="44.44949" lon="1.4894">
        <ele>515.2</ele>
        <time>2024-02-10T09:21:33Z</time>
      </trkpt>
      <trkpt lat="44.44956" lon="1.48928">
        <ele>515</ele>
        <time>2024-02-10T09:21:35Z</time>
      </trkpt>
      <trkpt lat="44.44959" lon="1.4892">
        <ele>515</ele>
        <time>2024-02-10T09:21:36Z</time>
      </trkpt>
      <trkpt lat="44.44961" lon="1.48912">
        <ele>515</ele>
        <time>2024-02-10T09:21:37Z</time>
      </trkpt>
      <trkpt lat="44.44963" lon="1.48897">
        <ele>515</ele>
        <time>2024-02-10T09:21:39Z</time>
      </trkpt>
      <trkpt lat="44.44965" lon="1.48889">
        <ele>515</ele>
        <time>2024-02-10T09:21:40Z</time>
      </trkpt>
      <trkpt lat="44.44968" lon="1.48882">
        <ele>515</ele>
        <time>2024-02-10T09:21:41Z</time>
      </trkpt>
      <trkpt lat="44.44974" lon="1.48869">
        <ele>515</ele>
        <time>2024-02-10T09:21:43Z</time>
      </trkpt>
      <trkpt lat="44.44979" lon="1.48856">
        <ele>515</ele>
        <time>2024-02-10T09:21:45Z</time>
      </trkpt>
      <trkpt lat="44.44984" lon="1.48843">
        <ele>515</ele>
        <time>2024-02-10T09:21:47Z</time>
      </trkpt>
      <trkpt lat="44.44987" lon="1.48837">
        <ele>514.8</ele>
        <time>2024-02-10T09:21:48Z</time>
      </trkpt>
      <trkpt lat="44.4499" lon="1.4883">
        <ele>514.8</ele>
        <time>2024-02-10T09:21:49Z</time>
      </trkpt>
      <trkpt lat="44.44998" lon="1.48816">
        <ele>514.8</ele>
        <time>2024-02-10T09:21:51Z</time>
      </trkpt>
      <trkpt lat="44.45005" lon="1.48802">
        <ele>514.8</ele>
        <time>2024-02-10T09:21:53Z</time>
      </trkpt>
      <trkpt lat="44.45013" lon="1.48788">
        <ele>514.8</ele>
        <time>2024-02-10T09:21:55Z</time>
      </trkpt>
      <trkpt lat="44.45022" lon="1.48774">
        <ele>514.8</ele>
        <time>2024-02-10T09:21:57Z</time>
      </trkpt>
      <trkpt lat="44.45026" lon="1.48768">
        <ele>514.8</ele>
        <time>2024-02-10T09:21:58Z</time>
      </trkpt>
      <trkpt lat="44.4503" lon="1.48761">
        <ele>514.8</ele>
        <time>2024-02-10T09:21:59Z</time>
      </trkpt>
      <trkpt lat="44.45037" lon="1.48744">
        <ele>514.8</ele>
        <time>2024-02-10T09:22:01Z</time>
      </trkpt>
      <trkpt lat="44.45039" lon="1.48734">
        <ele>514.8</ele>
        <time>2024-02-10T09:22:02Z</time>
      </trkpt>
      <trkpt lat="44.45042" lon="1.48725">
        <ele>514.8</ele>
        <time>2024-02-10T09:22:03Z</time>
      </trkpt>
      <trkpt lat="44.45045" lon="1.48717">
        <ele>514.8</ele>
        <time>2024-02-10T09:22:04Z</time>
      </trkpt>
      <trkpt lat="44.45047" lon="1.4871">
        <ele>514.6</ele>
        <time>2024-02-10T09:22:05Z</time>
      </trkpt>
      <trkpt lat="44.4505" lon="1.48705">
        <ele>514.6</ele>
        <time>2024-02-10T09:22:06Z</time>
      </trkpt>
      <trkpt lat="44.45053" lon="1.487">
        <ele>514.6</ele>
        <time>2024-02-10T09:22:07Z</time>
      </trkpt>
      <trkpt lat="44.4506" lon="1.48689">
        <ele>514.6</ele>
        <time>2024-02-10T09:22:09Z</time>
      </trkpt>
      <trkpt lat="44.45067" lon="1.48673">
        <ele>514.4</ele>
        <time>2024-02-10T09:22:11Z</time>
      </trkpt>
      <trkpt lat="44.45071" lon="1.48665">
        <ele>514.2</ele>
        <time>2024-02-10T09:22:12Z</time>
      </trkpt>
      <trkpt lat="44.45074" lon="1.48658">
        <ele>514.2</ele>
        <time>2024-02-10T09:22:13Z</time>
      </trkpt>
      <trkpt lat="44.4508" lon="1.48647">
        <ele>514.2</ele>
        <time>2024-02-10T09:22:15Z</time>
      </trkpt>
      <trkpt lat="44.45084" lon="1.4864">
        <ele>514</ele>
        <time>2024-02-10T09:22:16Z</time>
      </trkpt>
      <trkpt lat="44.45087" lon="1.48631">
        <ele>514</ele>
        <time>2024-02-10T09:22:17Z</time>
      </trkpt>
      <trkpt lat="44.45088" lon="1.48621">
        <ele>513.8</ele>
        <time>2024-02-10T09:22:18Z</time>
      </trkpt>
      <trkpt lat="44.4509" lon="1.48611">
        <ele>513.6</ele>
        <time>2024-02-10T09:22:19Z</time>
      </trkpt>
      <trkpt lat="44.45097" lon="1.48595">
        <ele>513.6</ele>
        <time>2024-02-10T09:22:21Z</time>
      </trkpt>
      <trkpt lat="44.45105" lon="1.48578">
        <ele>513.6</ele>
        <time>2024-02-10T09:22:23Z</time>
      </trkpt>
      <trkpt lat="44.4511" lon="1.4857">
        <ele>513.4</ele>
        <time>2024-02-10T09:22:24Z</time>
      </trkpt>
      <trkpt lat="44.45114" lon="1.48562">
        <ele>513.2</ele>
        <time>2024-02-10T09:22:25Z</time>
      </trkpt>
      <trkpt lat="44.45123" lon="1.48545">
        <ele>513.2</ele>
        <time>2024-02-10T09:22:27Z</time>
      </trkpt>
      <trkpt lat="44.45126" lon="1.48535">
        <ele>513.2</ele>
        <time>2024-02-10T09:22:28Z</time>
      </trkpt>
      <trkpt lat="44.45128" lon="1.48527">
        <ele>513</ele>
        <time>2024-02-10T09:22:29Z</time>
      </trkpt>
      <trkpt lat="44.45132" lon="1.48513">
        <ele>513</ele>
        <time>2024-02-10T09:22:31Z</time>
      </trkpt>
      <trkpt lat="44.45132" lon="1.48506">
        <ele>512.8</ele>
        <time>2024-02-10T09:22:32Z</time>
      </trkpt>
      <trkpt lat="44.45133" lon="1.485">
        <ele>512.8</ele>
        <time>2024-02-10T09:22:33Z</time>
      </trkpt>
      <trkpt lat="44.45134" lon="1.48495">
        <ele>512.8</ele>
        <time>2024-02-10T09:22:34Z</time>
      </trkpt>
      <trkpt lat="44.45132" lon="1.4849">
        <ele>512.6</ele>
        <time>2024-02-10T09:22:35Z</time>
      </trkpt>
      <trkpt lat="44.45131" lon="1.48477">
        <ele>512.6</ele>
        <time>2024-02-10T09:22:37Z</time>
      </trkpt>
      <trkpt lat="44.45132" lon="1.48469">
        <ele>512.2</ele>
        <time>2024-02-10T09:22:38Z</time>
      </trkpt>
      <trkpt lat="44.45134" lon="1.48462">
        <ele>512.2</ele>
        <time>2024-02-10T09:22:39Z</time>
      </trkpt>
      <trkpt lat="44.45139" lon="1.48456">
        <ele>512</ele>
        <time>2024-02-10T09:22:41Z</time>
      </trkpt>
      <trkpt lat="44.45145" lon="1.48454">
        <ele>511.6</ele>
        <time>2024-02-10T09:22:43Z</time>
      </trkpt>
      <trkpt lat="44.45147" lon="1.48452">
        <ele>511.6</ele>
        <time>2024-02-10T09:22:44Z</time>
      </trkpt>
      <trkpt lat="44.45148" lon="1.48452">
        <ele>511.6</ele>
        <time>2024-02-10T09:22:45Z</time>
      </trkpt>
      <trkpt lat="44.45149" lon="1.48452">
        <ele>511.4</ele>
        <time>2024-02-10T09:22:47Z</time>
      </trkpt>
      <trkpt lat="44.45147" lon="1.48452">
        <ele>511.6</ele>
        <time>2024-02-10T09:22:49Z</time>
      </trkpt>
      <trkpt lat="44.45145" lon="1.48452">
        <ele>511.6</ele>
        <time>2024-02-10T09:22:51Z</time>
      </trkpt>
      <trkpt lat="44.45141" lon="1.48454">
        <ele>511.6</ele>
        <time>2024-02-10T09:22:53Z</time>
      </trkpt>
      <trkpt lat="44.45137" lon="1.48455">
        <ele>511.6</ele>
        <time>2024-02-10T09:22:55Z</time>
      </trkpt>
      <trkpt lat="44.45135" lon="1.48456">
        <ele>511.6</ele>
        <time>2024-02-10T09:22:57Z</time>
      </trkpt>
      <trkpt lat="44.45132" lon="1.48455">
        <ele>511.4</ele>
        <time>2024-02-10T09:22:59Z</time>
      </trkpt>
      <trkpt lat="44.45131" lon="1.48452">
        <ele>511.6</ele>
        <time>2024-02-10T09:23:00Z</time>
      </trkpt>
      <trkpt lat="44.4513" lon="1.48448">
        <ele>511.6</ele>
        <time>2024-02-10T09:23:01Z</time>
      </trkpt>
      <trkpt lat="44.45133" lon="1.48432">
        <ele>511.6</ele>
        <time>2024-02-10T09:23:03Z</time>
      </trkpt>
      <trkpt lat="44.45138" lon="1.48415">
        <ele>511.6</ele>
        <time>2024-02-10T09:23:05Z</time>
      </trkpt>
      <trkpt lat="44.45139" lon="1.48406">
        <ele>511.4</ele>
        <time>2024-02-10T09:23:06Z</time>
      </trkpt>
      <trkpt lat="44.45139" lon="1.48396">
        <ele>511.4</ele>
        <time>2024-02-10T09:23:07Z</time>
      </trkpt>
      <trkpt lat="44.45137" lon="1.4838">
        <ele>511.4</ele>
        <time>2024-02-10T09:23:09Z</time>
      </trkpt>
      <trkpt lat="44.45138" lon="1.48367">
        <ele>511.4</ele>
        <time>2024-02-10T09:23:11Z</time>
      </trkpt>
      <trkpt lat="44.45136" lon="1.48361">
        <ele>511</ele>
        <time>2024-02-10T09:23:12Z</time>
      </trkpt>
      <trkpt lat="44.45134" lon="1.48356">
        <ele>510.8</ele>
        <time>2024-02-10T09:23:13Z</time>
      </trkpt>
      <trkpt lat="44.45132" lon="1.48343">
        <ele>510.8</ele>
        <time>2024-02-10T09:23:15Z</time>
      </trkpt>
      <trkpt lat="44.45129" lon="1.48337">
        <ele>510.8</ele>
        <time>2024-02-10T09:23:16Z</time>
      </trkpt>
      <trkpt lat="44.45126" lon="1.4833">
        <ele>510.4</ele>
        <time>2024-02-10T09:23:17Z</time>
      </trkpt>
      <trkpt lat="44.45118" lon="1.48321">
        <ele>510</ele>
        <time>2024-02-10T09:23:19Z</time>
      </trkpt>
      <trkpt lat="44.45114" lon="1.4832">
        <ele>509.8</ele>
        <time>2024-02-10T09:23:20Z</time>
      </trkpt>
      <trkpt lat="44.45111" lon="1.4832">
        <ele>509.6</ele>
        <time>2024-02-10T09:23:21Z</time>
      </trkpt>
      <trkpt lat="44.45106" lon="1.48318">
        <ele>509.6</ele>
        <time>2024-02-10T09:23:22Z</time>
      </trkpt>
      <trkpt lat="44.45103" lon="1.48312">
        <ele>509.4</ele>
        <time>2024-02-10T09:23:23Z</time>
      </trkpt>
      <trkpt lat="44.451" lon="1.48304">
        <ele>509.4</ele>
        <time>2024-02-10T09:23:24Z</time>
      </trkpt>
      <trkpt lat="44.45096" lon="1.48295">
        <ele>509.4</ele>
        <time>2024-02-10T09:23:25Z</time>
      </trkpt>
      <trkpt lat="44.45093" lon="1.48289">
        <ele>509.2</ele>
        <time>2024-02-10T09:23:26Z</time>
      </trkpt>
      <trkpt lat="44.45088" lon="1.48287">
        <ele>509</ele>
        <time>2024-02-10T09:23:27Z</time>
      </trkpt>
      <trkpt lat="44.45076" lon="1.48288">
        <ele>509</ele>
        <time>2024-02-10T09:23:29Z</time>
      </trkpt>
      <trkpt lat="44.45069" lon="1.4829">
        <ele>509</ele>
        <time>2024-02-10T09:23:30Z</time>
      </trkpt>
      <trkpt lat="44.45061" lon="1.48294">
        <ele>508.8</ele>
        <time>2024-02-10T09:23:31Z</time>
      </trkpt>
      <trkpt lat="44.45047" lon="1.48306">
        <ele>508.8</ele>
        <time>2024-02-10T09:23:33Z</time>
      </trkpt>
      <trkpt lat="44.45037" lon="1.48319">
        <ele>508.4</ele>
        <time>2024-02-10T09:23:35Z</time>
      </trkpt>
      <trkpt lat="44.45034" lon="1.48324">
        <ele>508.4</ele>
        <time>2024-02-10T09:23:36Z</time>
      </trkpt>
      <trkpt lat="44.45031" lon="1.48329">
        <ele>508.2</ele>
        <time>2024-02-10T09:23:37Z</time>
      </trkpt>
      <trkpt lat="44.45026" lon="1.4834">
        <ele>508.2</ele>
        <time>2024-02-10T09:23:39Z</time>
      </trkpt>
      <trkpt lat="44.4502" lon="1.48343">
        <ele>507.6</ele>
        <time>2024-02-10T09:23:41Z</time>
      </trkpt>
      <trkpt lat="44.45016" lon="1.4834">
        <ele>507.6</ele>
        <time>2024-02-10T09:23:42Z</time>
      </trkpt>
      <trkpt lat="44.45015" lon="1.48334">
        <ele>507.4</ele>
        <time>2024-02-10T09:23:43Z</time>
      </trkpt>
      <trkpt lat="44.45013" lon="1.48328">
        <ele>507.4</ele>
        <time>2024-02-10T09:23:44Z</time>
      </trkpt>
      <trkpt lat="44.4501" lon="1.4832">
        <ele>507</ele>
        <time>2024-02-10T09:23:45Z</time>
      </trkpt>
      <trkpt lat="44.45008" lon="1.48302">
        <ele>507</ele>
        <time>2024-02-10T09:23:47Z</time>
      </trkpt>
      <trkpt lat="44.45009" lon="1.48291">
        <ele>506.8</ele>
        <time>2024-02-10T09:23:48Z</time>
      </trkpt>
      <trkpt lat="44.4501" lon="1.48279">
        <ele>506.6</ele>
        <time>2024-02-10T09:23:49Z</time>
      </trkpt>
      <trkpt lat="44.45012" lon="1.48267">
        <ele>506.4</ele>
        <time>2024-02-10T09:23:51Z</time>
      </trkpt>
      <trkpt lat="44.45013" lon="1.48263">
        <ele>506.2</ele>
        <time>2024-02-10T09:23:53Z</time>
      </trkpt>
      <trkpt lat="44.45013" lon="1.48262">
        <ele>506</ele>
        <time>2024-02-10T09:23:55Z</time>
      </trkpt>
      <trkpt lat="44.45014" lon="1.48261">
        <ele>505.6</ele>
        <time>2024-02-10T09:23:56Z</time>
      </trkpt>
      <trkpt lat="44.45013" lon="1.48261">
        <ele>505.2</ele>
        <time>2024-02-10T09:23:57Z</time>
      </trkpt>
      <trkpt lat="44.45013" lon="1.48261">
        <ele>505</ele>
        <time>2024-02-10T09:23:59Z</time>
      </trkpt>
      <trkpt lat="44.45014" lon="1.4826">
        <ele>505</ele>
        <time>2024-02-10T09:24:00Z</time>
      </trkpt>
      <trkpt lat="44.45014" lon="1.48259">
        <ele>505</ele>
        <time>2024-02-10T09:24:01Z</time>
      </trkpt>
      <trkpt lat="44.45012" lon="1.48257">
        <ele>504.8</ele>
        <time>2024-02-10T09:24:03Z</time>
      </trkpt>
      <trkpt lat="44.45012" lon="1.48256">
        <ele>504.6</ele>
        <time>2024-02-10T09:24:05Z</time>
      </trkpt>
      <trkpt lat="44.45012" lon="1.48256">
        <ele>504.8</ele>
        <time>2024-02-10T09:24:07Z</time>
      </trkpt>
      <trkpt lat="44.45013" lon="1.48257">
        <ele>504.8</ele>
        <time>2024-02-10T09:24:09Z</time>
      </trkpt>
      <trkpt lat="44.45013" lon="1.48258">
        <ele>504.6</ele>
        <time>2024-02-10T09:24:10Z</time>
      </trkpt>
      <trkpt lat="44.45013" lon="1.48258">
        <ele>504.6</ele>
        <time>2024-02-10T09:24:11Z</time>
      </trkpt>
      <trkpt lat="44.45012" lon="1.48259">
        <ele>504.4</ele>
        <time>2024-02-10T09:24:13Z</time>
      </trkpt>
      <trkpt lat="44.45012" lon="1.48263">
        <ele>504.2</ele>
        <time>2024-02-10T09:24:15Z</time>
      </trkpt>
      <trkpt lat="44.45011" lon="1.48267">
        <ele>504.2</ele>
        <time>2024-02-10T09:24:17Z</time>
      </trkpt>
      <trkpt lat="44.45012" lon="1.48267">
        <ele>504.2</ele>
        <time>2024-02-10T09:24:18Z</time>
      </trkpt>
      <trkpt lat="44.45012" lon="1.48268">
        <ele>504.2</ele>
        <time>2024-02-10T09:24:19Z</time>
      </trkpt>
      <trkpt lat="44.45016" lon="1.48267">
        <ele>504.2</ele>
        <time>2024-02-10T09:24:21Z</time>
      </trkpt>
      <trkpt lat="44.45018" lon="1.48265">
        <ele>504</ele>
        <time>2024-02-10T09:24:22Z</time>
      </trkpt>
      <trkpt lat="44.45019" lon="1.48262">
        <ele>504.2</ele>
        <time>2024-02-10T09:24:23Z</time>
      </trkpt>
      <trkpt lat="44.45023" lon="1.48258">
        <ele>504.2</ele>
        <time>2024-02-10T09:24:25Z</time>
      </trkpt>
      <trkpt lat="44.45028" lon="1.4825">
        <ele>504</ele>
        <time>2024-02-10T09:24:27Z</time>
      </trkpt>
      <trkpt lat="44.45031" lon="1.48245">
        <ele>504</ele>
        <time>2024-02-10T09:24:28Z</time>
      </trkpt>
      <trkpt lat="44.45034" lon="1.48239">
        <ele>504</ele>
        <time>2024-02-10T09:24:29Z</time>
      </trkpt>
      <trkpt lat="44.45037" lon="1.48232">
        <ele>504</ele>
        <time>2024-02-10T09:24:30Z</time>
      </trkpt>
      <trkpt lat="44.4504" lon="1.48227">
        <ele>504</ele>
        <time>2024-02-10T09:24:31Z</time>
      </trkpt>
      <trkpt lat="44.45042" lon="1.48222">
        <ele>503.8</ele>
        <time>2024-02-10T09:24:32Z</time>
      </trkpt>
      <trkpt lat="44.45045" lon="1.48217">
        <ele>503.8</ele>
        <time>2024-02-10T09:24:33Z</time>
      </trkpt>
      <trkpt lat="44.45052" lon="1.48208">
        <ele>503.8</ele>
        <time>2024-02-10T09:24:35Z</time>
      </trkpt>
      <trkpt lat="44.45055" lon="1.48205">
        <ele>503.8</ele>
        <time>2024-02-10T09:24:36Z</time>
      </trkpt>
      <trkpt lat="44.45058" lon="1.48201">
        <ele>503.8</ele>
        <time>2024-02-10T09:24:37Z</time>
      </trkpt>
      <trkpt lat="44.45063" lon="1.48192">
        <ele>503.6</ele>
        <time>2024-02-10T09:24:39Z</time>
      </trkpt>
      <trkpt lat="44.45069" lon="1.48184">
        <ele>503.6</ele>
        <time>2024-02-10T09:24:41Z</time>
      </trkpt>
      <trkpt lat="44.45074" lon="1.48176">
        <ele>503.4</ele>
        <time>2024-02-10T09:24:43Z</time>
      </trkpt>
      <trkpt lat="44.45077" lon="1.48167">
        <ele>503.2</ele>
        <time>2024-02-10T09:24:45Z</time>
      </trkpt>
      <trkpt lat="44.45078" lon="1.48164">
        <ele>503.4</ele>
        <time>2024-02-10T09:24:46Z</time>
      </trkpt>
      <trkpt lat="44.4508" lon="1.48161">
        <ele>503.4</ele>
        <time>2024-02-10T09:24:47Z</time>
      </trkpt>
      <trkpt lat="44.45083" lon="1.48155">
        <ele>503.2</ele>
        <time>2024-02-10T09:24:49Z</time>
      </trkpt>
      <trkpt lat="44.45085" lon="1.48149">
        <ele>503.2</ele>
        <time>2024-02-10T09:24:50Z</time>
      </trkpt>
      <trkpt lat="44.45087" lon="1.48144">
        <ele>503.2</ele>
        <time>2024-02-10T09:24:51Z</time>
      </trkpt>
      <trkpt lat="44.45088" lon="1.48137">
        <ele>503</ele>
        <time>2024-02-10T09:24:53Z</time>
      </trkpt>
      <trkpt lat="44.45088" lon="1.48135">
        <ele>503</ele>
        <time>2024-02-10T09:24:54Z</time>
      </trkpt>
      <trkpt lat="44.45088" lon="1.48134">
        <ele>502.8</ele>
        <time>2024-02-10T09:24:55Z</time>
      </trkpt>
      <trkpt lat="44.45088" lon="1.48133">
        <ele>502.4</ele>
        <time>2024-02-10T09:24:57Z</time>
      </trkpt>
      <trkpt lat="44.45088" lon="1.48133">
        <ele>502</ele>
        <time>2024-02-10T09:24:58Z</time>
      </trkpt>
      <trkpt lat="44.45088" lon="1.48133">
        <ele>502</ele>
        <time>2024-02-10T09:24:59Z</time>
      </trkpt>
      <trkpt lat="44.45088" lon="1.48133">
        <ele>501.8</ele>
        <time>2024-02-10T09:25:01Z</time>
      </trkpt>
      <trkpt lat="44.45088" lon="1.48133">
        <ele>501.8</ele>
        <time>2024-02-10T09:25:03Z</time>
      </trkpt>
      <trkpt lat="44.45088" lon="1.48132">
        <ele>501.8</ele>
        <time>2024-02-10T09:25:05Z</time>
      </trkpt>
      <trkpt lat="44.4509" lon="1.48126">
        <ele>501.6</ele>
        <time>2024-02-10T09:25:07Z</time>
      </trkpt>
      <trkpt lat="44.45091" lon="1.48121">
        <ele>501.6</ele>
        <time>2024-02-10T09:25:08Z</time>
      </trkpt>
      <trkpt lat="44.45094" lon="1.48115">
        <ele>501.6</ele>
        <time>2024-02-10T09:25:09Z</time>
      </trkpt>
      <trkpt lat="44.45096" lon="1.48108">
        <ele>501.6</ele>
        <time>2024-02-10T09:25:10Z</time>
      </trkpt>
      <trkpt lat="44.45099" lon="1.48101">
        <ele>501.4</ele>
        <time>2024-02-10T09:25:11Z</time>
      </trkpt>
      <trkpt lat="44.45103" lon="1.48086">
        <ele>501.6</ele>
        <time>2024-02-10T09:25:13Z</time>
      </trkpt>
      <trkpt lat="44.45105" lon="1.48079">
        <ele>501.4</ele>
        <time>2024-02-10T09:25:15Z</time>
      </trkpt>
      <trkpt lat="44.45106" lon="1.48077">
        <ele>501.4</ele>
        <time>2024-02-10T09:25:16Z</time>
      </trkpt>
      <trkpt lat="44.45107" lon="1.48077">
        <ele>501.4</ele>
        <time>2024-02-10T09:25:17Z</time>
      </trkpt>
      <trkpt lat="44.45108" lon="1.48076">
        <ele>501</ele>
        <time>2024-02-10T09:25:19Z</time>
      </trkpt>
      <trkpt lat="44.4511" lon="1.48074">
        <ele>500.4</ele>
        <time>2024-02-10T09:25:21Z</time>
      </trkpt>
      <trkpt lat="44.45111" lon="1.48073">
        <ele>500.2</ele>
        <time>2024-02-10T09:25:22Z</time>
      </trkpt>
      <trkpt lat="44.45113" lon="1.48072">
        <ele>500</ele>
        <time>2024-02-10T09:25:23Z</time>
      </trkpt>
      <trkpt lat="44.45118" lon="1.48068">
        <ele>499.6</ele>
        <time>2024-02-10T09:25:25Z</time>
      </trkpt>
      <trkpt lat="44.45122" lon="1.48063">
        <ele>499.6</ele>
        <time>2024-02-10T09:25:27Z</time>
      </trkpt>
      <trkpt lat="44.45123" lon="1.48061">
        <ele>499.4</ele>
        <time>2024-02-10T09:25:28Z</time>
      </trkpt>
      <trkpt lat="44.45124" lon="1.4806">
        <ele>499.2</ele>
        <time>2024-02-10T09:25:29Z</time>
      </trkpt>
      <trkpt lat="44.45127" lon="1.48058">
        <ele>499.2</ele>
        <time>2024-02-10T09:25:31Z</time>
      </trkpt>
      <trkpt lat="44.4513" lon="1.48058">
        <ele>499</ele>
        <time>2024-02-10T09:25:33Z</time>
      </trkpt>
      <trkpt lat="44.45132" lon="1.48058">
        <ele>498.8</ele>
        <time>2024-02-10T09:25:35Z</time>
      </trkpt>
      <trkpt lat="44.45132" lon="1.48058">
        <ele>498.8</ele>
        <time>2024-02-10T09:25:36Z</time>
      </trkpt>
      <trkpt lat="44.45132" lon="1.48058">
        <ele>498.6</ele>
        <time>2024-02-10T09:25:37Z</time>
      </trkpt>
      <trkpt lat="44.45133" lon="1.48058">
        <ele>498.4</ele>
        <time>2024-02-10T09:25:39Z</time>
      </trkpt>
      <trkpt lat="44.45133" lon="1.48059">
        <ele>498.2</ele>
        <time>2024-02-10T09:25:41Z</time>
      </trkpt>
      <trkpt lat="44.45134" lon="1.48059">
        <ele>498.2</ele>
        <time>2024-02-10T09:25:43Z</time>
      </trkpt>
      <trkpt lat="44.45135" lon="1.48059">
        <ele>498</ele>
        <time>2024-02-10T09:25:45Z</time>
      </trkpt>
      <trkpt lat="44.45137" lon="1.48058">
        <ele>498</ele>
        <time>2024-02-10T09:25:47Z</time>
      </trkpt>
      <trkpt lat="44.45139" lon="1.48057">
        <ele>498</ele>
        <time>2024-02-10T09:25:49Z</time>
      </trkpt>
      <trkpt lat="44.45146" lon="1.48056">
        <ele>497.8</ele>
        <time>2024-02-10T09:25:51Z</time>
      </trkpt>
      <trkpt lat="44.45149" lon="1.48054">
        <ele>498</ele>
        <time>2024-02-10T09:25:52Z</time>
      </trkpt>
      <trkpt lat="44.45153" lon="1.48053">
        <ele>497.8</ele>
        <time>2024-02-10T09:25:53Z</time>
      </trkpt>
      <trkpt lat="44.45157" lon="1.48053">
        <ele>497.6</ele>
        <time>2024-02-10T09:25:55Z</time>
      </trkpt>
      <trkpt lat="44.45157" lon="1.48052">
        <ele>497.6</ele>
        <time>2024-02-10T09:25:56Z</time>
      </trkpt>
      <trkpt lat="44.45158" lon="1.48052">
        <ele>497.2</ele>
        <time>2024-02-10T09:25:57Z</time>
      </trkpt>
      <trkpt lat="44.45158" lon="1.48052">
        <ele>496.8</ele>
        <time>2024-02-10T09:25:59Z</time>
      </trkpt>
      <trkpt lat="44.45158" lon="1.48053">
        <ele>496.4</ele>
        <time>2024-02-10T09:26:01Z</time>
      </trkpt>
      <trkpt lat="44.45158" lon="1.48053">
        <ele>496.4</ele>
        <time>2024-02-10T09:26:03Z</time>
      </trkpt>
      <trkpt lat="44.45158" lon="1.48053">
        <ele>496.4</ele>
        <time>2024-02-10T09:26:05Z</time>
      </trkpt>
      <trkpt lat="44.45159" lon="1.48053">
        <ele>496.4</ele>
        <time>2024-02-10T09:26:07Z</time>
      </trkpt>
      <trkpt lat="44.45159" lon="1.48053">
        <ele>496.2</ele>
        <time>2024-02-10T09:26:09Z</time>
      </trkpt>
      <trkpt lat="44.45159" lon="1.48053">
        <ele>496.2</ele>
        <time>2024-02-10T09:26:10Z</time>
      </trkpt>
      <trkpt lat="44.45159" lon="1.48053">
        <ele>496.2</ele>
        <time>2024-02-10T09:26:11Z</time>
      </trkpt>
      <trkpt lat="44.45159" lon="1.48053">
        <ele>496</ele>
        <time>2024-02-10T09:26:13Z</time>
      </trkpt>
      <trkpt lat="44.45159" lon="1.48053">
        <ele>495.8</ele>
        <time>2024-02-10T09:26:15Z</time>
      </trkpt>
      <trkpt lat="44.45159" lon="1.48053">
        <ele>496</ele>
        <time>2024-02-10T09:26:17Z</time>
      </trkpt>
      <trkpt lat="44.45159" lon="1.48053">
        <ele>495.8</ele>
        <time>2024-02-10T09:26:19Z</time>
      </trkpt>
      <trkpt lat="44.45159" lon="1.48053">
        <ele>495.8</ele>
        <time>2024-02-10T09:26:21Z</time>
      </trkpt>
      <trkpt lat="44.45159" lon="1.48053">
        <ele>495.6</ele>
        <time>2024-02-10T09:26:23Z</time>
      </trkpt>
      <trkpt lat="44.45159" lon="1.48053">
        <ele>495.6</ele>
        <time>2024-02-10T09:26:25Z</time>
      </trkpt>
      <trkpt lat="44.45159" lon="1.48053">
        <ele>495.4</ele>
        <time>2024-02-10T09:26:27Z</time>
      </trkpt>
      <trkpt lat="44.45159" lon="1.48053">
        <ele>495.2</ele>
        <time>2024-02-10T09:26:29Z</time>
      </trkpt>
      <trkpt lat="44.45159" lon="1.48053">
        <ele>495.2</ele>
        <time>2024-02-10T09:26:30Z</time>
      </trkpt>
      <trkpt lat="44.45159" lon="1.48053">
        <ele>495.2</ele>
        <time>2024-02-10T09:26:31Z</time>
      </trkpt>
      <trkpt lat="44.45159" lon="1.48053">
        <ele>495</ele>
        <time>2024-02-10T09:26:33Z</time>
      </trkpt>
      <trkpt lat="44.45159" lon="1.48053">
        <ele>495.2</ele>
        <time>2024-02-10T09:26:35Z</time>
      </trkpt>
      <trkpt lat="44.45159" lon="1.48053">
        <ele>495.2</ele>
        <time>2024-02-10T09:26:37Z</time>
      </trkpt>
      <trkpt lat="44.45159" lon="1.48053">
        <ele>495</ele>
        <time>2024-02-10T09:26:39Z</time>
      </trkpt>
      <trkpt lat="44.4516" lon="1.48053">
        <ele>494.8</ele>
        <time>2024-02-10T09:26:41Z</time>
      </trkpt>
      <trkpt lat="44.4516" lon="1.48053">
        <ele>494.8</ele>
        <time>2024-02-10T09:26:43Z</time>
      </trkpt>
      <trkpt lat="44.4516" lon="1.48052">
        <ele>494.6</ele>
        <time>2024-02-10T09:26:45Z</time>
      </trkpt>
      <trkpt lat="44.45161" lon="1.48052">
        <ele>494.6</ele>
        <time>2024-02-10T09:26:47Z</time>
      </trkpt>
      <trkpt lat="44.45161" lon="1.48052">
        <ele>494.6</ele>
        <time>2024-02-10T09:26:49Z</time>
      </trkpt>
      <trkpt lat="44.45161" lon="1.48052">
        <ele>494.6</ele>
        <time>2024-02-10T09:26:50Z</time>
      </trkpt>
      <trkpt lat="44.45161" lon="1.48052">
        <ele>494.4</ele>
        <time>2024-02-10T09:26:51Z</time>
      </trkpt>
      <trkpt lat="44.45161" lon="1.48052">
        <ele>494.4</ele>
        <time>2024-02-10T09:26:53Z</time>
      </trkpt>
      <trkpt lat="44.45161" lon="1.48051">
        <ele>494.2</ele>
        <time>2024-02-10T09:26:55Z</time>
      </trkpt>
      <trkpt lat="44.45161" lon="1.48051">
        <ele>494.2</ele>
        <time>2024-02-10T09:26:57Z</time>
      </trkpt>
      <trkpt lat="44.45161" lon="1.48051">
        <ele>494.2</ele>
        <time>2024-02-10T09:26:59Z</time>
      </trkpt>
      <trkpt lat="44.45161" lon="1.48051">
        <ele>494</ele>
        <time>2024-02-10T09:27:01Z</time>
      </trkpt>
      <trkpt lat="44.45161" lon="1.48051">
        <ele>493.8</ele>
        <time>2024-02-10T09:27:03Z</time>
      </trkpt>
      <trkpt lat="44.45161" lon="1.48051">
        <ele>494</ele>
        <time>2024-02-10T09:27:05Z</time>
      </trkpt>
      <trkpt lat="44.45161" lon="1.4805">
        <ele>493.8</ele>
        <time>2024-02-10T09:27:06Z</time>
      </trkpt>
      <trkpt lat="44.45161" lon="1.4805">
        <ele>494</ele>
        <time>2024-02-10T09:27:07Z</time>
      </trkpt>
      <trkpt lat="44.45161" lon="1.48051">
        <ele>493.6</ele>
        <time>2024-02-10T09:27:09Z</time>
      </trkpt>
      <trkpt lat="44.45162" lon="1.4805">
        <ele>493.6</ele>
        <time>2024-02-10T09:27:10Z</time>
      </trkpt>
      <trkpt lat="44.45162" lon="1.48051">
        <ele>493.6</ele>
        <time>2024-02-10T09:27:11Z</time>
      </trkpt>
      <trkpt lat="44.45162" lon="1.4805">
        <ele>493.6</ele>
        <time>2024-02-10T09:27:13Z</time>
      </trkpt>
      <trkpt lat="44.45162" lon="1.4805">
        <ele>493.4</ele>
        <time>2024-02-10T09:27:15Z</time>
      </trkpt>
      <trkpt lat="44.45163" lon="1.4805">
        <ele>493.4</ele>
        <time>2024-02-10T09:27:17Z</time>
      </trkpt>
      <trkpt lat="44.45163" lon="1.4805">
        <ele>493.4</ele>
        <time>2024-02-10T09:27:18Z</time>
      </trkpt>
      <trkpt lat="44.45163" lon="1.4805">
        <ele>493.4</ele>
        <time>2024-02-10T09:27:19Z</time>
      </trkpt>
      <trkpt lat="44.45163" lon="1.4805">
        <ele>493.2</ele>
        <time>2024-02-10T09:27:21Z</time>
      </trkpt>
      <trkpt lat="44.45163" lon="1.4805">
        <ele>493</ele>
        <time>2024-02-10T09:27:23Z</time>
      </trkpt>
      <trkpt lat="44.45163" lon="1.4805">
        <ele>493</ele>
        <time>2024-02-10T09:27:25Z</time>
      </trkpt>
      <trkpt lat="44.45163" lon="1.4805">
        <ele>493.2</ele>
        <time>2024-02-10T09:27:27Z</time>
      </trkpt>
      <trkpt lat="44.45163" lon="1.4805">
        <ele>493</ele>
        <time>2024-02-10T09:27:29Z</time>
      </trkpt>
      <trkpt lat="44.45163" lon="1.4805">
        <ele>493.2</ele>
        <time>2024-02-10T09:27:30Z</time>
      </trkpt>
      <trkpt lat="44.45164" lon="1.4805">
        <ele>493</ele>
        <time>2024-02-10T09:27:31Z</time>
      </trkpt>
      <trkpt lat="44.45164" lon="1.4805">
        <ele>493</ele>
        <time>2024-02-10T09:27:33Z</time>
      </trkpt>
      <trkpt lat="44.45164" lon="1.4805">
        <ele>493</ele>
        <time>2024-02-10T09:27:35Z</time>
      </trkpt>
      <trkpt lat="44.45164" lon="1.4805">
        <ele>492.8</ele>
        <time>2024-02-10T09:27:37Z</time>
      </trkpt>
      <trkpt lat="44.45164" lon="1.4805">
        <ele>492.8</ele>
        <time>2024-02-10T09:27:39Z</time>
      </trkpt>
      <trkpt lat="44.45164" lon="1.4805">
        <ele>492.6</ele>
        <time>2024-02-10T09:27:41Z</time>
      </trkpt>
      <trkpt lat="44.45164" lon="1.4805">
        <ele>492.8</ele>
        <time>2024-02-10T09:27:43Z</time>
      </trkpt>
      <trkpt lat="44.45164" lon="1.4805">
        <ele>492.6</ele>
        <time>2024-02-10T09:27:44Z</time>
      </trkpt>
      <trkpt lat="44.45164" lon="1.4805">
        <ele>492.6</ele>
        <time>2024-02-10T09:27:45Z</time>
      </trkpt>
      <trkpt lat="44.45164" lon="1.48051">
        <ele>492.6</ele>
        <time>2024-02-10T09:27:47Z</time>
      </trkpt>
      <trkpt lat="44.45164" lon="1.48052">
        <ele>492.6</ele>
        <time>2024-02-10T09:27:49Z</time>
      </trkpt>
      <trkpt lat="44.45164" lon="1.48052">
        <ele>492.6</ele>
        <time>2024-02-10T09:27:51Z</time>
      </trkpt>
      <trkpt lat="44.45165" lon="1.48055">
        <ele>492.6</ele>
        <time>2024-02-10T09:27:53Z</time>
      </trkpt>
      <trkpt lat="44.45165" lon="1.48055">
        <ele>492.4</ele>
        <time>2024-02-10T09:27:55Z</time>
      </trkpt>
      <trkpt lat="44.45165" lon="1.48055">
        <ele>492.2</ele>
        <time>2024-02-10T09:27:56Z</time>
      </trkpt>
      <trkpt lat="44.45166" lon="1.48055">
        <ele>492.4</ele>
        <time>2024-02-10T09:27:57Z</time>
      </trkpt>
      <trkpt lat="44.45166" lon="1.48054">
        <ele>492.2</ele>
        <time>2024-02-10T09:27:59Z</time>
      </trkpt>
      <trkpt lat="44.45166" lon="1.48054">
        <ele>492.2</ele>
        <time>2024-02-10T09:28:01Z</time>
      </trkpt>
      <trkpt lat="44.45167" lon="1.48053">
        <ele>492</ele>
        <time>2024-02-10T09:28:03Z</time>
      </trkpt>
      <trkpt lat="44.45167" lon="1.48052">
        <ele>491.8</ele>
        <time>2024-02-10T09:28:05Z</time>
      </trkpt>
      <trkpt lat="44.45167" lon="1.48052">
        <ele>492</ele>
        <time>2024-02-10T09:28:06Z</time>
      </trkpt>
      <trkpt lat="44.45167" lon="1.48052">
        <ele>492</ele>
        <time>2024-02-10T09:28:07Z</time>
      </trkpt>
      <trkpt lat="44.45167" lon="1.48051">
        <ele>491.8</ele>
        <time>2024-02-10T09:28:09Z</time>
      </trkpt>
      <trkpt lat="44.45167" lon="1.4805">
        <ele>492</ele>
        <time>2024-02-10T09:28:11Z</time>
      </trkpt>
      <trkpt lat="44.45167" lon="1.48049">
        <ele>491.8</ele>
        <time>2024-02-10T09:28:13Z</time>
      </trkpt>
      <trkpt lat="44.45167" lon="1.48049">
        <ele>491.8</ele>
        <time>2024-02-10T09:28:15Z</time>
      </trkpt>
      <trkpt lat="44.45167" lon="1.48048">
        <ele>491.6</ele>
        <time>2024-02-10T09:28:17Z</time>
      </trkpt>
      <trkpt lat="44.45167" lon="1.48048">
        <ele>491.6</ele>
        <time>2024-02-10T09:28:19Z</time>
      </trkpt>
      <trkpt lat="44.45167" lon="1.48048">
        <ele>491.6</ele>
        <time>2024-02-10T09:28:21Z</time>
      </trkpt>
      <trkpt lat="44.45167" lon="1.48048">
        <ele>491.6</ele>
        <time>2024-02-10T09:28:23Z</time>
      </trkpt>
      <trkpt lat="44.45168" lon="1.48048">
        <ele>491.6</ele>
        <time>2024-02-10T09:28:25Z</time>
      </trkpt>
      <trkpt lat="44.45167" lon="1.48048">
        <ele>491.4</ele>
        <time>2024-02-10T09:28:27Z</time>
      </trkpt>
      <trkpt lat="44.45168" lon="1.48048">
        <ele>491.2</ele>
        <time>2024-02-10T09:28:29Z</time>
      </trkpt>
      <trkpt lat="44.45168" lon="1.48047">
        <ele>491.4</ele>
        <time>2024-02-10T09:28:31Z</time>
      </trkpt>
      <trkpt lat="44.45169" lon="1.48048">
        <ele>491.4</ele>
        <time>2024-02-10T09:28:33Z</time>
      </trkpt>
      <trkpt lat="44.45171" lon="1.48048">
        <ele>491.2</ele>
        <time>2024-02-10T09:28:35Z</time>
      </trkpt>
      <trkpt lat="44.45172" lon="1.48047">
        <ele>491.2</ele>
        <time>2024-02-10T09:28:36Z</time>
      </trkpt>
      <trkpt lat="44.45171" lon="1.48046">
        <ele>491.2</ele>
        <time>2024-02-10T09:28:37Z</time>
      </trkpt>
      <trkpt lat="44.45169" lon="1.48045">
        <ele>491</ele>
        <time>2024-02-10T09:28:39Z</time>
      </trkpt>
      <trkpt lat="44.45167" lon="1.48044">
        <ele>490.8</ele>
        <time>2024-02-10T09:28:40Z</time>
      </trkpt>
      <trkpt lat="44.45164" lon="1.48043">
        <ele>491</ele>
        <time>2024-02-10T09:28:41Z</time>
      </trkpt>
      <trkpt lat="44.45161" lon="1.48042">
        <ele>490.8</ele>
        <time>2024-02-10T09:28:43Z</time>
      </trkpt>
      <trkpt lat="44.45159" lon="1.48042">
        <ele>490.8</ele>
        <time>2024-02-10T09:28:44Z</time>
      </trkpt>
      <trkpt lat="44.45159" lon="1.48042">
        <ele>490.8</ele>
        <time>2024-02-10T09:28:45Z</time>
      </trkpt>
      <trkpt lat="44.45159" lon="1.48041">
        <ele>490.6</ele>
        <time>2024-02-10T09:28:46Z</time>
      </trkpt>
      <trkpt lat="44.45158" lon="1.48041">
        <ele>490.6</ele>
        <time>2024-02-10T09:28:47Z</time>
      </trkpt>
      <trkpt lat="44.45157" lon="1.48041">
        <ele>490.4</ele>
        <time>2024-02-10T09:28:49Z</time>
      </trkpt>
      <trkpt lat="44.45157" lon="1.48042">
        <ele>490.4</ele>
        <time>2024-02-10T09:28:51Z</time>
      </trkpt>
      <trkpt lat="44.45157" lon="1.48041">
        <ele>490.4</ele>
        <time>2024-02-10T09:28:53Z</time>
      </trkpt>
      <trkpt lat="44.45155" lon="1.48041">
        <ele>490.2</ele>
        <time>2024-02-10T09:28:55Z</time>
      </trkpt>
      <trkpt lat="44.45154" lon="1.48039">
        <ele>490</ele>
        <time>2024-02-10T09:28:57Z</time>
      </trkpt>
      <trkpt lat="44.45153" lon="1.48039">
        <ele>490.2</ele>
        <time>2024-02-10T09:28:58Z</time>
      </trkpt>
      <trkpt lat="44.45153" lon="1.48038">
        <ele>490</ele>
        <time>2024-02-10T09:28:59Z</time>
      </trkpt>
      <trkpt lat="44.45153" lon="1.48038">
        <ele>490</ele>
        <time>2024-02-10T09:29:00Z</time>
      </trkpt>
      <trkpt lat="44.45153" lon="1.48037">
        <ele>490</ele>
        <time>2024-02-10T09:29:01Z</time>
      </trkpt>
      <trkpt lat="44.45154" lon="1.48037">
        <ele>490</ele>
        <time>2024-02-10T09:29:03Z</time>
      </trkpt>
      <trkpt lat="44.45154" lon="1.48038">
        <ele>489.8</ele>
        <time>2024-02-10T09:29:05Z</time>
      </trkpt>
      <trkpt lat="44.45155" lon="1.48039">
        <ele>490</ele>
        <time>2024-02-10T09:29:07Z</time>
      </trkpt>
      <trkpt lat="44.45156" lon="1.4804">
        <ele>489.8</ele>
        <time>2024-02-10T09:29:09Z</time>
      </trkpt>
      <trkpt lat="44.45158" lon="1.4804">
        <ele>489.8</ele>
        <time>2024-02-10T09:29:11Z</time>
      </trkpt>
      <trkpt lat="44.45159" lon="1.48041">
        <ele>489.6</ele>
        <time>2024-02-10T09:29:12Z</time>
      </trkpt>
      <trkpt lat="44.45159" lon="1.48041">
        <ele>489.6</ele>
        <time>2024-02-10T09:29:13Z</time>
      </trkpt>
      <trkpt lat="44.4516" lon="1.48042">
        <ele>489.4</ele>
        <time>2024-02-10T09:29:15Z</time>
      </trkpt>
      <trkpt lat="44.4516" lon="1.48042">
        <ele>489.4</ele>
        <time>2024-02-10T09:29:16Z</time>
      </trkpt>
      <trkpt lat="44.45159" lon="1.48042">
        <ele>489.4</ele>
        <time>2024-02-10T09:29:17Z</time>
      </trkpt>
      <trkpt lat="44.45158" lon="1.4804">
        <ele>489.4</ele>
        <time>2024-02-10T09:29:19Z</time>
      </trkpt>
      <trkpt lat="44.45157" lon="1.4804">
        <ele>489.4</ele>
        <time>2024-02-10T09:29:20Z</time>
      </trkpt>
      <trkpt lat="44.45155" lon="1.4804">
        <ele>489.2</ele>
        <time>2024-02-10T09:29:21Z</time>
      </trkpt>
      <trkpt lat="44.45155" lon="1.48039">
        <ele>489.2</ele>
        <time>2024-02-10T09:29:22Z</time>
      </trkpt>
      <trkpt lat="44.45154" lon="1.48039">
        <ele>489.2</ele>
        <time>2024-02-10T09:29:23Z</time>
      </trkpt>
      <trkpt lat="44.45154" lon="1.4804">
        <ele>489</ele>
        <time>2024-02-10T09:29:25Z</time>
      </trkpt>
      <trkpt lat="44.45154" lon="1.48041">
        <ele>489</ele>
        <time>2024-02-10T09:29:27Z</time>
      </trkpt>
      <trkpt lat="44.45154" lon="1.48041">
        <ele>488.4</ele>
        <time>2024-02-10T09:29:29Z</time>
      </trkpt>
      <trkpt lat="44.45154" lon="1.48043">
        <ele>487.6</ele>
        <time>2024-02-10T09:29:31Z</time>
      </trkpt>
      <trkpt lat="44.45155" lon="1.48043">
        <ele>487.4</ele>
        <time>2024-02-10T09:29:32Z</time>
      </trkpt>
      <trkpt lat="44.45155" lon="1.48044">
        <ele>487.4</ele>
        <time>2024-02-10T09:29:33Z</time>
      </trkpt>
      <trkpt lat="44.45154" lon="1.48044">
        <ele>487.2</ele>
        <time>2024-02-10T09:29:35Z</time>
      </trkpt>
      <trkpt lat="44.45154" lon="1.48044">
        <ele>487</ele>
        <time>2024-02-10T09:29:37Z</time>
      </trkpt>
      <trkpt lat="44.45154" lon="1.48044">
        <ele>486.8</ele>
        <time>2024-02-10T09:29:39Z</time>
      </trkpt>
      <trkpt lat="44.45154" lon="1.48043">
        <ele>487</ele>
        <time>2024-02-10T09:29:40Z</time>
      </trkpt>
      <trkpt lat="44.45154" lon="1.48043">
        <ele>486.8</ele>
        <time>2024-02-10T09:29:41Z</time>
      </trkpt>
      <trkpt lat="44.45154" lon="1.48043">
        <ele>486.8</ele>
        <time>2024-02-10T09:29:42Z</time>
      </trkpt>
      <trkpt lat="44.45154" lon="1.48043">
        <ele>486.6</ele>
        <time>2024-02-10T09:29:43Z</time>
      </trkpt>
      <trkpt lat="44.45154" lon="1.48042">
        <ele>486.6</ele>
        <time>2024-02-10T09:29:45Z</time>
      </trkpt>
      <trkpt lat="44.45153" lon="1.48042">
        <ele>486.8</ele>
        <time>2024-02-10T09:29:47Z</time>
      </trkpt>
      <trkpt lat="44.45153" lon="1.48042">
        <ele>486.6</ele>
        <time>2024-02-10T09:29:49Z</time>
      </trkpt>
      <trkpt lat="44.45153" lon="1.48042">
        <ele>486.6</ele>
        <time>2024-02-10T09:29:51Z</time>
      </trkpt>
      <trkpt lat="44.45153" lon="1.48042">
        <ele>486.4</ele>
        <time>2024-02-10T09:29:53Z</time>
      </trkpt>
      <trkpt lat="44.45153" lon="1.48042">
        <ele>486.4</ele>
        <time>2024-02-10T09:29:55Z</time>
      </trkpt>
      <trkpt lat="44.45153" lon="1.48042">
        <ele>486.4</ele>
        <time>2024-02-10T09:29:56Z</time>
      </trkpt>
      <trkpt lat="44.45153" lon="1.48042">
        <ele>486.6</ele>
        <time>2024-02-10T09:29:57Z</time>
      </trkpt>
      <trkpt lat="44.45153" lon="1.48042">
        <ele>486.4</ele>
        <time>2024-02-10T09:29:59Z</time>
      </trkpt>
      <trkpt lat="44.45153" lon="1.48042">
        <ele>486.6</ele>
        <time>2024-02-10T09:30:01Z</time>
      </trkpt>
      <trkpt lat="44.45153" lon="1.48042">
        <ele>486.4</ele>
        <time>2024-02-10T09:30:03Z</time>
      </trkpt>
      <trkpt lat="44.45153" lon="1.48042">
        <ele>486.2</ele>
        <time>2024-02-10T09:30:05Z</time>
      </trkpt>
      <trkpt lat="44.45153" lon="1.48042">
        <ele>486.4</ele>
        <time>2024-02-10T09:30:07Z</time>
      </trkpt>
      <trkpt lat="44.45153" lon="1.48042">
        <ele>486.4</ele>
        <time>2024-02-10T09:30:09Z</time>
      </trkpt>
      <trkpt lat="44.45153" lon="1.48043">
        <ele>486.2</ele>
        <time>2024-02-10T09:30:11Z</time>
      </trkpt>
      <trkpt lat="44.45153" lon="1.48043">
        <ele>486.2</ele>
        <time>2024-02-10T09:30:13Z</time>
      </trkpt>
      <trkpt lat="44.45153" lon="1.48043">
        <ele>486</ele>
        <time>2024-02-10T09:30:14Z</time>
      </trkpt>
      <trkpt lat="44.45153" lon="1.48043">
        <ele>486</ele>
        <time>2024-02-10T09:30:15Z</time>
      </trkpt>
      <trkpt lat="44.45153" lon="1.48042">
        <ele>486.2</ele>
        <time>2024-02-10T09:30:17Z</time>
      </trkpt>
      <trkpt lat="44.45153" lon="1.48043">
        <ele>486</ele>
        <time>2024-02-10T09:30:19Z</time>
      </trkpt>
      <trkpt lat="44.45153" lon="1.48043">
        <ele>486</ele>
        <time>2024-02-10T09:30:21Z</time>
      </trkpt>
      <trkpt lat="44.45153" lon="1.48043">
        <ele>486</ele>
        <time>2024-02-10T09:30:23Z</time>
      </trkpt>
      <trkpt lat="44.45153" lon="1.48043">
        <ele>486</ele>
        <time>2024-02-10T09:30:25Z</time>
      </trkpt>
      <trkpt lat="44.45153" lon="1.48043">
        <ele>485.8</ele>
        <time>2024-02-10T09:30:27Z</time>
      </trkpt>
      <trkpt lat="44.45153" lon="1.48043">
        <ele>486</ele>
        <time>2024-02-10T09:30:29Z</time>
      </trkpt>
      <trkpt lat="44.45153" lon="1.48043">
        <ele>485.8</ele>
        <time>2024-02-10T09:30:31Z</time>
      </trkpt>
      <trkpt lat="44.45153" lon="1.48043">
        <ele>485.8</ele>
        <time>2024-02-10T09:30:32Z</time>
      </trkpt>
      <trkpt lat="44.45153" lon="1.48043">
        <ele>485.8</ele>
        <time>2024-02-10T09:30:33Z</time>
      </trkpt>
      <trkpt lat="44.45153" lon="1.48043">
        <ele>485.8</ele>
        <time>2024-02-10T09:30:35Z</time>
      </trkpt>
      <trkpt lat="44.45153" lon="1.48043">
        <ele>485.8</ele>
        <time>2024-02-10T09:30:37Z</time>
      </trkpt>
      <trkpt lat="44.45153" lon="1.48043">
        <ele>485.8</ele>
        <time>2024-02-10T09:30:39Z</time>
      </trkpt>
      <trkpt lat="44.45153" lon="1.48043">
        <ele>485.8</ele>
        <time>2024-02-10T09:30:41Z</time>
      </trkpt>
      <trkpt lat="44.45153" lon="1.48043">
        <ele>485.8</ele>
        <time>2024-02-10T09:30:43Z</time>
      </trkpt>
      <trkpt lat="44.45153" lon="1.48043">
        <ele>485.8</ele>
        <time>2024-02-10T09:30:45Z</time>
      </trkpt>
      <trkpt lat="44.45153" lon="1.48043">
        <ele>485.6</ele>
        <time>2024-02-10T09:30:47Z</time>
      </trkpt>
      <trkpt lat="44.45155" lon="1.48043">
        <ele>485.8</ele>
        <time>2024-02-10T09:30:49Z</time>
      </trkpt>
      <trkpt lat="44.45156" lon="1.48043">
        <ele>485.6</ele>
        <time>2024-02-10T09:30:51Z</time>
      </trkpt>
      <trkpt lat="44.45157" lon="1.48043">
        <ele>485.8</ele>
        <time>2024-02-10T09:30:52Z</time>
      </trkpt>
      <trkpt lat="44.45157" lon="1.48043">
        <ele>485.8</ele>
        <time>2024-02-10T09:30:53Z</time>
      </trkpt>
      <trkpt lat="44.45158" lon="1.48044">
        <ele>485.6</ele>
        <time>2024-02-10T09:30:55Z</time>
      </trkpt>
      <trkpt lat="44.45157" lon="1.48044">
        <ele>485.6</ele>
        <time>2024-02-10T09:30:57Z</time>
      </trkpt>
      <trkpt lat="44.45157" lon="1.48044">
        <ele>485.6</ele>
        <time>2024-02-10T09:30:59Z</time>
      </trkpt>
      <trkpt lat="44.45156" lon="1.48044">
        <ele>485.6</ele>
        <time>2024-02-10T09:31:01Z</time>
      </trkpt>
      <trkpt lat="44.45156" lon="1.48044">
        <ele>485.6</ele>
        <time>2024-02-10T09:31:03Z</time>
      </trkpt>
      <trkpt lat="44.45156" lon="1.48044">
        <ele>485.6</ele>
        <time>2024-02-10T09:31:05Z</time>
      </trkpt>
      <trkpt lat="44.45156" lon="1.48044">
        <ele>485.4</ele>
        <time>2024-02-10T09:31:07Z</time>
      </trkpt>
      <trkpt lat="44.45156" lon="1.48044">
        <ele>485.4</ele>
        <time>2024-02-10T09:31:08Z</time>
      </trkpt>
      <trkpt lat="44.45156" lon="1.48044">
        <ele>485.2</ele>
        <time>2024-02-10T09:31:09Z</time>
      </trkpt>
      <trkpt lat="44.45157" lon="1.48044">
        <ele>485.4</ele>
        <time>2024-02-10T09:31:11Z</time>
      </trkpt>
      <trkpt lat="44.45157" lon="1.48044">
        <ele>485.4</ele>
        <time>2024-02-10T09:31:13Z</time>
      </trkpt>
      <trkpt lat="44.45157" lon="1.48044">
        <ele>485.4</ele>
        <time>2024-02-10T09:31:15Z</time>
      </trkpt>
      <trkpt lat="44.45157" lon="1.48043">
        <ele>485.4</ele>
        <time>2024-02-10T09:31:17Z</time>
      </trkpt>
      <trkpt lat="44.45158" lon="1.48043">
        <ele>485.4</ele>
        <time>2024-02-10T09:31:19Z</time>
      </trkpt>
      <trkpt lat="44.45158" lon="1.48043">
        <ele>485.2</ele>
        <time>2024-02-10T09:31:21Z</time>
      </trkpt>
      <trkpt lat="44.45158" lon="1.48044">
        <ele>485.4</ele>
        <time>2024-02-10T09:31:23Z</time>
      </trkpt>
      <trkpt lat="44.45158" lon="1.48044">
        <ele>485.2</ele>
        <time>2024-02-10T09:31:25Z</time>
      </trkpt>
      <trkpt lat="44.45158" lon="1.48044">
        <ele>485.4</ele>
        <time>2024-02-10T09:31:27Z</time>
      </trkpt>
      <trkpt lat="44.45158" lon="1.48043">
        <ele>485.2</ele>
        <time>2024-02-10T09:31:29Z</time>
      </trkpt>
      <trkpt lat="44.45158" lon="1.48043">
        <ele>485.4</ele>
        <time>2024-02-10T09:31:31Z</time>
      </trkpt>
      <trkpt lat="44.45158" lon="1.48043">
        <ele>485.4</ele>
        <time>2024-02-10T09:31:32Z</time>
      </trkpt>
      <trkpt lat="44.45158" lon="1.48043">
        <ele>485.2</ele>
        <time>2024-02-10T09:31:33Z</time>
      </trkpt>
      <trkpt lat="44.45158" lon="1.48043">
        <ele>485</ele>
        <time>2024-02-10T09:31:35Z</time>
      </trkpt>
      <trkpt lat="44.45158" lon="1.48043">
        <ele>485</ele>
        <time>2024-02-10T09:31:37Z</time>
      </trkpt>
      <trkpt lat="44.45158" lon="1.48043">
        <ele>485</ele>
        <time>2024-02-10T09:31:39Z</time>
      </trkpt>
      <trkpt lat="44.45158" lon="1.48044">
        <ele>484.8</ele>
        <time>2024-02-10T09:31:41Z</time>
      </trkpt>
      <trkpt lat="44.45158" lon="1.48044">
        <ele>484.6</ele>
        <time>2024-02-10T09:31:42Z</time>
      </trkpt>
      <trkpt lat="44.45158" lon="1.48044">
        <ele>484.8</ele>
        <time>2024-02-10T09:31:43Z</time>
      </trkpt>
      <trkpt lat="44.45158" lon="1.48044">
        <ele>484.6</ele>
        <time>2024-02-10T09:31:45Z</time>
      </trkpt>
      <trkpt lat="44.45158" lon="1.48044">
        <ele>484.6</ele>
        <time>2024-02-10T09:31:47Z</time>
      </trkpt>
      <trkpt lat="44.45158" lon="1.48044">
        <ele>484.4</ele>
        <time>2024-02-10T09:31:49Z</time>
      </trkpt>
      <trkpt lat="44.45158" lon="1.48044">
        <ele>484.4</ele>
        <time>2024-02-10T09:31:51Z</time>
      </trkpt>
      <trkpt lat="44.45158" lon="1.48044">
        <ele>484.4</ele>
        <time>2024-02-10T09:31:53Z</time>
      </trkpt>
      <trkpt lat="44.45158" lon="1.48044">
        <ele>484.4</ele>
        <time>2024-02-10T09:31:55Z</time>
      </trkpt>
      <trkpt lat="44.45158" lon="1.48044">
        <ele>484.2</ele>
        <time>2024-02-10T09:31:57Z</time>
      </trkpt>
      <trkpt lat="44.45158" lon="1.48044">
        <ele>484.4</ele>
        <time>2024-02-10T09:31:58Z</time>
      </trkpt>
      <trkpt lat="44.45158" lon="1.48044">
        <ele>484.4</ele>
        <time>2024-02-10T09:31:59Z</time>
      </trkpt>
      <trkpt lat="44.45158" lon="1.48045">
        <ele>484.4</ele>
        <time>2024-02-10T09:32:01Z</time>
      </trkpt>
      <trkpt lat="44.45158" lon="1.48046">
        <ele>484.2</ele>
        <time>2024-02-10T09:32:03Z</time>
      </trkpt>
      <trkpt lat="44.45159" lon="1.48046">
        <ele>484</ele>
        <time>2024-02-10T09:32:05Z</time>
      </trkpt>
      <trkpt lat="44.4516" lon="1.48047">
        <ele>484</ele>
        <time>2024-02-10T09:32:07Z</time>
      </trkpt>
      <trkpt lat="44.4516" lon="1.48048">
        <ele>484</ele>
        <time>2024-02-10T09:32:09Z</time>
      </trkpt>
      <trkpt lat="44.4516" lon="1.48048">
        <ele>484</ele>
        <time>2024-02-10T09:32:11Z</time>
      </trkpt>
      <trkpt lat="44.45159" lon="1.48049">
        <ele>484</ele>
        <time>2024-02-10T09:32:13Z</time>
      </trkpt>
      <trkpt lat="44.45159" lon="1.48049">
        <ele>483.8</ele>
        <time>2024-02-10T09:32:15Z</time>
      </trkpt>
      <trkpt lat="44.45159" lon="1.48048">
        <ele>483.8</ele>
        <time>2024-02-10T09:32:17Z</time>
      </trkpt>
      <trkpt lat="44.4516" lon="1.48048">
        <ele>483.8</ele>
        <time>2024-02-10T09:32:19Z</time>
      </trkpt>
      <trkpt lat="44.4516" lon="1.48048">
        <ele>483.8</ele>
        <time>2024-02-10T09:32:21Z</time>
      </trkpt>
      <trkpt lat="44.45161" lon="1.48048">
        <ele>483.8</ele>
        <time>2024-02-10T09:32:23Z</time>
      </trkpt>
      <trkpt lat="44.45161" lon="1.48048">
        <ele>484</ele>
        <time>2024-02-10T09:32:24Z</time>
      </trkpt>
      <trkpt lat="44.45161" lon="1.48048">
        <ele>484</ele>
        <time>2024-02-10T09:32:25Z</time>
      </trkpt>
      <trkpt lat="44.45161" lon="1.48048">
        <ele>483.8</ele>
        <time>2024-02-10T09:32:27Z</time>
      </trkpt>
      <trkpt lat="44.45161" lon="1.48049">
        <ele>484</ele>
        <time>2024-02-10T09:32:29Z</time>
      </trkpt>
      <trkpt lat="44.45161" lon="1.48049">
        <ele>483.6</ele>
        <time>2024-02-10T09:32:31Z</time>
      </trkpt>
      <trkpt lat="44.45161" lon="1.48049">
        <ele>483.6</ele>
        <time>2024-02-10T09:32:32Z</time>
      </trkpt>
      <trkpt lat="44.45161" lon="1.48049">
        <ele>483.8</ele>
        <time>2024-02-10T09:32:33Z</time>
      </trkpt>
      <trkpt lat="44.45161" lon="1.48049">
        <ele>483.6</ele>
        <time>2024-02-10T09:32:35Z</time>
      </trkpt>
      <trkpt lat="44.45161" lon="1.48049">
        <ele>483.6</ele>
        <time>2024-02-10T09:32:37Z</time>
      </trkpt>
      <trkpt lat="44.45161" lon="1.48049">
        <ele>483.8</ele>
        <time>2024-02-10T09:32:39Z</time>
      </trkpt>
      <trkpt lat="44.45161" lon="1.48049">
        <ele>483.6</ele>
        <time>2024-02-10T09:32:41Z</time>
      </trkpt>
      <trkpt lat="44.45161" lon="1.48049">
        <ele>483.6</ele>
        <time>2024-02-10T09:32:43Z</time>
      </trkpt>
      <trkpt lat="44.45162" lon="1.48049">
        <ele>483.6</ele>
        <time>2024-02-10T09:32:45Z</time>
      </trkpt>
      <trkpt lat="44.45163" lon="1.4805">
        <ele>483.6</ele>
        <time>2024-02-10T09:32:47Z</time>
      </trkpt>
      <trkpt lat="44.45164" lon="1.4805">
        <ele>483.6</ele>
        <time>2024-02-10T09:32:49Z</time>
      </trkpt>
      <trkpt lat="44.45165" lon="1.4805">
        <ele>483.6</ele>
        <time>2024-02-10T09:32:50Z</time>
      </trkpt>
      <trkpt lat="44.45165" lon="1.48051">
        <ele>483.6</ele>
        <time>2024-02-10T09:32:51Z</time>
      </trkpt>
      <trkpt lat="44.45166" lon="1.48052">
        <ele>483.6</ele>
        <time>2024-02-10T09:32:53Z</time>
      </trkpt>
      <trkpt lat="44.45168" lon="1.48053">
        <ele>483.4</ele>
        <time>2024-02-10T09:32:55Z</time>
      </trkpt>
      <trkpt lat="44.45171" lon="1.48054">
        <ele>483.4</ele>
        <time>2024-02-10T09:32:57Z</time>
      </trkpt>
      <trkpt lat="44.45175" lon="1.48058">
        <ele>483.2</ele>
        <time>2024-02-10T09:32:59Z</time>
      </trkpt>
      <trkpt lat="44.4518" lon="1.48063">
        <ele>483.4</ele>
        <time>2024-02-10T09:33:01Z</time>
      </trkpt>
      <trkpt lat="44.45187" lon="1.48068">
        <ele>483.2</ele>
        <time>2024-02-10T09:33:03Z</time>
      </trkpt>
      <trkpt lat="44.4519" lon="1.48072">
        <ele>483.2</ele>
        <time>2024-02-10T09:33:04Z</time>
      </trkpt>
      <trkpt lat="44.45194" lon="1.48074">
        <ele>483.2</ele>
        <time>2024-02-10T09:33:05Z</time>
      </trkpt>
      <trkpt lat="44.45201" lon="1.48079">
        <ele>483.4</ele>
        <time>2024-02-10T09:33:07Z</time>
      </trkpt>
      <trkpt lat="44.45211" lon="1.48082">
        <ele>483.2</ele>
        <time>2024-02-10T09:33:09Z</time>
      </trkpt>
      <trkpt lat="44.45216" lon="1.48085">
        <ele>483.2</ele>
        <time>2024-02-10T09:33:10Z</time>
      </trkpt>
      <trkpt lat="44.4522" lon="1.48089">
        <ele>483</ele>
        <time>2024-02-10T09:33:11Z</time>
      </trkpt>
      <trkpt lat="44.45224" lon="1.48094">
        <ele>483</ele>
        <time>2024-02-10T09:33:12Z</time>
      </trkpt>
      <trkpt lat="44.45228" lon="1.481">
        <ele>483</ele>
        <time>2024-02-10T09:33:13Z</time>
      </trkpt>
      <trkpt lat="44.45239" lon="1.48112">
        <ele>482.8</ele>
        <time>2024-02-10T09:33:15Z</time>
      </trkpt>
      <trkpt lat="44.4525" lon="1.48121">
        <ele>482.8</ele>
        <time>2024-02-10T09:33:17Z</time>
      </trkpt>
      <trkpt lat="44.45262" lon="1.48127">
        <ele>482.8</ele>
        <time>2024-02-10T09:33:19Z</time>
      </trkpt>
      <trkpt lat="44.45272" lon="1.48134">
        <ele>482.8</ele>
        <time>2024-02-10T09:33:21Z</time>
      </trkpt>
      <trkpt lat="44.45283" lon="1.48139">
        <ele>482.8</ele>
        <time>2024-02-10T09:33:23Z</time>
      </trkpt>
      <trkpt lat="44.45294" lon="1.48146">
        <ele>482.8</ele>
        <time>2024-02-10T09:33:25Z</time>
      </trkpt>
      <trkpt lat="44.45299" lon="1.4815">
        <ele>482.6</ele>
        <time>2024-02-10T09:33:26Z</time>
      </trkpt>
      <trkpt lat="44.45304" lon="1.48153">
        <ele>482.8</ele>
        <time>2024-02-10T09:33:27Z</time>
      </trkpt>
      <trkpt lat="44.45308" lon="1.48156">
        <ele>482.8</ele>
        <time>2024-02-10T09:33:28Z</time>
      </trkpt>
      <trkpt lat="44.45313" lon="1.48155">
        <ele>482.6</ele>
        <time>2024-02-10T09:33:29Z</time>
      </trkpt>
      <trkpt lat="44.45319" lon="1.4815">
        <ele>482.4</ele>
        <time>2024-02-10T09:33:30Z</time>
      </trkpt>
      <trkpt lat="44.45322" lon="1.48146">
        <ele>482.4</ele>
        <time>2024-02-10T09:33:31Z</time>
      </trkpt>
      <trkpt lat="44.45326" lon="1.48136">
        <ele>482.4</ele>
        <time>2024-02-10T09:33:33Z</time>
      </trkpt>
      <trkpt lat="44.45328" lon="1.48131">
        <ele>482.4</ele>
        <time>2024-02-10T09:33:34Z</time>
      </trkpt>
      <trkpt lat="44.4533" lon="1.48127">
        <ele>482.4</ele>
        <time>2024-02-10T09:33:35Z</time>
      </trkpt>
      <trkpt lat="44.45333" lon="1.48119">
        <ele>482.4</ele>
        <time>2024-02-10T09:33:37Z</time>
      </trkpt>
      <trkpt lat="44.45334" lon="1.48112">
        <ele>482.4</ele>
        <time>2024-02-10T09:33:39Z</time>
      </trkpt>
      <trkpt lat="44.45334" lon="1.4811">
        <ele>482.4</ele>
        <time>2024-02-10T09:33:40Z</time>
      </trkpt>
      <trkpt lat="44.45333" lon="1.48107">
        <ele>482.4</ele>
        <time>2024-02-10T09:33:41Z</time>
      </trkpt>
      <trkpt lat="44.45332" lon="1.48103">
        <ele>482.4</ele>
        <time>2024-02-10T09:33:43Z</time>
      </trkpt>
      <trkpt lat="44.45332" lon="1.48097">
        <ele>482.4</ele>
        <time>2024-02-10T09:33:45Z</time>
      </trkpt>
      <trkpt lat="44.45332" lon="1.48094">
        <ele>482.6</ele>
        <time>2024-02-10T09:33:46Z</time>
      </trkpt>
      <trkpt lat="44.45332" lon="1.4809">
        <ele>482.6</ele>
        <time>2024-02-10T09:33:47Z</time>
      </trkpt>
      <trkpt lat="44.45332" lon="1.48085">
        <ele>482.8</ele>
        <time>2024-02-10T09:33:49Z</time>
      </trkpt>
      <trkpt lat="44.45332" lon="1.48079">
        <ele>482.8</ele>
        <time>2024-02-10T09:33:51Z</time>
      </trkpt>
      <trkpt lat="44.45331" lon="1.48071">
        <ele>482.8</ele>
        <time>2024-02-10T09:33:53Z</time>
      </trkpt>
      <trkpt lat="44.45331" lon="1.48063">
        <ele>483</ele>
        <time>2024-02-10T09:33:55Z</time>
      </trkpt>
      <trkpt lat="44.45331" lon="1.48056">
        <ele>483</ele>
        <time>2024-02-10T09:33:57Z</time>
      </trkpt>
      <trkpt lat="44.45329" lon="1.4805">
        <ele>483</ele>
        <time>2024-02-10T09:33:59Z</time>
      </trkpt>
      <trkpt lat="44.45326" lon="1.48043">
        <ele>482.8</ele>
        <time>2024-02-10T09:34:01Z</time>
      </trkpt>
      <trkpt lat="44.45324" lon="1.48037">
        <ele>483</ele>
        <time>2024-02-10T09:34:03Z</time>
      </trkpt>
      <trkpt lat="44.45322" lon="1.48034">
        <ele>483</ele>
        <time>2024-02-10T09:34:04Z</time>
      </trkpt>
      <trkpt lat="44.4532" lon="1.48032">
        <ele>483</ele>
        <time>2024-02-10T09:34:05Z</time>
      </trkpt>
      <trkpt lat="44.45317" lon="1.48026">
        <ele>483</ele>
        <time>2024-02-10T09:34:07Z</time>
      </trkpt>
      <trkpt lat="44.45313" lon="1.48022">
        <ele>483</ele>
        <time>2024-02-10T09:34:09Z</time>
      </trkpt>
      <trkpt lat="44.45309" lon="1.48017">
        <ele>483</ele>
        <time>2024-02-10T09:34:11Z</time>
      </trkpt>
      <trkpt lat="44.45305" lon="1.48012">
        <ele>483</ele>
        <time>2024-02-10T09:34:13Z</time>
      </trkpt>
      <trkpt lat="44.45301" lon="1.48007">
        <ele>483</ele>
        <time>2024-02-10T09:34:15Z</time>
      </trkpt>
      <trkpt lat="44.45298" lon="1.48001">
        <ele>483</ele>
        <time>2024-02-10T09:34:17Z</time>
      </trkpt>
      <trkpt lat="44.45295" lon="1.47996">
        <ele>483.2</ele>
        <time>2024-02-10T09:34:19Z</time>
      </trkpt>
      <trkpt lat="44.45293" lon="1.47993">
        <ele>483.2</ele>
        <time>2024-02-10T09:34:20Z</time>
      </trkpt>
      <trkpt lat="44.45292" lon="1.4799">
        <ele>483.2</ele>
        <time>2024-02-10T09:34:21Z</time>
      </trkpt>
      <trkpt lat="44.45289" lon="1.47985">
        <ele>483.2</ele>
        <time>2024-02-10T09:34:23Z</time>
      </trkpt>
      <trkpt lat="44.45286" lon="1.47979">
        <ele>483</ele>
        <time>2024-02-10T09:34:25Z</time>
      </trkpt>
      <trkpt lat="44.45285" lon="1.47977">
        <ele>483</ele>
        <time>2024-02-10T09:34:26Z</time>
      </trkpt>
      <trkpt lat="44.45283" lon="1.47974">
        <ele>483.2</ele>
        <time>2024-02-10T09:34:27Z</time>
      </trkpt>
      <trkpt lat="44.4528" lon="1.47968">
        <ele>483.2</ele>
        <time>2024-02-10T09:34:29Z</time>
      </trkpt>
      <trkpt lat="44.45278" lon="1.47962">
        <ele>483</ele>
        <time>2024-02-10T09:34:31Z</time>
      </trkpt>
      <trkpt lat="44.45276" lon="1.47957">
        <ele>483.2</ele>
        <time>2024-02-10T09:34:33Z</time>
      </trkpt>
      <trkpt lat="44.45274" lon="1.4795">
        <ele>483.2</ele>
        <time>2024-02-10T09:34:35Z</time>
      </trkpt>
      <trkpt lat="44.45272" lon="1.47943">
        <ele>483.2</ele>
        <time>2024-02-10T09:34:37Z</time>
      </trkpt>
      <trkpt lat="44.45271" lon="1.47935">
        <ele>483.4</ele>
        <time>2024-02-10T09:34:39Z</time>
      </trkpt>
      <trkpt lat="44.4527" lon="1.47932">
        <ele>483.4</ele>
        <time>2024-02-10T09:34:40Z</time>
      </trkpt>
      <trkpt lat="44.4527" lon="1.47928">
        <ele>483.4</ele>
        <time>2024-02-10T09:34:41Z</time>
      </trkpt>
      <trkpt lat="44.4527" lon="1.47922">
        <ele>483.4</ele>
        <time>2024-02-10T09:34:43Z</time>
      </trkpt>
      <trkpt lat="44.4527" lon="1.47919">
        <ele>483.4</ele>
        <time>2024-02-10T09:34:44Z</time>
      </trkpt>
      <trkpt lat="44.45271" lon="1.47915">
        <ele>483.2</ele>
        <time>2024-02-10T09:34:45Z</time>
      </trkpt>
      <trkpt lat="44.45272" lon="1.47911">
        <ele>483.2</ele>
        <time>2024-02-10T09:34:46Z</time>
      </trkpt>
      <trkpt lat="44.45273" lon="1.47907">
        <ele>483.4</ele>
        <time>2024-02-10T09:34:47Z</time>
      </trkpt>
      <trkpt lat="44.45275" lon="1.47902">
        <ele>483.4</ele>
        <time>2024-02-10T09:34:49Z</time>
      </trkpt>
      <trkpt lat="44.45276" lon="1.47897">
        <ele>483.4</ele>
        <time>2024-02-10T09:34:51Z</time>
      </trkpt>
      <trkpt lat="44.45277" lon="1.47894">
        <ele>483.4</ele>
        <time>2024-02-10T09:34:52Z</time>
      </trkpt>
      <trkpt lat="44.45278" lon="1.47892">
        <ele>483.4</ele>
        <time>2024-02-10T09:34:53Z</time>
      </trkpt>
      <trkpt lat="44.45279" lon="1.47887">
        <ele>483.6</ele>
        <time>2024-02-10T09:34:55Z</time>
      </trkpt>
      <trkpt lat="44.45281" lon="1.47882">
        <ele>483.4</ele>
        <time>2024-02-10T09:34:57Z</time>
      </trkpt>
      <trkpt lat="44.45284" lon="1.47878">
        <ele>483.6</ele>
        <time>2024-02-10T09:34:59Z</time>
      </trkpt>
      <trkpt lat="44.45285" lon="1.47874">
        <ele>483.6</ele>
        <time>2024-02-10T09:35:01Z</time>
      </trkpt>
      <trkpt lat="44.45287" lon="1.47869">
        <ele>483.6</ele>
        <time>2024-02-10T09:35:03Z</time>
      </trkpt>
      <trkpt lat="44.45289" lon="1.47866">
        <ele>483.6</ele>
        <time>2024-02-10T09:35:05Z</time>
      </trkpt>
      <trkpt lat="44.45292" lon="1.47864">
        <ele>483.6</ele>
        <time>2024-02-10T09:35:07Z</time>
      </trkpt>
      <trkpt lat="44.45292" lon="1.47862">
        <ele>483.6</ele>
        <time>2024-02-10T09:35:09Z</time>
      </trkpt>
      <trkpt lat="44.45294" lon="1.47858">
        <ele>483.6</ele>
        <time>2024-02-10T09:35:11Z</time>
      </trkpt>
      <trkpt lat="44.45295" lon="1.47855">
        <ele>483.8</ele>
        <time>2024-02-10T09:35:13Z</time>
      </trkpt>
      <trkpt lat="44.45295" lon="1.47852">
        <ele>483.8</ele>
        <time>2024-02-10T09:35:14Z</time>
      </trkpt>
      <trkpt lat="44.45295" lon="1.47849">
        <ele>483.8</ele>
        <time>2024-02-10T09:35:15Z</time>
      </trkpt>
      <trkpt lat="44.45298" lon="1.47842">
        <ele>483.8</ele>
        <time>2024-02-10T09:35:17Z</time>
      </trkpt>
      <trkpt lat="44.45299" lon="1.47838">
        <ele>483.8</ele>
        <time>2024-02-10T09:35:19Z</time>
      </trkpt>
      <trkpt lat="44.453" lon="1.47834">
        <ele>483.8</ele>
        <time>2024-02-10T09:35:21Z</time>
      </trkpt>
      <trkpt lat="44.45301" lon="1.47828">
        <ele>483.8</ele>
        <time>2024-02-10T09:35:23Z</time>
      </trkpt>
      <trkpt lat="44.45301" lon="1.47823">
        <ele>483.8</ele>
        <time>2024-02-10T09:35:25Z</time>
      </trkpt>
      <trkpt lat="44.45302" lon="1.47818">
        <ele>483.8</ele>
        <time>2024-02-10T09:35:27Z</time>
      </trkpt>
      <trkpt lat="44.45303" lon="1.47815">
        <ele>484</ele>
        <time>2024-02-10T09:35:29Z</time>
      </trkpt>
      <trkpt lat="44.45303" lon="1.47812">
        <ele>484</ele>
        <time>2024-02-10T09:35:30Z</time>
      </trkpt>
      <trkpt lat="44.45303" lon="1.47809">
        <ele>484</ele>
        <time>2024-02-10T09:35:31Z</time>
      </trkpt>
      <trkpt lat="44.45303" lon="1.47803">
        <ele>484.2</ele>
        <time>2024-02-10T09:35:33Z</time>
      </trkpt>
      <trkpt lat="44.45303" lon="1.47798">
        <ele>484.4</ele>
        <time>2024-02-10T09:35:35Z</time>
      </trkpt>
      <trkpt lat="44.45303" lon="1.47792">
        <ele>484.4</ele>
        <time>2024-02-10T09:35:37Z</time>
      </trkpt>
      <trkpt lat="44.45303" lon="1.47787">
        <ele>484.4</ele>
        <time>2024-02-10T09:35:39Z</time>
      </trkpt>
      <trkpt lat="44.45304" lon="1.47781">
        <ele>484.6</ele>
        <time>2024-02-10T09:35:41Z</time>
      </trkpt>
      <trkpt lat="44.45305" lon="1.47775">
        <ele>484.6</ele>
        <time>2024-02-10T09:35:43Z</time>
      </trkpt>
      <trkpt lat="44.45305" lon="1.47772">
        <ele>484.6</ele>
        <time>2024-02-10T09:35:44Z</time>
      </trkpt>
      <trkpt lat="44.45305" lon="1.4777">
        <ele>484.6</ele>
        <time>2024-02-10T09:35:45Z</time>
      </trkpt>
      <trkpt lat="44.45305" lon="1.47765">
        <ele>484.6</ele>
        <time>2024-02-10T09:35:47Z</time>
      </trkpt>
      <trkpt lat="44.45304" lon="1.47761">
        <ele>485</ele>
        <time>2024-02-10T09:35:49Z</time>
      </trkpt>
      <trkpt lat="44.45305" lon="1.47756">
        <ele>485</ele>
        <time>2024-02-10T09:35:51Z</time>
      </trkpt>
      <trkpt lat="44.45305" lon="1.47754">
        <ele>485</ele>
        <time>2024-02-10T09:35:52Z</time>
      </trkpt>
      <trkpt lat="44.45305" lon="1.47751">
        <ele>485.2</ele>
        <time>2024-02-10T09:35:53Z</time>
      </trkpt>
      <trkpt lat="44.45305" lon="1.47745">
        <ele>485.2</ele>
        <time>2024-02-10T09:35:55Z</time>
      </trkpt>
      <trkpt lat="44.45305" lon="1.47742">
        <ele>485.2</ele>
        <time>2024-02-10T09:35:56Z</time>
      </trkpt>
      <trkpt lat="44.45305" lon="1.47739">
        <ele>485.2</ele>
        <time>2024-02-10T09:35:57Z</time>
      </trkpt>
      <trkpt lat="44.45305" lon="1.47733">
        <ele>485.2</ele>
        <time>2024-02-10T09:35:59Z</time>
      </trkpt>
      <trkpt lat="44.45306" lon="1.47726">
        <ele>485.4</ele>
        <time>2024-02-10T09:36:01Z</time>
      </trkpt>
      <trkpt lat="44.45305" lon="1.47719">
        <ele>485.6</ele>
        <time>2024-02-10T09:36:03Z</time>
      </trkpt>
      <trkpt lat="44.45304" lon="1.47713">
        <ele>485.6</ele>
        <time>2024-02-10T09:36:05Z</time>
      </trkpt>
      <trkpt lat="44.45303" lon="1.47707">
        <ele>485.6</ele>
        <time>2024-02-10T09:36:07Z</time>
      </trkpt>
      <trkpt lat="44.45302" lon="1.477">
        <ele>485.8</ele>
        <time>2024-02-10T09:36:09Z</time>
      </trkpt>
      <trkpt lat="44.45301" lon="1.47692">
        <ele>486</ele>
        <time>2024-02-10T09:36:11Z</time>
      </trkpt>
      <trkpt lat="44.453" lon="1.47685">
        <ele>486</ele>
        <time>2024-02-10T09:36:13Z</time>
      </trkpt>
      <trkpt lat="44.45298" lon="1.47678">
        <ele>486</ele>
        <time>2024-02-10T09:36:15Z</time>
      </trkpt>
      <trkpt lat="44.45296" lon="1.47671">
        <ele>486.2</ele>
        <time>2024-02-10T09:36:17Z</time>
      </trkpt>
      <trkpt lat="44.45294" lon="1.47664">
        <ele>486.4</ele>
        <time>2024-02-10T09:36:19Z</time>
      </trkpt>
      <trkpt lat="44.45292" lon="1.47659">
        <ele>486.6</ele>
        <time>2024-02-10T09:36:21Z</time>
      </trkpt>
      <trkpt lat="44.4529" lon="1.47654">
        <ele>486.8</ele>
        <time>2024-02-10T09:36:23Z</time>
      </trkpt>
      <trkpt lat="44.45288" lon="1.4765">
        <ele>486.8</ele>
        <time>2024-02-10T09:36:25Z</time>
      </trkpt>
      <trkpt lat="44.45286" lon="1.47648">
        <ele>486.8</ele>
        <time>2024-02-10T09:36:26Z</time>
      </trkpt>
      <trkpt lat="44.45285" lon="1.47646">
        <ele>486.8</ele>
        <time>2024-02-10T09:36:27Z</time>
      </trkpt>
      <trkpt lat="44.45284" lon="1.47643">
        <ele>486.8</ele>
        <time>2024-02-10T09:36:29Z</time>
      </trkpt>
      <trkpt lat="44.45281" lon="1.47639">
        <ele>486.8</ele>
        <time>2024-02-10T09:36:31Z</time>
      </trkpt>
      <trkpt lat="44.4528" lon="1.47637">
        <ele>487</ele>
        <time>2024-02-10T09:36:32Z</time>
      </trkpt>
      <trkpt lat="44.4528" lon="1.47635">
        <ele>487</ele>
        <time>2024-02-10T09:36:33Z</time>
      </trkpt>
      <trkpt lat="44.45278" lon="1.4763">
        <ele>487</ele>
        <time>2024-02-10T09:36:35Z</time>
      </trkpt>
      <trkpt lat="44.45276" lon="1.47626">
        <ele>487.2</ele>
        <time>2024-02-10T09:36:37Z</time>
      </trkpt>
      <trkpt lat="44.45275" lon="1.47624">
        <ele>487.2</ele>
        <time>2024-02-10T09:36:38Z</time>
      </trkpt>
      <trkpt lat="44.45274" lon="1.47622">
        <ele>487.2</ele>
        <time>2024-02-10T09:36:39Z</time>
      </trkpt>
      <trkpt lat="44.45272" lon="1.47617">
        <ele>487.2</ele>
        <time>2024-02-10T09:36:41Z</time>
      </trkpt>
      <trkpt lat="44.45271" lon="1.47611">
        <ele>487.2</ele>
        <time>2024-02-10T09:36:43Z</time>
      </trkpt>
      <trkpt lat="44.45271" lon="1.47604">
        <ele>487.6</ele>
        <time>2024-02-10T09:36:45Z</time>
      </trkpt>
      <trkpt lat="44.45272" lon="1.47597">
        <ele>487.6</ele>
        <time>2024-02-10T09:36:47Z</time>
      </trkpt>
      <trkpt lat="44.45276" lon="1.47592">
        <ele>487.6</ele>
        <time>2024-02-10T09:36:49Z</time>
      </trkpt>
      <trkpt lat="44.45281" lon="1.47589">
        <ele>487.6</ele>
        <time>2024-02-10T09:36:51Z</time>
      </trkpt>
      <trkpt lat="44.45286" lon="1.47587">
        <ele>487.8</ele>
        <time>2024-02-10T09:36:53Z</time>
      </trkpt>
      <trkpt lat="44.45293" lon="1.47585">
        <ele>487.6</ele>
        <time>2024-02-10T09:36:55Z</time>
      </trkpt>
      <trkpt lat="44.45296" lon="1.47584">
        <ele>487.6</ele>
        <time>2024-02-10T09:36:56Z</time>
      </trkpt>
      <trkpt lat="44.45299" lon="1.47584">
        <ele>487.6</ele>
        <time>2024-02-10T09:36:57Z</time>
      </trkpt>
      <trkpt lat="44.45306" lon="1.47583">
        <ele>487.6</ele>
        <time>2024-02-10T09:36:59Z</time>
      </trkpt>
      <trkpt lat="44.45312" lon="1.47583">
        <ele>487.8</ele>
        <time>2024-02-10T09:37:01Z</time>
      </trkpt>
      <trkpt lat="44.45318" lon="1.47583">
        <ele>487.8</ele>
        <time>2024-02-10T09:37:03Z</time>
      </trkpt>
      <trkpt lat="44.45324" lon="1.47584">
        <ele>487.8</ele>
        <time>2024-02-10T09:37:05Z</time>
      </trkpt>
      <trkpt lat="44.45327" lon="1.47584">
        <ele>487.8</ele>
        <time>2024-02-10T09:37:06Z</time>
      </trkpt>
      <trkpt lat="44.4533" lon="1.47584">
        <ele>487.8</ele>
        <time>2024-02-10T09:37:07Z</time>
      </trkpt>
      <trkpt lat="44.45336" lon="1.47585">
        <ele>487.8</ele>
        <time>2024-02-10T09:37:09Z</time>
      </trkpt>
      <trkpt lat="44.45341" lon="1.47586">
        <ele>488</ele>
        <time>2024-02-10T09:37:11Z</time>
      </trkpt>
      <trkpt lat="44.45346" lon="1.47587">
        <ele>488.2</ele>
        <time>2024-02-10T09:37:13Z</time>
      </trkpt>
      <trkpt lat="44.45353" lon="1.47587">
        <ele>488.4</ele>
        <time>2024-02-10T09:37:15Z</time>
      </trkpt>
      <trkpt lat="44.4536" lon="1.47585">
        <ele>488.4</ele>
        <time>2024-02-10T09:37:17Z</time>
      </trkpt>
      <trkpt lat="44.45367" lon="1.47584">
        <ele>488.4</ele>
        <time>2024-02-10T09:37:19Z</time>
      </trkpt>
      <trkpt lat="44.45375" lon="1.47582">
        <ele>488.4</ele>
        <time>2024-02-10T09:37:21Z</time>
      </trkpt>
      <trkpt lat="44.45383" lon="1.47581">
        <ele>488.6</ele>
        <time>2024-02-10T09:37:23Z</time>
      </trkpt>
      <trkpt lat="44.45391" lon="1.47579">
        <ele>488.8</ele>
        <time>2024-02-10T09:37:25Z</time>
      </trkpt>
      <trkpt lat="44.45398" lon="1.47578">
        <ele>488.8</ele>
        <time>2024-02-10T09:37:27Z</time>
      </trkpt>
      <trkpt lat="44.45402" lon="1.47577">
        <ele>488.8</ele>
        <time>2024-02-10T09:37:28Z</time>
      </trkpt>
      <trkpt lat="44.45405" lon="1.47576">
        <ele>488.8</ele>
        <time>2024-02-10T09:37:29Z</time>
      </trkpt>
      <trkpt lat="44.45413" lon="1.47575">
        <ele>489</ele>
        <time>2024-02-10T09:37:31Z</time>
      </trkpt>
      <trkpt lat="44.45422" lon="1.47573">
        <ele>489</ele>
        <time>2024-02-10T09:37:33Z</time>
      </trkpt>
      <trkpt lat="44.4543" lon="1.4757">
        <ele>489</ele>
        <time>2024-02-10T09:37:35Z</time>
      </trkpt>
      <trkpt lat="44.45435" lon="1.47569">
        <ele>489.2</ele>
        <time>2024-02-10T09:37:36Z</time>
      </trkpt>
      <trkpt lat="44.4544" lon="1.47568">
        <ele>489.2</ele>
        <time>2024-02-10T09:37:37Z</time>
      </trkpt>
      <trkpt lat="44.45449" lon="1.47565">
        <ele>489.4</ele>
        <time>2024-02-10T09:37:39Z</time>
      </trkpt>
      <trkpt lat="44.45457" lon="1.47562">
        <ele>489.4</ele>
        <time>2024-02-10T09:37:41Z</time>
      </trkpt>
      <trkpt lat="44.45465" lon="1.47559">
        <ele>489.4</ele>
        <time>2024-02-10T09:37:43Z</time>
      </trkpt>
      <trkpt lat="44.45473" lon="1.47555">
        <ele>489.4</ele>
        <time>2024-02-10T09:37:45Z</time>
      </trkpt>
      <trkpt lat="44.45482" lon="1.47551">
        <ele>489.4</ele>
        <time>2024-02-10T09:37:47Z</time>
      </trkpt>
      <trkpt lat="44.45491" lon="1.47546">
        <ele>489.6</ele>
        <time>2024-02-10T09:37:49Z</time>
      </trkpt>
      <trkpt lat="44.455" lon="1.47541">
        <ele>489.6</ele>
        <time>2024-02-10T09:37:51Z</time>
      </trkpt>
      <trkpt lat="44.45509" lon="1.47536">
        <ele>489.6</ele>
        <time>2024-02-10T09:37:53Z</time>
      </trkpt>
      <trkpt lat="44.45518" lon="1.4753">
        <ele>489.6</ele>
        <time>2024-02-10T09:37:55Z</time>
      </trkpt>
      <trkpt lat="44.45528" lon="1.47524">
        <ele>489.8</ele>
        <time>2024-02-10T09:37:57Z</time>
      </trkpt>
      <trkpt lat="44.45538" lon="1.47519">
        <ele>489.8</ele>
        <time>2024-02-10T09:37:59Z</time>
      </trkpt>
      <trkpt lat="44.45549" lon="1.47513">
        <ele>490</ele>
        <time>2024-02-10T09:38:01Z</time>
      </trkpt>
      <trkpt lat="44.45559" lon="1.47506">
        <ele>490</ele>
        <time>2024-02-10T09:38:03Z</time>
      </trkpt>
      <trkpt lat="44.4557" lon="1.475">
        <ele>490.2</ele>
        <time>2024-02-10T09:38:05Z</time>
      </trkpt>
      <trkpt lat="44.45576" lon="1.47498">
        <ele>490.2</ele>
        <time>2024-02-10T09:38:06Z</time>
      </trkpt>
      <trkpt lat="44.45582" lon="1.47495">
        <ele>490.2</ele>
        <time>2024-02-10T09:38:07Z</time>
      </trkpt>
      <trkpt lat="44.45588" lon="1.47492">
        <ele>490.2</ele>
        <time>2024-02-10T09:38:08Z</time>
      </trkpt>
      <trkpt lat="44.45594" lon="1.47489">
        <ele>490.2</ele>
        <time>2024-02-10T09:38:09Z</time>
      </trkpt>
      <trkpt lat="44.45605" lon="1.47482">
        <ele>490.4</ele>
        <time>2024-02-10T09:38:11Z</time>
      </trkpt>
      <trkpt lat="44.45615" lon="1.47477">
        <ele>490.4</ele>
        <time>2024-02-10T09:38:13Z</time>
      </trkpt>
      <trkpt lat="44.4562" lon="1.47475">
        <ele>490.4</ele>
        <time>2024-02-10T09:38:14Z</time>
      </trkpt>
      <trkpt lat="44.45625" lon="1.47474">
        <ele>490.4</ele>
        <time>2024-02-10T09:38:15Z</time>
      </trkpt>
      <trkpt lat="44.45631" lon="1.47475">
        <ele>490.6</ele>
        <time>2024-02-10T09:38:17Z</time>
      </trkpt>
      <trkpt lat="44.45634" lon="1.47475">
        <ele>490.6</ele>
        <time>2024-02-10T09:38:18Z</time>
      </trkpt>
      <trkpt lat="44.45636" lon="1.47472">
        <ele>490.6</ele>
        <time>2024-02-10T09:38:19Z</time>
      </trkpt>
      <trkpt lat="44.45637" lon="1.4747">
        <ele>490.6</ele>
        <time>2024-02-10T09:38:20Z</time>
      </trkpt>
      <trkpt lat="44.45637" lon="1.47468">
        <ele>490.6</ele>
        <time>2024-02-10T09:38:21Z</time>
      </trkpt>
      <trkpt lat="44.45638" lon="1.47465">
        <ele>490.6</ele>
        <time>2024-02-10T09:38:23Z</time>
      </trkpt>
      <trkpt lat="44.4564" lon="1.47464">
        <ele>490.6</ele>
        <time>2024-02-10T09:38:24Z</time>
      </trkpt>
      <trkpt lat="44.45642" lon="1.47464">
        <ele>490.6</ele>
        <time>2024-02-10T09:38:25Z</time>
      </trkpt>
      <trkpt lat="44.45646" lon="1.47463">
        <ele>490.8</ele>
        <time>2024-02-10T09:38:27Z</time>
      </trkpt>
      <trkpt lat="44.45651" lon="1.47462">
        <ele>490.8</ele>
        <time>2024-02-10T09:38:29Z</time>
      </trkpt>
      <trkpt lat="44.45653" lon="1.47461">
        <ele>490.8</ele>
        <time>2024-02-10T09:38:30Z</time>
      </trkpt>
      <trkpt lat="44.45656" lon="1.4746">
        <ele>491</ele>
        <time>2024-02-10T09:38:31Z</time>
      </trkpt>
      <trkpt lat="44.45661" lon="1.47459">
        <ele>491</ele>
        <time>2024-02-10T09:38:33Z</time>
      </trkpt>
      <trkpt lat="44.45667" lon="1.47458">
        <ele>491</ele>
        <time>2024-02-10T09:38:35Z</time>
      </trkpt>
      <trkpt lat="44.45673" lon="1.47456">
        <ele>491</ele>
        <time>2024-02-10T09:38:37Z</time>
      </trkpt>
      <trkpt lat="44.45679" lon="1.47455">
        <ele>491.2</ele>
        <time>2024-02-10T09:38:39Z</time>
      </trkpt>
      <trkpt lat="44.45685" lon="1.47455">
        <ele>491.2</ele>
        <time>2024-02-10T09:38:41Z</time>
      </trkpt>
      <trkpt lat="44.45693" lon="1.47454">
        <ele>491.2</ele>
        <time>2024-02-10T09:38:43Z</time>
      </trkpt>
      <trkpt lat="44.457" lon="1.47454">
        <ele>491.2</ele>
        <time>2024-02-10T09:38:45Z</time>
      </trkpt>
      <trkpt lat="44.45704" lon="1.47454">
        <ele>491.2</ele>
        <time>2024-02-10T09:38:46Z</time>
      </trkpt>
      <trkpt lat="44.45708" lon="1.47454">
        <ele>491.4</ele>
        <time>2024-02-10T09:38:47Z</time>
      </trkpt>
      <trkpt lat="44.45715" lon="1.47455">
        <ele>491.4</ele>
        <time>2024-02-10T09:38:49Z</time>
      </trkpt>
      <trkpt lat="44.45723" lon="1.47455">
        <ele>491.4</ele>
        <time>2024-02-10T09:38:51Z</time>
      </trkpt>
      <trkpt lat="44.45732" lon="1.47456">
        <ele>491.6</ele>
        <time>2024-02-10T09:38:53Z</time>
      </trkpt>
      <trkpt lat="44.45741" lon="1.47456">
        <ele>491.4</ele>
        <time>2024-02-10T09:38:55Z</time>
      </trkpt>
      <trkpt lat="44.45746" lon="1.47456">
        <ele>491.6</ele>
        <time>2024-02-10T09:38:56Z</time>
      </trkpt>
      <trkpt lat="44.4575" lon="1.47456">
        <ele>491.6</ele>
        <time>2024-02-10T09:38:57Z</time>
      </trkpt>
      <trkpt lat="44.4576" lon="1.47455">
        <ele>491.6</ele>
        <time>2024-02-10T09:38:59Z</time>
      </trkpt>
      <trkpt lat="44.45765" lon="1.47454">
        <ele>491.6</ele>
        <time>2024-02-10T09:39:00Z</time>
      </trkpt>
      <trkpt lat="44.4577" lon="1.47453">
        <ele>491.6</ele>
        <time>2024-02-10T09:39:01Z</time>
      </trkpt>
      <trkpt lat="44.4578" lon="1.47449">
        <ele>491.6</ele>
        <time>2024-02-10T09:39:03Z</time>
      </trkpt>
      <trkpt lat="44.4579" lon="1.47445">
        <ele>491.6</ele>
        <time>2024-02-10T09:39:05Z</time>
      </trkpt>
      <trkpt lat="44.45801" lon="1.47442">
        <ele>491.6</ele>
        <time>2024-02-10T09:39:07Z</time>
      </trkpt>
      <trkpt lat="44.45811" lon="1.47439">
        <ele>491.6</ele>
        <time>2024-02-10T09:39:09Z</time>
      </trkpt>
      <trkpt lat="44.45822" lon="1.47436">
        <ele>491.6</ele>
        <time>2024-02-10T09:39:11Z</time>
      </trkpt>
      <trkpt lat="44.45827" lon="1.47435">
        <ele>491.8</ele>
        <time>2024-02-10T09:39:12Z</time>
      </trkpt>
      <trkpt lat="44.45831" lon="1.47434">
        <ele>491.8</ele>
        <time>2024-02-10T09:39:13Z</time>
      </trkpt>
      <trkpt lat="44.4584" lon="1.47432">
        <ele>491.8</ele>
        <time>2024-02-10T09:39:15Z</time>
      </trkpt>
      <trkpt lat="44.45844" lon="1.47431">
        <ele>491.6</ele>
        <time>2024-02-10T09:39:16Z</time>
      </trkpt>
      <trkpt lat="44.45849" lon="1.4743">
        <ele>491.6</ele>
        <time>2024-02-10T09:39:17Z</time>
      </trkpt>
      <trkpt lat="44.45859" lon="1.47428">
        <ele>491.8</ele>
        <time>2024-02-10T09:39:19Z</time>
      </trkpt>
      <trkpt lat="44.45869" lon="1.47425">
        <ele>491.8</ele>
        <time>2024-02-10T09:39:21Z</time>
      </trkpt>
      <trkpt lat="44.45878" lon="1.47422">
        <ele>491.8</ele>
        <time>2024-02-10T09:39:23Z</time>
      </trkpt>
      <trkpt lat="44.45887" lon="1.47419">
        <ele>492</ele>
        <time>2024-02-10T09:39:25Z</time>
      </trkpt>
      <trkpt lat="44.45896" lon="1.47415">
        <ele>492</ele>
        <time>2024-02-10T09:39:27Z</time>
      </trkpt>
      <trkpt lat="44.45904" lon="1.47411">
        <ele>492</ele>
        <time>2024-02-10T09:39:29Z</time>
      </trkpt>
      <trkpt lat="44.45909" lon="1.47409">
        <ele>492</ele>
        <time>2024-02-10T09:39:30Z</time>
      </trkpt>
      <trkpt lat="44.45913" lon="1.47407">
        <ele>492</ele>
        <time>2024-02-10T09:39:31Z</time>
      </trkpt>
      <trkpt lat="44.45922" lon="1.47403">
        <ele>492</ele>
        <time>2024-02-10T09:39:33Z</time>
      </trkpt>
      <trkpt lat="44.4593" lon="1.47399">
        <ele>492</ele>
        <time>2024-02-10T09:39:35Z</time>
      </trkpt>
      <trkpt lat="44.45938" lon="1.47396">
        <ele>492</ele>
        <time>2024-02-10T09:39:37Z</time>
      </trkpt>
      <trkpt lat="44.45943" lon="1.47396">
        <ele>492.2</ele>
        <time>2024-02-10T09:39:38Z</time>
      </trkpt>
      <trkpt lat="44.45947" lon="1.47396">
        <ele>492.4</ele>
        <time>2024-02-10T09:39:39Z</time>
      </trkpt>
      <trkpt lat="44.45956" lon="1.47399">
        <ele>492.4</ele>
        <time>2024-02-10T09:39:41Z</time>
      </trkpt>
      <trkpt lat="44.45964" lon="1.474">
        <ele>492.4</ele>
        <time>2024-02-10T09:39:43Z</time>
      </trkpt>
      <trkpt lat="44.45971" lon="1.47401">
        <ele>492.4</ele>
        <time>2024-02-10T09:39:45Z</time>
      </trkpt>
      <trkpt lat="44.45974" lon="1.47405">
        <ele>492.4</ele>
        <time>2024-02-10T09:39:46Z</time>
      </trkpt>
      <trkpt lat="44.45976" lon="1.47409">
        <ele>492.4</ele>
        <time>2024-02-10T09:39:47Z</time>
      </trkpt>
      <trkpt lat="44.45977" lon="1.47423">
        <ele>492.4</ele>
        <time>2024-02-10T09:39:49Z</time>
      </trkpt>
      <trkpt lat="44.45978" lon="1.4743">
        <ele>492.6</ele>
        <time>2024-02-10T09:39:50Z</time>
      </trkpt>
      <trkpt lat="44.45979" lon="1.47438">
        <ele>492.6</ele>
        <time>2024-02-10T09:39:51Z</time>
      </trkpt>
      <trkpt lat="44.45981" lon="1.47457">
        <ele>492.4</ele>
        <time>2024-02-10T09:39:53Z</time>
      </trkpt>
      <trkpt lat="44.45983" lon="1.47474">
        <ele>492.6</ele>
        <time>2024-02-10T09:39:55Z</time>
      </trkpt>
      <trkpt lat="44.45985" lon="1.47483">
        <ele>492.4</ele>
        <time>2024-02-10T09:39:56Z</time>
      </trkpt>
      <trkpt lat="44.45987" lon="1.47492">
        <ele>492.4</ele>
        <time>2024-02-10T09:39:57Z</time>
      </trkpt>
      <trkpt lat="44.45991" lon="1.47508">
        <ele>492.2</ele>
        <time>2024-02-10T09:39:59Z</time>
      </trkpt>
      <trkpt lat="44.45993" lon="1.47515">
        <ele>492.2</ele>
        <time>2024-02-10T09:40:00Z</time>
      </trkpt>
      <trkpt lat="44.45994" lon="1.4752">
        <ele>492.2</ele>
        <time>2024-02-10T09:40:01Z</time>
      </trkpt>
      <trkpt lat="44.45997" lon="1.47529">
        <ele>492.4</ele>
        <time>2024-02-10T09:40:03Z</time>
      </trkpt>
      <trkpt lat="44.45999" lon="1.47532">
        <ele>492.2</ele>
        <time>2024-02-10T09:40:04Z</time>
      </trkpt>
      <trkpt lat="44.45999" lon="1.47536">
        <ele>492.2</ele>
        <time>2024-02-10T09:40:05Z</time>
      </trkpt>
      <trkpt lat="44.45999" lon="1.47542">
        <ele>492.2</ele>
        <time>2024-02-10T09:40:07Z</time>
      </trkpt>
      <trkpt lat="44.46" lon="1.4755">
        <ele>492.2</ele>
        <time>2024-02-10T09:40:09Z</time>
      </trkpt>
      <trkpt lat="44.46002" lon="1.47561">
        <ele>492.4</ele>
        <time>2024-02-10T09:40:11Z</time>
      </trkpt>
      <trkpt lat="44.46003" lon="1.47572">
        <ele>492.4</ele>
        <time>2024-02-10T09:40:13Z</time>
      </trkpt>
      <trkpt lat="44.46004" lon="1.47582">
        <ele>492.4</ele>
        <time>2024-02-10T09:40:15Z</time>
      </trkpt>
      <trkpt lat="44.46005" lon="1.47593">
        <ele>492.6</ele>
        <time>2024-02-10T09:40:17Z</time>
      </trkpt>
      <trkpt lat="44.46006" lon="1.47599">
        <ele>492.6</ele>
        <time>2024-02-10T09:40:18Z</time>
      </trkpt>
      <trkpt lat="44.46007" lon="1.47605">
        <ele>492.6</ele>
        <time>2024-02-10T09:40:19Z</time>
      </trkpt>
      <trkpt lat="44.4601" lon="1.47616">
        <ele>492.8</ele>
        <time>2024-02-10T09:40:21Z</time>
      </trkpt>
      <trkpt lat="44.46013" lon="1.47627">
        <ele>492.8</ele>
        <time>2024-02-10T09:40:23Z</time>
      </trkpt>
      <trkpt lat="44.46016" lon="1.47639">
        <ele>492.8</ele>
        <time>2024-02-10T09:40:25Z</time>
      </trkpt>
      <trkpt lat="44.4602" lon="1.4765">
        <ele>492.8</ele>
        <time>2024-02-10T09:40:27Z</time>
      </trkpt>
      <trkpt lat="44.46024" lon="1.47661">
        <ele>492.8</ele>
        <time>2024-02-10T09:40:29Z</time>
      </trkpt>
      <trkpt lat="44.46028" lon="1.47672">
        <ele>492.8</ele>
        <time>2024-02-10T09:40:31Z</time>
      </trkpt>
      <trkpt lat="44.4603" lon="1.47678">
        <ele>492.8</ele>
        <time>2024-02-10T09:40:32Z</time>
      </trkpt>
      <trkpt lat="44.46033" lon="1.47683">
        <ele>492.8</ele>
        <time>2024-02-10T09:40:33Z</time>
      </trkpt>
      <trkpt lat="44.46037" lon="1.47694">
        <ele>492.8</ele>
        <time>2024-02-10T09:40:35Z</time>
      </trkpt>
      <trkpt lat="44.4604" lon="1.47705">
        <ele>492.8</ele>
        <time>2024-02-10T09:40:37Z</time>
      </trkpt>
      <trkpt lat="44.46042" lon="1.47717">
        <ele>492.6</ele>
        <time>2024-02-10T09:40:39Z</time>
      </trkpt>
      <trkpt lat="44.46044" lon="1.4773">
        <ele>492.8</ele>
        <time>2024-02-10T09:40:41Z</time>
      </trkpt>
      <trkpt lat="44.46048" lon="1.47741">
        <ele>492.8</ele>
        <time>2024-02-10T09:40:43Z</time>
      </trkpt>
      <trkpt lat="44.46052" lon="1.47751">
        <ele>492.8</ele>
        <time>2024-02-10T09:40:45Z</time>
      </trkpt>
      <trkpt lat="44.46053" lon="1.47756">
        <ele>492.8</ele>
        <time>2024-02-10T09:40:46Z</time>
      </trkpt>
      <trkpt lat="44.46055" lon="1.47761">
        <ele>493</ele>
        <time>2024-02-10T09:40:47Z</time>
      </trkpt>
      <trkpt lat="44.46057" lon="1.47771">
        <ele>493</ele>
        <time>2024-02-10T09:40:49Z</time>
      </trkpt>
      <trkpt lat="44.46057" lon="1.47775">
        <ele>493</ele>
        <time>2024-02-10T09:40:50Z</time>
      </trkpt>
      <trkpt lat="44.46055" lon="1.47778">
        <ele>493</ele>
        <time>2024-02-10T09:40:51Z</time>
      </trkpt>
      <trkpt lat="44.46049" lon="1.4778">
        <ele>493</ele>
        <time>2024-02-10T09:40:53Z</time>
      </trkpt>
      <trkpt lat="44.46046" lon="1.4778">
        <ele>493</ele>
        <time>2024-02-10T09:40:54Z</time>
      </trkpt>
      <trkpt lat="44.46042" lon="1.4778">
        <ele>493</ele>
        <time>2024-02-10T09:40:55Z</time>
      </trkpt>
      <trkpt lat="44.46034" lon="1.4778">
        <ele>493.2</ele>
        <time>2024-02-10T09:40:57Z</time>
      </trkpt>
      <trkpt lat="44.46025" lon="1.47779">
        <ele>493.2</ele>
        <time>2024-02-10T09:40:59Z</time>
      </trkpt>
      <trkpt lat="44.46016" lon="1.47778">
        <ele>493.4</ele>
        <time>2024-02-10T09:41:01Z</time>
      </trkpt>
      <trkpt lat="44.46012" lon="1.47778">
        <ele>493.4</ele>
        <time>2024-02-10T09:41:02Z</time>
      </trkpt>
      <trkpt lat="44.46008" lon="1.47778">
        <ele>493.4</ele>
        <time>2024-02-10T09:41:03Z</time>
      </trkpt>
      <trkpt lat="44.46" lon="1.47777">
        <ele>493.4</ele>
        <time>2024-02-10T09:41:05Z</time>
      </trkpt>
      <trkpt lat="44.45993" lon="1.47776">
        <ele>493.4</ele>
        <time>2024-02-10T09:41:07Z</time>
      </trkpt>
      <trkpt lat="44.45987" lon="1.47774">
        <ele>493.6</ele>
        <time>2024-02-10T09:41:09Z</time>
      </trkpt>
      <trkpt lat="44.45981" lon="1.47772">
        <ele>493.6</ele>
        <time>2024-02-10T09:41:11Z</time>
      </trkpt>
      <trkpt lat="44.45975" lon="1.4777">
        <ele>493.6</ele>
        <time>2024-02-10T09:41:13Z</time>
      </trkpt>
      <trkpt lat="44.45971" lon="1.47766">
        <ele>493.4</ele>
        <time>2024-02-10T09:41:15Z</time>
      </trkpt>
      <trkpt lat="44.45969" lon="1.47763">
        <ele>493.6</ele>
        <time>2024-02-10T09:41:16Z</time>
      </trkpt>
      <trkpt lat="44.45968" lon="1.47761">
        <ele>493.6</ele>
        <time>2024-02-10T09:41:17Z</time>
      </trkpt>
    </trkseg>
  </trk>
</gpx>